[[{"header":{"parameterUnit":"m.s-1","parameterCategory":1,"la1":31.0,"la2":29.5877,"lo1":-88.7671,"lo2":-86.6584,"dy":0.0162,"dx":0.0185,"nx":115,"ny":88,"refTime":"2023-07-23T18:00:00:Z","depth":0,"parameterNumber":2,"parameterNumberName":"U-component_of_WINDS"},"data":[0.0,0.0,0.0,0.0,0.0,0.0,0.0,0.0,0.0,0.0,0.0,0.0,0.0,0.0,0.0,0.0,0.0,0.0,0.0,0.0,0.0,0.0,0.0,0.0,0.0,0.0,0.0,0.0,0.0,0.0,0.0,0.0,0.0,0.0,0.0,0.0,0.0,0.0,0.0,0.0,0.0,0.0,0.0,0.0,0.0,0.0,0.0,0.0,0.0,0.0,0.0,0.0,0.0,0.0,0.0,0.0,0.0,0.0,0.0,0.0,0.0,0.0,0.0,0.0,0.0,0.0,0.0,0.0,0.0,0.0,0.0,0.0,0.0,0.0,0.0,0.0,0.0,0.0,0.0,0.0,0.0,0.0,0.0,0.0,0.0,0.0,0.0,0.0,0.0,0.0,0.0,0.0,0.0,0.0,0.0,0.0,0.0,0.0,0.0,0.0,0.0,0.0,0.0,0.0,0.0,0.0,0.0,0.0,0.0,0.0,0.0,0.0,0.0,0.0,0.0,0.0,0.0,0.0,0.0,0.0,0.0,0.0,0.0,0.0,0.0,0.0,0.0,0.0,0.0,0.0,0.0,0.0,0.0,0.0,0.0,0.0,0.0,0.0,0.0,0.0,0.0,0.0,0.0,0.0,0.0,0.0,0.0,0.0,0.0,0.0,0.0,0.0,0.0,0.0,0.0,0.0,0.0,0.0,0.0,0.0,0.0,0.0,0.0,0.0,0.0,0.0,0.0,0.0,0.0,0.0,0.0,0.0,0.0,0.0,0.0,0.0,0.0,0.0,0.0,0.0,0.0,0.0,0.0,0.0,0.0,0.0,0.0,0.0,0.0,0.0,0.0,0.0,0.0,0.0,0.0,0.0,0.0,0.0,0.0,0.0,0.0,0.0,0.0,0.0,0.0,0.0,0.0,0.0,0.0,0.0,0.0,0.0,0.0,0.0,0.0,0.0,0.0,0.0,0.0,0.0,0.0,0.0,0.0,0.0,0.0,0.0,0.0,0.0,0.0,0.0,0.0,0.0,0.0,0.0,0.0,0.0,0.0,0.0,0.0,0.0,0.0,0.0,0.0,0.0,0.0,0.0,0.0,0.0,0.0,0.0,0.0,0.0,0.0,0.0,0.0,0.0,0.0,0.0,0.0,0.0,0.0,0.0,0.0,0.0,0.0,0.0,0.0,0.0,0.0,0.0,0.0,0.0,0.0,0.0,0.0,0.0,0.0,0.0,0.0,0.0,0.0,0.0,0.0,0.0,0.0,0.0,0.0,0.0,0.0,0.0,0.0,0.0,0.0,0.0,0.0,0.0,0.0,0.0,0.0,0.0,0.0,0.0,0.0,0.0,0.0,0.0,0.0,0.0,0.0,0.0,0.0,0.0,0.0,0.0,0.0,0.0,0.0,0.0,0.0,0.0,0.0,0.0,0.0,0.0,0.0,0.0,0.0,0.0,0.0,0.0,0.0,0.0,0.0,0.0,0.0,0.0,0.0,0.0,0.0,0.0,0.0,0.0,0.0,0.0,0.0,0.0,0.0,0.0,0.0,0.0,0.0,0.0,0.0,0.0,0.0,0.0,0.0,0.0,0.0,0.0,0.0,0.0,0.0,0.0,0.0,0.0,0.0,0.0,0.0,0.0,0.0,0.0,0.0,0.0,0.0,0.0,0.0,0.0,0.0,0.0,0.0,0.0,0.0,0.0,0.0,0.0,0.0,0.0,0.0,0.0,0.0,0.0,0.0,0.0,0.0,0.0,0.0,0.0,0.0,0.0,0.0,0.0,0.0,0.0,0.0,0.0,0.0,0.0,0.0,0.0,0.0,0.0,0.0,0.0,0.0,0.0,0.0,0.0,0.0,0.0,0.0,0.0,0.0,0.0,0.0,0.0,0.0,0.0,0.0,0.0,0.0,0.0,0.0,0.0,0.0,0.0,0.0,0.0,0.0,0.0,0.0,0.0,0.0,0.0,0.0,0.0,0.0,0.0,0.0,0.0,0.0,0.0,0.0,0.0,0.0,0.0,0.0,0.0,0.0,0.0,0.0,0.0,0.0,0.0,0.0,0.0,0.0,0.0,0.0,0.0,0.0,0.0,0.0,0.0,0.0,0.0,0.0,0.0,0.0,0.0,0.0,0.0,0.0,0.0,0.0,0.0,0.0,0.0,0.0,0.0,0.0,0.0,0.0,0.0,0.0,0.0,0.0,0.0,0.0,0.0,0.0,0.0,0.0,0.0,0.0,0.0,0.0,0.0,0.0,0.0,0.0,0.0,0.0,0.0,0.0,0.0,0.0,0.0,0.0,0.0,0.0,0.0,0.0,0.0,0.0,0.0,0.0,0.0,0.0,0.0,0.0,0.0,0.0,0.0,0.0,0.0,0.0,0.0,0.0,0.0,0.0,0.0,0.0,0.0,0.0,0.0,0.0,0.0,0.0,0.0,0.0,0.0,0.0,0.0,0.0,0.0,0.0,0.0,0.0,0.0,0.0,0.0,0.0,0.0,0.0,0.0,0.0,0.0,0.0,0.0,0.0,0.0,0.0,0.0,0.0,0.0,0.0,0.0,0.0,0.0,0.0,0.0,0.0,0.0,0.0,0.0,0.0,0.0,0.0,0.0,0.0,0.0,0.0,0.0,0.0,0.0,0.0,0.0,0.0,0.0,0.0,0.0,0.0,0.0,0.0,0.0,0.0,0.0,0.0,0.0,0.0,0.0,0.0,0.0,0.0,0.0,0.0,0.0,0.0,0.0,0.0,0.0,0.0,0.0,0.0,0.0,0.0,0.0,0.0,0.0,0.0,0.0,0.0,0.0,0.0,0.0,0.0,0.0,0.0,0.0,0.0,0.0,0.0,0.0,0.0,0.0,0.0,0.0,0.0,0.0,0.0,0.0,0.0,0.0,0.0,0.0,0.0,0.0,0.0,0.0,0.0,0.0,0.0,0.0,0.0,0.0,0.0,0.0,0.0,0.0,0.0,0.0,0.0,0.0,0.0,0.0,0.0,0.0,0.0,0.0,0.0,0.0,0.0,0.0,0.0,0.0,0.0,0.0,0.0,0.0,0.0,0.0,0.0,0.0,0.0,0.0,0.0,0.0,0.0,0.0,0.0,0.0,0.0,0.0,0.0,0.0,0.0,0.0,0.0,0.0,0.0,0.0,0.0,0.0,0.0,0.0,0.0,0.0,0.0,0.0,0.0,0.0,0.0,0.0,0.0,0.0,0.0,0.0,0.0,0.0,0.0,0.0,0.0,0.0,0.0,0.0,0.0,0.0,0.0,0.0,0.0,0.0,0.0,0.0,0.0,0.0,0.0,0.0,0.0,0.0,0.0,0.0,0.0,0.0,0.0,0.0,0.0,0.0,0.0,0.0,0.0,0.0,0.0,0.0,0.0,0.0,0.0,0.0,0.0,0.0,0.0,0.0,0.0,0.0,0.0,0.0,0.0,0.0,0.0,0.0,0.0,0.0,0.0,0.0,0.0,0.0,0.0,0.0,0.0,0.0,0.0,0.0,0.0,0.0,0.0,0.0,0.0,0.0,0.0,0.0,0.0,0.0,0.0,0.0,0.0,0.0,0.0,0.0,0.0,0.0,0.0,0.0,0.0,0.0,0.0,0.0,0.0,0.0,0.0,0.0,0.0,0.0,0.0,0.0,0.0,0.0,0.0,0.0,0.0,0.0,0.0,0.0,0.0,0.0,0.0,0.0,0.0,0.0,0.0,0.0,0.0,0.0,0.0,0.0,0.0,0.0,0.0,0.0,0.0,0.0,0.0,0.0,0.0,0.0,0.0,0.0,0.0,0.0,0.0,0.0,0.0,0.0,0.0,0.0,0.0,0.0,0.0,0.0,0.0,0.0,0.0,0.0,0.0,0.0,0.0,0.0,0.0,0.0,0.0,0.0,0.0,0.0,0.0,0.0,0.0,0.0,0.0,0.0,0.0,0.0,0.0,0.0,0.0,0.0,0.0,0.0,0.0,0.0,0.0,0.0,0.0,0.0,0.0,0.0,0.0,0.0,0.0,0.0,0.0,0.0,0.0,0.0,0.0,0.0,0.0,0.0,0.0,0.0,0.0,0.0,0.0,0.0,0.0,0.0,0.0,0.0,0.0,0.0,0.0,0.0,0.0,0.0,0.0,0.0,0.0,0.0,0.0,0.0,0.0,0.0,0.0,0.0,0.0,0.0,0.0,0.0,0.0,0.0,0.0,0.0,0.0,0.0,0.0,0.0,0.0,0.0,0.0,0.0,0.0,0.0,0.0,0.0,0.0,0.0,0.0,0.0,1.8659,0.0,0.0,0.0,0.0,0.0,0.0,0.0,0.0,0.0,0.0,0.0,0.0,0.0,0.0,0.0,0.0,0.0,0.0,0.0,0.0,0.0,0.0,0.0,0.0,0.0,0.0,0.0,0.0,0.0,0.0,0.0,0.0,0.0,0.0,0.0,0.0,0.0,0.0,0.0,0.0,0.0,0.0,0.0,0.0,0.0,0.0,0.0,0.0,0.0,0.0,0.0,0.0,0.0,0.0,0.0,0.0,0.0,0.0,0.0,0.0,0.0,0.0,0.0,0.0,0.0,0.0,0.0,0.0,0.0,0.0,0.0,0.0,0.0,0.0,0.0,0.0,0.0,0.0,0.0,0.0,0.0,0.0,0.0,0.0,0.0,0.0,0.0,0.0,0.0,0.0,0.0,0.0,0.0,0.0,0.0,0.0,0.0,0.0,0.0,0.0,0.0,0.0,0.0,0.0,0.0,0.0,0.0,0.0,0.0,0.0,1.8387,1.816,1.845,1.8545,1.8386,0.0,0.0,0.0,0.0,0.0,0.0,0.0,0.0,0.0,0.0,0.0,0.0,0.0,0.0,0.0,0.0,0.0,0.0,0.0,0.0,0.0,0.0,0.0,0.0,0.0,0.0,0.0,0.0,0.0,0.0,0.0,0.0,0.0,0.0,0.0,0.0,0.0,0.0,0.0,0.0,0.0,0.0,0.0,0.0,0.0,0.0,0.0,0.0,0.0,0.0,0.0,0.0,0.0,0.0,0.0,0.0,0.0,0.0,0.0,0.0,0.0,0.0,0.0,0.0,0.0,0.0,0.0,0.0,0.0,0.0,0.0,0.0,0.0,0.0,0.0,0.0,0.0,0.0,0.0,0.0,0.0,0.0,0.0,0.0,0.0,0.0,0.0,0.0,0.0,0.0,0.0,0.0,0.0,0.0,0.0,0.0,0.0,0.0,0.0,0.0,0.0,0.0,0.0,0.0,0.0,0.0,0.0,0.0,0.0,0.0,0.0,0.0,1.8198,1.832,1.8131,0.0,0.0,0.0,0.0,0.0,0.0,0.0,0.0,0.0,0.0,0.0,0.0,0.0,0.0,0.0,0.0,0.0,0.0,0.0,0.0,0.0,0.0,0.0,0.0,0.0,0.0,0.0,0.0,0.0,0.0,0.0,0.0,0.0,0.0,0.0,0.0,0.0,0.0,0.0,0.0,0.0,0.0,0.0,0.0,0.0,0.0,0.0,0.0,0.0,0.0,0.0,0.0,0.0,0.0,0.0,0.0,0.0,0.0,0.0,0.0,0.0,0.0,0.0,0.0,0.0,0.0,0.0,0.0,0.0,0.0,0.0,0.0,0.0,0.0,0.0,0.0,0.0,0.0,0.0,0.0,0.0,0.0,0.0,0.0,0.0,0.0,0.0,0.0,0.0,0.0,0.0,0.0,0.0,0.0,0.0,0.0,0.0,0.0,0.0,0.0,0.0,0.0,0.0,0.0,0.0,0.0,0.0,0.0,0.0,0.0,1.7828,1.7788,1.7861,0.0,1.7828,0.0,0.0,0.0,0.0,0.0,0.0,0.0,0.0,0.0,0.0,0.0,0.0,0.0,0.0,0.0,0.0,0.0,0.0,0.0,0.0,0.0,0.0,0.0,0.0,0.0,0.0,0.0,0.0,0.0,0.0,0.0,0.0,0.0,0.0,0.0,0.0,0.0,0.0,0.0,0.0,0.0,0.0,0.0,0.0,0.0,0.0,0.0,0.0,0.0,0.0,0.0,0.0,0.0,0.0,0.0,0.0,0.0,0.0,0.0,0.0,0.0,0.0,0.0,0.0,0.0,0.0,0.0,0.0,0.0,0.0,0.0,0.0,0.0,0.0,0.0,0.0,0.0,0.0,0.0,0.0,0.0,0.0,0.0,0.0,0.0,0.0,0.0,0.0,0.0,0.0,0.0,0.0,0.0,0.0,0.0,0.0,0.0,0.0,0.0,0.0,0.0,0.0,0.0,0.0,0.0,0.0,0.0,0.0,0.0,0.0,1.7794,1.7794,1.7794,1.7794,0.0,0.0,0.0,0.0,0.0,0.0,0.0,0.0,0.0,0.0,0.0,0.0,0.0,0.0,0.0,0.0,0.0,0.0,0.0,0.0,0.0,0.0,0.0,0.0,0.0,0.0,0.0,0.0,0.0,0.0,0.0,0.0,0.0,0.0,0.0,0.0,0.0,0.0,0.0,0.0,0.0,0.0,0.0,0.0,0.0,0.0,0.0,0.0,0.0,0.0,0.0,0.0,0.0,0.0,0.0,0.0,0.0,0.0,0.0,0.0,0.0,0.0,0.0,0.0,0.0,0.0,0.0,0.0,0.0,0.0,0.0,0.0,0.0,0.0,0.0,0.0,0.0,0.0,0.0,0.0,0.0,0.0,0.0,0.0,0.0,0.0,0.0,0.0,0.0,0.0,0.0,0.0,0.0,0.0,0.0,0.0,0.0,0.0,0.0,0.0,0.0,0.0,0.0,0.0,0.0,0.0,0.0,0.0,0.0,0.0,1.7792,1.8093,1.8081,1.7713,1.7503,1.7497,0.0,0.0,0.0,0.0,0.0,0.0,0.0,0.0,0.0,0.0,0.0,0.0,0.0,0.0,0.0,0.0,0.0,0.0,0.0,0.0,0.0,0.0,0.0,0.0,0.0,0.0,0.0,0.0,0.0,0.0,0.0,0.0,0.0,0.0,0.0,0.0,0.0,0.0,0.0,0.0,0.0,0.0,0.0,0.0,0.0,0.0,0.0,0.0,0.0,0.0,0.0,0.0,0.0,0.0,0.0,0.0,0.0,0.0,0.0,0.0,0.0,0.0,0.0,0.0,0.0,0.0,0.0,0.0,0.0,0.0,0.0,0.0,0.0,0.0,0.0,0.0,0.0,0.0,0.0,0.0,0.0,0.0,0.0,0.0,0.0,0.0,0.0,0.0,0.0,0.0,0.0,0.0,0.0,0.0,0.0,0.0,0.0,0.0,0.0,0.0,0.0,0.0,0.0,0.0,0.0,0.0,0.0,0.0,1.8468,1.8717,1.8855,1.8843,1.7482,1.6764,0.0,0.0,0.0,0.0,0.0,0.0,0.0,0.0,0.0,0.0,0.0,0.0,0.0,0.0,0.0,0.0,0.0,0.0,0.0,0.0,0.0,0.0,0.0,0.0,0.0,0.0,0.0,0.0,0.0,0.0,0.0,0.0,0.0,0.0,0.0,0.0,0.0,0.0,0.0,0.0,0.0,0.0,0.0,0.0,0.0,0.0,0.0,0.0,0.0,0.0,0.0,0.0,0.0,0.0,0.0,0.0,0.0,0.0,0.0,0.0,0.0,0.0,0.0,0.0,0.0,0.0,0.0,0.0,0.0,0.0,0.0,0.0,0.0,0.0,0.0,0.0,0.0,0.0,0.0,0.0,0.0,0.0,0.0,0.0,0.0,0.0,0.0,0.0,0.0,0.0,0.0,0.0,0.0,0.0,0.0,0.0,0.0,0.0,0.0,0.0,0.0,0.0,0.0,0.0,0.0,0.0,0.0,0.0,0.0,1.7923,1.9017,1.9608,1.9585,1.9087,1.8536,0.0,0.0,0.0,0.0,0.0,0.0,0.0,0.0,0.0,0.0,0.0,0.0,0.0,0.0,0.0,0.0,0.0,0.0,0.0,0.0,0.0,0.0,0.0,0.0,0.0,0.0,0.0,0.0,0.0,0.0,0.0,0.0,0.0,0.0,0.0,0.0,0.0,0.0,0.0,0.0,0.0,0.0,0.0,0.0,0.0,0.0,0.0,0.0,0.0,0.0,0.0,0.0,0.0,0.0,0.0,0.0,0.0,0.0,0.0,0.0,0.0,0.0,0.0,0.0,0.0,0.0,0.0,0.0,0.0,0.0,0.0,0.0,0.0,0.0,0.0,0.0,0.0,0.0,0.0,0.0,0.0,0.0,0.0,0.0,0.0,0.0,0.0,0.0,0.0,0.0,0.0,0.0,0.0,0.0,0.0,0.0,0.0,0.0,0.0,0.0,0.0,0.0,0.0,0.0,0.0,0.0,0.0,0.0,0.0,1.8229,0.0,2.0386,2.0363,1.9604,1.8888,0.0,0.0,0.0,0.0,0.0,0.0,0.0,0.0,0.0,0.0,0.0,0.0,0.0,0.0,0.0,0.0,0.0,0.0,0.0,0.0,0.0,0.0,0.0,0.0,0.0,0.0,0.0,0.0,0.0,0.0,0.0,0.0,0.0,0.0,0.0,0.0,0.0,0.0,0.0,0.0,0.0,0.0,0.0,0.0,0.0,0.0,0.0,0.0,0.0,0.0,0.0,0.0,0.0,0.0,0.0,0.0,0.0,0.0,0.0,0.0,0.0,0.0,0.0,0.0,0.0,0.0,0.0,0.0,0.0,0.0,0.0,0.0,0.0,0.0,0.0,0.0,0.0,0.0,0.0,0.0,0.0,0.0,0.0,0.0,0.0,0.0,0.0,0.0,0.0,0.0,0.0,0.0,0.0,0.0,0.0,0.0,0.0,0.0,0.0,0.0,0.0,0.0,0.0,0.0,0.0,0.0,0.0,0.0,1.7837,1.9614,2.067,2.1207,2.1153,1.8945,1.7614,0.0,0.0,0.0,0.0,0.0,0.0,0.0,0.0,0.0,0.0,0.0,0.0,0.0,0.0,0.0,0.0,0.0,0.0,0.0,0.0,0.0,0.0,0.0,0.0,0.0,0.0,0.0,0.0,0.0,0.0,0.0,0.0,0.0,0.0,0.0,0.0,0.0,0.0,0.0,0.0,0.0,0.0,0.0,0.0,0.0,0.0,0.0,0.0,0.0,0.0,0.0,0.0,0.0,0.0,0.0,0.0,0.0,0.0,0.0,0.0,0.0,0.0,0.0,0.0,0.0,0.0,0.0,0.0,0.0,0.0,0.0,0.0,0.0,0.0,0.0,0.0,0.0,0.0,0.0,0.0,0.0,0.0,0.0,0.0,0.0,0.0,0.0,0.0,0.0,0.0,0.0,0.0,0.0,0.0,0.0,0.0,0.0,0.0,0.0,0.0,0.0,0.0,0.0,0.0,0.0,0.0,0.0,0.0,0.0,1.9502,2.112,2.1972,2.191,2.0542,1.9476,0.0,0.0,0.0,0.0,0.0,0.0,0.0,0.0,0.0,0.0,0.0,0.0,0.0,0.0,0.0,0.0,0.0,0.0,0.0,0.0,0.0,0.0,0.0,0.0,0.0,0.0,0.0,0.0,0.0,0.0,0.0,0.0,0.0,0.0,0.0,0.0,0.0,0.0,0.0,0.0,0.0,0.0,0.0,0.0,0.0,0.0,0.0,0.0,0.0,0.0,0.0,0.0,0.0,0.0,0.0,0.0,0.0,0.0,0.0,0.0,0.0,0.0,0.0,0.0,0.0,0.0,0.0,0.0,0.0,0.0,0.0,0.0,0.0,0.0,0.0,0.0,0.0,0.0,0.0,0.0,0.0,0.0,0.0,0.0,0.0,0.0,0.0,0.0,0.0,0.0,0.0,0.0,0.0,0.0,0.0,0.0,0.0,0.0,0.0,0.0,0.0,0.0,0.0,0.0,0.0,0.0,0.0,0.0,0.0,1.9969,2.148,2.2313,2.2313,2.0997,2.0011,1.942,0.0,0.0,0.0,0.0,0.0,0.0,0.0,0.0,0.0,0.0,0.0,0.0,0.0,0.0,0.0,0.0,0.0,0.0,0.0,0.0,0.0,0.0,0.0,0.0,0.0,0.0,0.0,0.0,0.0,0.0,0.0,0.0,0.0,0.0,0.0,0.0,0.0,0.0,0.0,0.0,0.0,0.0,0.0,0.0,0.0,0.0,0.0,0.0,0.0,0.0,0.0,0.0,0.0,0.0,0.0,0.0,0.0,0.0,0.0,0.0,0.0,0.0,0.0,0.0,0.0,0.0,0.0,0.0,0.0,0.0,0.0,0.0,0.0,0.0,0.0,0.0,0.0,0.0,0.0,0.0,0.0,0.0,0.0,0.0,0.0,0.0,0.0,0.0,0.0,0.0,0.0,0.0,0.0,0.0,0.0,0.0,0.0,0.0,0.0,0.0,0.0,0.0,0.0,0.0,0.0,0.0,0.0,0.0,2.0631,2.1616,2.217,2.2282,2.0427,1.9411,0.0,0.0,0.0,0.0,0.0,0.0,0.0,0.0,0.0,0.0,0.0,0.0,0.0,0.0,0.0,0.0,0.0,0.0,0.0,0.0,0.0,0.0,0.0,0.0,0.0,0.0,0.0,0.0,0.0,0.0,0.0,0.0,0.0,0.0,0.0,0.0,0.0,0.0,0.0,0.0,0.0,0.0,0.0,0.0,0.0,0.0,0.0,0.0,0.0,0.0,0.0,0.0,0.0,0.0,0.0,0.0,0.0,0.0,0.0,0.0,0.0,0.0,0.0,0.0,0.0,0.0,0.0,0.0,0.0,0.0,0.0,0.0,0.0,0.0,0.0,0.0,0.0,0.0,0.0,0.0,0.0,0.0,0.0,0.0,0.0,0.0,0.0,0.0,0.0,0.0,0.0,0.0,0.0,0.0,0.0,0.0,0.0,0.0,0.0,0.0,0.0,0.0,0.0,0.0,0.0,0.0,0.0,0.0,0.0,1.8761,1.9667,2.0839,2.2194,2.0402,1.9411,0.0,0.0,0.0,0.0,0.0,0.0,0.0,0.0,0.0,0.0,0.0,0.0,0.0,0.0,0.0,0.0,0.0,0.0,0.0,0.0,0.0,0.0,0.0,0.0,0.0,0.0,0.0,0.0,0.0,0.0,0.0,0.0,0.0,0.0,0.0,0.0,0.0,0.0,0.0,0.0,0.0,0.0,0.0,0.0,0.0,0.0,0.0,0.0,0.0,0.0,0.0,0.0,0.0,0.0,0.0,0.0,0.0,0.0,0.0,0.0,0.0,0.0,0.0,0.0,0.0,0.0,0.0,0.0,0.0,0.0,0.0,0.0,0.0,0.0,0.0,0.0,0.0,0.0,0.0,0.0,0.0,0.0,0.0,0.0,0.0,0.0,0.0,0.0,0.0,0.0,0.0,0.0,0.0,0.0,0.0,0.0,0.0,0.0,0.0,0.0,0.0,0.0,0.0,0.0,0.0,0.0,0.0,0.0,1.8196,1.8574,1.9133,1.995,2.1053,1.9606,1.8817,0.0,0.0,0.0,0.0,0.0,0.0,0.0,0.0,0.0,0.0,0.0,0.0,0.0,0.0,0.0,0.0,0.0,0.0,0.0,0.0,0.0,0.0,0.0,0.0,0.0,0.0,0.0,0.0,0.0,0.0,0.0,0.0,0.0,0.0,0.0,0.0,0.0,0.0,0.0,0.0,0.0,0.0,0.0,0.0,0.0,0.0,0.0,0.0,0.0,0.0,0.0,0.0,0.0,0.0,0.0,0.0,0.0,0.0,0.0,0.0,0.0,0.0,0.0,0.0,0.0,0.0,0.0,0.0,0.0,0.0,0.0,0.0,0.0,0.0,0.0,0.0,0.0,0.0,0.0,0.0,0.0,0.0,0.0,0.0,0.0,0.0,0.0,0.0,0.0,0.0,0.0,0.0,0.0,0.0,0.0,0.0,0.0,0.0,0.0,0.0,0.0,0.0,0.0,0.0,0.0,0.0,0.0,0.0,1.825,1.9064,1.9115,1.9106,1.9073,1.8384,1.8009,0.0,0.0,0.0,0.0,0.0,0.0,0.0,0.0,0.0,0.0,0.0,0.0,0.0,0.0,0.0,0.0,0.0,0.0,0.0,0.0,0.0,0.0,0.0,0.0,0.0,0.0,0.0,0.0,0.0,0.0,0.0,0.0,0.0,0.0,0.0,0.0,0.0,0.0,0.0,0.0,0.0,0.0,0.0,0.0,0.0,0.0,0.0,0.0,0.0,0.0,0.0,0.0,0.0,0.0,0.0,0.0,0.0,0.0,0.0,0.0,0.0,0.0,0.0,0.0,0.0,0.0,0.0,0.0,0.0,0.0,0.0,0.0,0.0,0.0,0.0,0.0,0.0,0.0,0.0,0.0,0.0,0.0,0.0,0.0,0.0,0.0,0.0,0.0,0.0,0.0,0.0,0.0,0.0,0.0,0.0,0.0,0.0,0.0,0.0,0.0,0.0,0.0,0.0,0.0,0.0,0.0,0.0,0.0,1.6914,1.7118,1.7128,1.7115,1.7115,1.7696,1.8009,0.0,0.0,0.0,0.0,0.0,0.0,0.0,0.0,0.0,0.0,0.0,0.0,0.0,0.0,0.0,0.0,0.0,0.0,0.0,0.0,0.0,0.0,0.0,0.0,0.0,0.0,0.0,0.0,0.0,0.0,0.0,0.0,0.0,0.0,0.0,0.0,0.0,0.0,0.0,0.0,0.0,0.0,0.0,0.0,0.0,0.0,0.0,0.0,1.0381,0.0,0.0,0.0,0.0,0.0,0.0,0.0,0.0,0.0,0.0,0.0,0.0,0.0,0.0,0.0,0.0,0.0,0.0,0.0,0.0,0.0,0.0,0.0,0.0,0.0,0.0,0.0,0.0,0.0,0.0,0.0,0.0,0.0,0.0,0.0,0.0,0.0,0.0,0.0,0.0,0.0,0.0,0.0,0.0,0.0,0.0,0.0,0.0,0.0,0.0,0.0,0.0,0.0,0.0,0.0,0.0,0.0,0.0,0.0,1.6513,1.6513,1.6513,1.6513,1.6522,1.7027,1.73,0.0,0.0,0.0,0.0,0.0,0.0,0.0,0.0,0.0,0.0,0.0,0.0,0.0,0.0,0.0,0.0,0.0,0.0,0.0,0.0,0.0,0.0,0.0,0.0,0.0,0.0,0.0,0.0,0.0,0.0,0.0,0.0,0.0,0.0,0.0,0.0,0.0,0.0,0.0,0.0,0.0,0.0,0.0,0.0,0.0,0.0,0.0,0.0,0.0,0.0,0.0,0.0,0.0,0.0,0.0,0.0,0.0,0.0,0.0,0.0,0.0,0.0,0.0,0.0,0.0,0.0,0.0,0.0,0.0,0.0,0.0,0.0,0.0,0.0,0.0,0.0,0.0,0.0,0.0,0.0,0.0,0.0,0.0,0.0,0.0,0.0,0.0,0.0,0.0,0.0,0.0,0.0,0.0,0.0,0.0,0.0,0.0,0.0,0.0,0.0,0.0,0.0,0.0,0.0,0.0,0.0,0.0,1.6455,1.6513,1.6513,1.6513,1.6513,1.6513,1.6513,1.6455,1.6369,0.0,0.0,0.0,0.0,0.0,0.0,0.0,0.0,0.0,0.0,0.0,0.0,0.0,0.0,0.0,0.0,0.0,0.0,0.0,0.0,0.0,0.0,0.0,0.0,0.0,0.0,0.0,0.0,0.0,0.0,0.0,0.0,0.0,0.0,0.0,0.0,0.0,0.0,1.1417,1.041,0.0,0.0,0.0,0.0,0.0,0.0,0.0,0.0,0.7576,0.0,0.0,0.0,0.0,0.0,0.0,0.0,0.0,0.0,0.0,0.0,0.0,0.0,0.0,0.0,0.0,0.0,0.0,0.0,0.0,0.0,0.0,0.0,0.0,0.0,0.0,0.0,0.0,0.0,0.0,0.0,0.0,0.0,0.0,0.0,0.0,0.0,0.0,0.0,0.0,0.0,0.0,0.0,0.0,0.0,0.0,0.0,0.0,0.0,0.0,0.0,0.0,0.0,0.0,0.0,0.0,1.5765,1.6249,1.6513,1.6513,1.6513,1.6513,1.6513,1.6513,1.6259,1.5809,0.0,0.0,0.0,0.0,0.0,0.0,0.0,0.0,0.0,0.0,0.0,0.0,0.0,0.0,0.0,0.0,0.0,0.0,0.0,0.0,0.0,0.0,0.0,0.0,0.0,0.0,0.0,0.0,0.0,0.0,0.0,0.0,0.0,0.0,0.0,0.0,0.0,0.0,0.0,0.9457,0.9128,0.0,0.0,0.0,0.0,0.0,0.0,0.0,0.0,0.6669,0.0,0.0,0.0,0.0,0.0,0.0,0.0,0.0,0.0,0.0,0.0,0.0,0.0,0.0,0.0,0.0,0.0,0.0,0.0,0.0,0.0,0.0,0.0,0.0,0.0,0.0,0.0,0.0,0.0,0.0,0.0,0.0,0.0,0.0,0.0,0.0,0.0,0.0,0.0,0.0,0.0,0.0,0.0,0.0,0.0,0.0,0.0,0.0,0.0,0.0,0.0,0.0,0.0,0.0,0.0,1.561,1.6194,1.6513,1.6513,1.6513,1.6513,1.6513,1.6513,1.6346,0.0,0.0,0.0,0.0,0.0,0.0,0.0,0.0,0.0,0.0,0.0,0.0,0.0,0.0,0.0,0.0,0.0,0.0,0.0,0.0,0.0,0.0,0.0,0.0,0.0,0.0,0.0,0.0,0.0,0.0,0.0,0.0,0.0,0.0,0.0,0.0,0.0,0.0,0.0,0.0,0.9003,0.8917,0.9242,0.0,0.0,0.0,0.0,0.0,0.0,0.6732,0.6032,0.0,0.0,0.0,0.0,0.0,0.0,0.0,0.0,0.0,0.0,0.0,0.0,0.0,0.0,0.0,0.0,0.0,0.0,0.0,0.0,0.0,0.0,0.0,0.0,0.0,0.0,0.0,0.0,0.0,0.0,0.0,0.0,0.0,0.0,0.0,0.0,0.0,0.0,0.0,0.0,0.0,0.0,0.0,0.0,0.0,0.0,0.0,0.0,0.0,0.0,0.0,0.0,0.0,0.0,0.0,1.5421,1.6128,1.6513,1.6513,1.6513,1.6513,1.6513,1.6513,1.6434,0.0,0.0,0.0,0.0,0.0,0.0,0.0,0.0,0.0,0.0,0.0,0.0,0.0,0.0,0.0,0.0,0.0,0.0,0.0,0.0,0.0,0.0,0.0,0.0,0.0,0.0,0.0,0.0,0.0,0.0,0.0,0.0,0.0,0.0,0.0,0.0,0.0,0.0,0.0,0.0,0.0,0.8791,0.8778,0.8169,0.0,0.0,0.0,0.0,0.6804,0.6077,0.0,0.0,0.0,0.0,0.0,0.0,0.0,0.0,0.0,0.0,0.0,0.0,0.0,0.0,0.0,0.0,0.0,0.0,0.0,0.0,0.0,0.0,0.0,0.0,0.0,0.0,0.0,0.0,0.0,0.0,0.0,0.0,0.0,0.0,0.0,0.0,0.0,0.0,0.0,0.0,0.0,0.0,0.0,0.0,0.0,0.0,0.0,0.0,0.0,0.0,0.0,0.0,0.0,0.0,0.0,0.0,1.4846,1.592,1.6513,1.6513,1.6513,1.6513,1.6513,1.6513,1.6236,0.0,0.0,0.0,0.0,0.0,0.0,0.0,0.0,0.0,0.0,0.0,0.0,0.0,0.0,0.0,0.0,0.0,0.0,0.0,0.0,0.0,0.0,0.0,0.0,0.0,0.0,0.0,0.0,0.0,0.0,0.0,0.0,0.0,0.0,0.0,0.0,0.0,0.0,0.0,0.0,0.0,0.8791,0.8791,0.8156,0.7937,0.0,0.0,0.6831,0.7469,0.6416,0.0,0.0,0.0,0.0,0.0,0.0,0.0,0.0,0.0,0.0,0.0,0.0,0.0,0.0,0.0,0.0,0.0,0.0,0.0,0.0,0.0,0.0,0.0,0.0,0.0,0.0,0.0,0.0,0.0,0.0,0.0,0.0,0.0,0.0,0.0,0.0,0.0,0.0,0.0,0.0,0.0,0.0,0.0,0.0,0.0,0.0,0.0,0.0,0.0,0.0,0.0,0.0,0.0,0.0,0.0,1.4709,1.4744,1.5876,1.6513,1.6513,1.6513,1.6513,1.6513,1.6513,1.6204,0.0,0.0,0.0,0.0,0.0,0.0,0.0,0.0,0.0,0.0,0.0,0.0,0.0,0.0,0.0,0.0,0.0,0.0,0.0,0.0,0.0,0.0,0.0,0.0,0.0,0.0,0.0,0.0,0.0,0.0,0.0,0.0,0.0,0.0,0.0,0.0,0.0,0.0,0.0,0.0,0.0,0.0,0.8178,0.754,0.0,0.0,0.0,0.6072,0.6398,0.0,0.0,0.0,0.0,0.0,0.0,0.0,0.0,0.0,0.0,0.0,0.0,0.0,0.0,0.0,0.0,0.0,0.0,0.0,0.0,0.0,0.0,0.0,0.0,0.0,0.0,0.0,0.0,0.0,0.0,0.0,0.0,0.0,0.0,0.0,0.0,0.0,0.0,0.0,0.0,0.0,0.0,0.0,0.0,0.0,0.0,0.0,0.0,0.0,0.0,0.0,0.0,0.0,0.0,0.0,0.0,0.0,1.4491,1.5522,1.6042,1.6064,1.6053,1.6053,1.6065,1.6194,0.0,0.0,0.0,0.0,0.0,0.0,0.0,0.0,0.0,0.0,0.0,0.0,0.0,0.0,0.0,0.0,0.0,0.0,0.0,0.0,0.0,0.0,0.0,0.0,0.0,0.0,0.0,0.7432,0.0,0.0,0.0,0.0,0.0,0.0,0.0,0.0,0.0,0.0,0.0,0.0,0.0,0.0,0.7519,0.753,0.6925,0.6725,0.0,0.0,0.542,0.5598,0.5608,0.537,0.0,0.0,0.0,0.0,0.0,0.0,0.0,0.0,0.0,0.0,0.0,0.0,0.0,0.0,0.0,0.0,0.0,0.0,0.0,0.0,0.0,0.0,0.0,0.0,0.0,0.0,0.0,0.0,0.0,0.0,0.0,0.0,0.0,0.0,0.0,0.0,0.0,0.0,0.0,0.0,0.0,0.0,0.0,0.0,0.0,0.0,0.0,0.0,0.0,0.0,0.0,0.0,0.0,0.0,1.3851,1.3874,1.4491,1.4846,1.4835,1.4835,1.4812,1.4824,1.5365,1.5387,0.0,0.0,0.0,0.0,0.0,0.0,0.0,0.0,0.0,0.0,0.0,0.0,0.0,0.0,0.0,0.0,0.0,0.0,0.0,0.0,0.0,0.0,0.0,0.0,0.0,0.0,0.0,0.0,0.0,0.0,0.0,0.0,0.0,0.0,0.0,0.0,0.0,0.0,0.0,0.0,0.0,0.7008,0.712,0.6509,0.631,0.0,0.5884,0.5171,0.5865,0.5385,0.4917,0.4729,0.0,0.0,0.0,0.0,0.0,0.0,0.0,0.0,0.0,0.0,0.0,0.0,0.0,0.0,0.0,0.0,0.0,0.0,0.0,0.0,0.0,0.0,0.0,0.0,0.0,0.0,0.0,0.0,0.0,0.0,0.0,0.0,0.0,0.0,0.0,0.0,0.0,0.0,0.0,0.0,0.0,0.0,0.0,0.0,0.0,0.0,0.0,0.0,0.0,0.0,0.0,0.0,0.0,1.3792,1.3804,1.4387,1.4709,1.4709,1.505,1.5241,1.5253,1.5465,1.532,0.0,0.0,0.0,0.0,0.0,0.0,0.0,0.0,0.0,0.0,0.0,0.0,0.0,0.0,0.0,0.0,0.0,0.0,0.0,0.0,0.0,0.0,0.0,0.0,0.0,0.0,0.0,0.0,0.5986,0.5751,0.535,0.0,0.0,0.0,0.0,0.0,0.0,0.0,0.0,0.0,0.0,0.6968,0.6484,0.6175,0.0,0.0,0.5853,0.5157,0.5891,0.5448,0.4999,0.4953,0.5103,0.0,0.0,0.0,0.0,0.0,0.0,0.0,0.0,0.0,0.0,0.0,0.0,0.0,0.0,0.0,0.0,0.0,0.0,0.0,0.0,0.0,0.0,0.0,0.0,0.0,0.0,0.0,0.0,0.0,0.0,0.0,0.0,0.0,0.0,0.0,0.0,0.0,0.0,0.0,0.0,0.0,0.0,0.0,0.0,0.0,0.0,0.0,0.0,0.0,0.0,0.0,0.0,1.354,1.354,1.4131,1.4433,1.4411,1.5028,1.5332,1.5332,1.5499,1.5242,0.0,0.0,0.0,0.0,0.0,0.0,0.0,0.0,0.0,0.0,0.0,0.0,0.0,0.0,0.0,0.0,0.0,0.0,0.0,0.0,0.0,0.0,0.0,0.0,0.0,0.0,0.0,0.0,0.5379,0.5141,0.467,0.0,0.0,0.0,0.0,0.0,0.0,0.0,0.0,0.0,0.0,0.7142,0.6322,0.6197,0.6318,0.6563,0.5719,0.5234,0.574,0.5477,0.517,0.5091,0.0,0.0,0.0,0.0,0.0,0.0,0.0,0.0,0.0,0.0,0.0,0.0,0.0,0.0,0.0,0.0,0.0,0.0,0.0,0.0,0.0,0.0,0.0,0.0,0.0,0.0,0.0,1.3671,0.0,0.0,1.1859,0.0,0.0,0.0,0.0,0.0,0.0,0.0,0.0,0.0,0.0,0.0,0.0,0.0,0.0,0.0,0.0,0.0,0.0,0.0,0.0,0.0,0.0,1.2929,1.2929,1.354,1.3827,1.3827,1.441,1.4732,1.4766,1.5298,1.5039,1.3874,0.0,0.0,0.0,0.0,0.0,0.0,0.0,0.0,0.0,0.0,0.0,0.0,0.0,0.0,0.0,0.0,0.0,0.0,0.0,0.0,0.0,0.0,0.0,0.0,0.0,0.0,0.4769,0.4834,0.4919,0.0,0.0,0.0,0.0,0.0,0.0,0.0,0.0,0.0,0.7482,0.7667,0.7458,0.6784,0.6697,0.6432,0.563,0.5448,0.5431,0.5457,0.5415,0.5321,0.0,0.0,0.0,0.0,0.0,0.0,0.0,0.0,0.0,0.0,0.0,0.0,0.0,0.0,0.0,0.0,0.0,0.0,0.0,0.0,0.0,0.0,0.0,0.0,0.0,0.0,0.0,1.2653,1.2434,0.0,0.0,0.0,0.0,0.0,0.0,0.0,0.0,0.0,0.0,0.0,0.984,1.0504,0.0,0.0,0.0,0.0,0.0,0.0,0.0,0.0,0.0,0.0,0.0,0.0,1.2915,1.2929,1.3503,1.3792,1.3826,1.4789,1.5287,1.5298,1.5488,1.5039,1.3839,0.0,0.0,0.0,0.0,0.0,0.0,0.0,0.0,0.0,0.0,0.0,0.0,0.0,0.0,0.0,0.0,0.0,0.0,0.0,0.0,0.0,0.0,0.0,0.0,0.0,0.4886,0.0,0.0,0.0,0.0,0.0,0.0,0.0,0.0,0.0,0.0,0.6829,0.737,0.7845,0.8406,0.8467,0.7686,0.7569,0.7466,0.0,0.0,0.0,0.0,0.0,0.0,0.0,0.0,0.0,0.0,0.0,0.0,0.0,0.0,0.5395,0.5395,0.5395,0.5395,0.5395,0.0,0.0,0.0,0.0,0.0,0.0,0.0,0.0,0.0,0.0,0.0,0.0,0.0,0.0,1.1665,1.1433,1.1195,0.0,0.0,0.0,0.0,0.0,0.0,0.0,0.0,1.0351,0.9922,0.9543,1.0397,1.08,0.0,1.1015,1.135,0.0,0.0,0.0,0.0,0.0,0.0,0.0,0.0,1.2915,1.2929,1.3503,1.3792,1.3851,1.4994,1.5499,1.5287,1.5287,1.5005,1.4446,1.4225,1.4015,0.0,0.0,0.0,0.0,0.0,0.0,0.0,0.0,0.0,0.0,0.0,0.0,0.0,0.0,0.0,0.0,0.0,0.0,0.0,0.0,0.0,0.0,0.0,0.5439,0.0,0.0,0.0,0.0,0.0,0.0,0.0,0.0,0.0,0.6892,0.7721,0.8415,0.8848,0.9396,0.9437,0.8571,0.0,0.0,0.0,0.0,0.0,0.0,0.0,0.6289,0.6305,0.6305,0.6305,0.6293,0.6046,0.5848,0.5868,0.0,0.0,0.5395,0.5395,0.5395,0.5395,0.5395,0.5395,0.5395,0.5395,0.5395,0.0,0.0,0.0,0.0,0.0,0.0,0.0,0.0,1.2039,1.1354,0.0,1.0128,0.0,0.0,0.0,0.0,1.0809,1.0783,0.0,0.0,1.0695,1.0737,1.0686,1.0695,1.0737,1.0724,1.0146,1.0555,1.1789,1.2535,0.0,0.0,0.0,0.0,0.0,0.0,1.2915,1.2917,1.3517,1.3827,1.3873,1.5016,1.5354,1.4766,1.4744,1.4983,1.5477,1.4949,1.4376,1.3791,1.3745,0.0,0.0,0.0,0.0,0.0,0.0,0.0,0.0,0.0,0.0,0.0,0.0,0.0,0.0,0.0,0.0,0.0,0.0,0.0,0.0,0.6407,0.0,0.0,0.0,0.0,0.0,0.0,0.0,0.0,0.0,0.6091,0.7692,0.863,0.9542,1.0339,0.0,0.0,0.0,0.0,0.8943,0.8122,0.8051,0.8064,0.7929,0.7962,0.7951,0.7864,0.0,0.0,0.7876,0.7193,0.6609,0.6637,0.593,0.5395,0.5395,0.5395,0.5395,0.5395,0.5395,0.5395,0.5395,0.5395,0.5395,1.1845,0.0,0.0,0.0,0.0,1.0669,1.0771,1.135,1.0677,1.0269,1.0077,0.9891,0.0,0.0,0.0,0.0,0.0,0.0,1.0077,1.0064,0.9601,0.9368,0.9361,0.9374,0.9627,1.009,1.0376,1.0965,1.1814,1.2535,1.2915,1.2915,0.0,0.0,0.0,0.0,1.2915,1.2966,1.3919,1.4433,1.4445,1.5611,1.5941,1.5365,1.5343,1.5016,1.4342,1.4144,1.3779,1.319,1.3164,0.0,0.0,0.0,0.0,0.0,0.0,0.0,0.0,0.0,0.0,0.0,0.0,0.0,0.0,0.0,0.0,0.0,0.0,0.0,0.5667,0.6254,0.6643,0.0,0.0,0.0,0.0,0.0,0.0,0.0,0.0,0.0,0.6997,0.7288,0.7781,0.0,0.0,0.8656,0.8418,0.8377,0.8265,0.8024,0.9053,0.0,0.7354,0.7602,0.7581,0.635,0.6145,0.6145,0.6161,0.593,0.5769,0.5798,0.5574,0.5395,0.5395,0.5395,0.5412,0.5395,0.5395,0.5395,0.5395,0.5395,0.5395,1.1416,1.0783,1.0517,1.0547,1.0724,1.009,1.0179,1.0762,1.0102,0.9795,0.9782,0.9523,0.94,0.9413,0.9413,0.0,0.0,0.0,0.9393,0.94,0.9403,0.9413,0.9447,1.0104,1.0631,1.1021,1.1495,1.206,1.2725,1.2893,1.3116,1.3369,0.0,1.2915,1.2915,1.2915,1.2915,1.2929,1.361,1.3989,1.4001,1.4709,1.5231,1.5588,1.5353,1.5017,1.4549,1.4515,1.4206,1.3528,1.35,1.3199,0.0,0.0,0.0,0.0,0.0,0.0,0.0,0.0,0.0,0.0,0.0,0.8435,0.7617,0.0,0.0,0.0,0.6728,0.6277,0.5946,0.6388,0.0,0.0,0.0,0.0,0.0,0.0,0.0,0.5395,0.6166,0.6711,0.6719,0.7006,0.7423,0.7919,0.8292,0.853,0.8511,0.0,0.9033,0.902,0.9328,0.9262,0.8388,0.8112,0.7857,0.7528,0.7458,0.7474,0.7442,0.7202,0.6961,0.6929,0.6679,0.6199,0.5532,0.5924,0.6157,0.5541,0.5395,0.5395,0.5395,0.5395,0.5395,1.139,1.0661,1.0044,1.0149,1.0656,1.0,1.0064,1.058,0.9974,0.971,0.9679,0.9087,0.8804,0.8831,0.8858,0.0,0.8878,0.8858,0.8878,0.8898,0.9894,1.0352,1.0435,1.2037,1.2827,1.2813,1.3018,1.3413,1.3947,1.343,1.3503,1.4058,1.3369,1.2991,1.2991,1.3013,1.2991,1.2991,1.3062,1.3111,1.315,1.315,1.3918,1.5494,1.5017,1.4959,1.5437,1.5483,1.514,1.4422,1.4378,1.3639,1.2097,0.0,0.0,0.0,0.0,0.0,0.0,0.0,0.0,0.0,0.0,0.0,0.0,0.0,0.0,0.7832,0.7962,0.0,0.6696,0.6661,0.0,0.0,0.0,0.5428,0.5491,0.5428,0.5395,0.5395,0.0,0.0,0.6719,0.744,0.7994,0.8001,0.8682,0.9196,0.9201,0.9794,1.0404,1.018,0.9013,0.8593,0.9675,0.8888,0.8425,0.9675,1.0396,1.0104,1.004,0.954,0.9172,0.8963,0.8517,0.7527,0.589,0.6916,0.7544,0.6206,0.5637,0.5451,0.5683,0.5563,0.5477,1.1127,0.9967,0.9777,0.9843,0.9981,0.9322,0.9133,0.925,0.9113,0.9035,0.9028,0.8857,0.8911,0.9118,0.9358,0.9493,0.9493,0.9487,0.9493,0.9536,1.037,1.0758,1.0807,1.1817,1.2289,1.233,1.2854,1.3168,1.3345,1.3702,1.3944,1.4068,1.3899,1.3825,1.3802,1.3825,1.3825,1.3812,1.4319,1.4798,1.5245,1.5259,1.5268,1.5205,1.5077,1.4826,1.4474,1.4458,1.4368,1.4192,1.4185,1.3699,1.2713,1.2172,0.0,0.0,0.0,0.0,0.0,0.0,0.0,0.0,0.0,0.8665,0.7416,0.0,0.6781,0.0,0.76,0.7372,0.5853,0.631,0.0,0.0,0.593,0.567,0.6318,0.5798,0.5395,0.5395,0.6158,0.6723,0.6719,0.7461,0.7992,0.8009,0.818,0.8302,0.8311,0.8458,0.8617,0.8659,0.8388,0.8136,0.8613,0.8297,0.8184,0.8538,0.8662,0.8608,0.8624,0.8463,0.8318,0.8291,0.8156,0.7817,0.7453,0.7747,0.8398,0.8929,0.7291,0.5835,0.7037,0.6351,0.5806,1.1539,1.107,1.0422,1.0178,1.0139,0.9494,0.9206,0.9198,0.9198,0.9198,0.9206,0.9219,0.9285,0.9431,0.9613,0.9701,0.9701,0.9701,0.9701,0.9736,1.0297,1.0537,1.0595,1.1518,1.2144,1.2508,1.2883,1.3256,1.3597,1.396,1.4167,1.4167,1.4502,1.4679,1.465,1.4309,1.41,1.4104,1.4463,1.4822,1.513,1.5166,1.5138,1.5107,1.5107,1.4934,1.4556,1.4543,1.45,1.4414,1.4072,1.3747,1.3475,1.2448,1.193,0.0,0.0,0.0,0.0,0.0,0.0,0.0,0.0,0.0,0.0,0.0,0.6543,0.617,0.692,0.6871,0.5524,0.5851,0.6264,0.6654,0.6268,0.6301,0.7197,0.6865,0.6548,0.6556,0.6983,0.7288,0.7295,0.8049,0.8624,0.875,0.9082,0.9144,0.8716,0.8892,0.9155,0.9156,0.9161,0.9166,0.9144,0.916,0.9176,0.916,0.916,0.9144,0.916,0.916,0.916,0.916,0.916,0.916,0.916,0.916,0.9516,0.9976,0.909,0.7949,0.7963,0.7854,0.794,1.2366,1.2783,1.1513,1.0934,1.079,1.0203,0.987,0.9701,0.9701,0.9701,0.9701,0.9734,0.9754,0.9746,0.9809,0.9808,0.9822,0.9814,0.9814,0.9842,1.0174,1.0319,1.0363,1.1445,1.2328,1.2985,1.3115,1.3492,1.4189,1.4302,1.4347,1.4392,1.5059,1.542,1.5381,1.4626,1.427,1.427,1.4256,1.4256,1.4256,1.427,1.4553,1.5099,1.5023,1.5036,1.5139,1.5049,1.4888,1.4712,1.4052,1.3745,1.3864,1.2565,1.1756,0.0,1.1005,0.0,0.0,0.0,0.0,0.0,0.0,0.0,0.0,0.7291,0.656,0.5789,0.642,0.6556,0.5778,0.5719,0.6029,0.6768,0.6866,0.716,0.7881,0.7912,0.7897,0.8023,0.8054,0.8084,0.8286,0.9018,0.9655,0.9922,1.0476,1.0543,0.9856,1.0171,1.0612,1.0707,1.0687,1.0464,1.0449,1.0493,1.0514,1.0539,1.046,1.0586,1.0491,1.0507,1.0539,1.0539,1.046,1.0507,1.0586,1.0539,1.0539,1.0568,1.0421,0.991,0.8919,0.9423,1.0035,1.3443,1.2944,1.2682,1.22,1.1585,1.1463,1.0748,0.9701,0.9701,0.9701,0.9721,0.9933,1.0018,1.0053,1.0309,1.0432,1.0425,1.0425,1.0432,1.0456,1.1158,1.1482,1.1528,1.2358,1.2848,1.3039,1.3651,1.4049,1.4213,1.4864,1.5177,1.5167,1.5337,1.542,1.5396,0.0,0.0,0.0,1.5152,1.5137,1.5152,1.5152,1.5219,1.5333,1.4715,0.0,1.528,1.4725,1.4361,1.4317,1.417,0.0,0.0,0.0,0.0,0.0,0.0,0.0,0.0,0.0,0.0,0.0,0.8501,0.7994,0.7994,0.7843,0.7674,0.7524,0.7652,0.7692,0.7517,0.7493,0.7588,0.7713,0.7762,0.7832,0.7957,0.7407,0.7279,0.8204,0.8322,0.8692,0.9554,1.0465,1.0971,1.0979,1.1206,1.1246,1.104,1.1104,1.1222,1.1243,1.1046,1.0852,1.0621,1.0612,1.0646,1.0586,1.0586,1.0606,1.062,1.0606,1.0609,1.06,1.0586,1.0586,1.0586,1.0586,1.0586,1.0586,1.0586,1.0507,1.0168,1.0337,1.0499,1.242,1.2374,1.1965,1.1585,0.0,1.121,1.0815,1.0129,1.0151,1.0144,1.0157,1.0283,1.0334,1.0356,1.0526,1.0586,1.0586,1.0586,1.0586,1.0624,1.1014,1.1195,1.121,1.1616,1.2228,1.2978,1.3023,1.3408,1.4189,1.4599,1.4815,1.482,1.522,1.542,1.542,1.542,1.542,1.542,1.542,1.542,1.542,1.542,1.542,1.5381,1.4604,0.0,0.0,0.0,0.0,0.0,0.0,0.0,0.0,1.164,0.0,1.1186,1.0816,1.0586,1.0577,1.019,0.9951,0.9929,0.9534,0.8919,0.8091,0.7994,0.7994,0.7994,0.7616,0.7346,0.7339,0.6972,0.6904,0.7291,0.7735,0.8214,0.8717,0.8841,0.9093,0.9671,0.9498,0.9467,1.0026,1.0463,1.083,1.1016,1.1394,1.1673,1.1775,1.1578,1.1415,1.1405,1.1298,1.1156,1.1018,1.0999,1.0998,1.0989,1.0989,1.1005,1.0989,1.0901,1.0807,1.0778,1.0693,1.0586,1.0586,1.0586,1.0586,1.0586,1.0586,1.0586,1.0586,1.0586,1.0586,1.1413,1.1942,1.1296,1.0942,1.0823,1.0823,1.0728,1.0586,1.0586,0.0,0.0,1.0586,1.0586,1.0586,1.0586,1.0586,1.0586,1.0586,1.0586,1.0586,1.0586,1.0586,1.0586,1.0586,1.1367,1.2726,1.2266,1.2779,1.4168,1.4347,1.4421,1.4481,1.5065,1.542,1.542,1.542,1.542,1.542,1.542,1.542,1.542,1.542,1.542,1.542,1.4481,1.4064,1.4183,1.3289,1.2795,1.2772,1.2158,1.2035,1.2504,1.1327,1.0895,1.15,1.0966,1.0586,1.0586,1.0586,1.0586,1.0586,1.0586,1.0002,0.8544,0.8318,0.8291,0.8452,0.7666,0.7233,0.7349,0.6752,0.6626,0.7382,0.8094,0.8952,0.9862,1.0438,1.0853,1.1292,1.0659,1.0289,1.0502,1.0583,1.0597,1.0923,1.1569,1.2024,1.2173,1.1878,1.1611,1.162,1.1581,1.1493,1.1539,1.1406,1.1419,1.1359,1.1379,1.1412,1.1379,1.1212,1.1092,1.1058,1.0868,1.0774,1.0697,1.07,1.0689,1.0682,1.0626,1.0586,1.0586,1.0586,1.0586,1.2704,1.2826,1.2719,1.2266,1.164,1.1632,1.1226,1.0602,1.0593,1.0593,1.0586,1.0586,1.0586,1.0586,1.0586,1.0586,1.0586,1.0586,1.0586,1.0586,1.0586,1.0586,1.0586,1.0586,1.1076,1.1973,1.2543,1.3304,1.4189,1.4903,1.5235,1.5235,1.5352,1.542,1.542,1.542,1.542,1.542,1.542,1.542,1.542,1.542,1.542,1.5337,1.3951,1.35,1.413,1.2764,1.1966,1.1966,1.1857,1.1546,1.0958,1.0728,1.0656,1.076,1.0649,1.0586,1.0586,1.0586,1.0586,1.0586,1.0586,1.0475,1.0253,0.954,0.9428,1.0098,0.9358,0.9262,0.9916,0.977,0.9707,1.0165,1.044,1.0727,1.1017,1.0634,1.0716,1.1686,1.1076,1.0936,1.1694,1.1883,1.1883,1.2035,1.2081,1.2251,1.2271,1.224,1.2175,1.2148,1.1991,1.1949,1.2015,1.1701,1.1503,1.1412,1.1446,1.1479,1.1486,1.1389,1.1357,1.135,1.1263,1.1202,1.1082,1.0982,1.0981,1.0994,1.0846,1.0599,1.0583,1.0585,1.059,1.1694,1.1678,1.1694,1.1491,1.1162,1.13,1.1152,1.0825,1.0962,1.0865,1.06,1.0586,1.0586,1.0586,1.0586,1.0586,1.0586,1.0586,1.0586,1.0586,1.0586,1.0586,1.0586,1.0586,1.1256,1.242,1.2826,1.3651,1.48,1.5225,1.542,1.542,1.542,1.542,1.542,1.542,1.5177,1.4771,1.5182,1.542,1.542,1.542,1.5182,1.4761,1.359,1.294,1.2878,1.1764,1.1155,1.1155,1.1155,1.0982,1.064,1.0586,1.0586,1.0586,1.0586,1.0586,1.0586,1.0586,1.0586,1.0586,1.0586,1.0586,1.0586,1.0238,1.019,1.053,0.9817,0.951,1.0033,0.9703,0.9512,0.9786,1.0212,1.0637,1.0926,1.111,1.1357,1.1957,1.1781,1.1741,1.2224,1.2305,1.2305,1.2305,1.2305,1.2305,1.2305,1.2305,1.2305,1.2286,1.2199,1.2189,1.2258,1.2083,1.1893,1.1886,1.1886,1.1897,1.1866,1.1779,1.1676,1.1651,1.1538,1.1419,1.1406,1.1312,1.129,1.133,1.0939,1.0649,1.0596,1.0588,1.0583,1.0787,1.0764,1.0794,1.0787,1.0791,1.0995,1.1096,1.1116,1.1306,1.1152,1.0804,1.0787,1.0771,1.0771,1.0787,1.0787,1.0771,1.0771,1.0771,1.0771,1.0787,1.0787,1.0826,1.0996,1.1758,1.2899,1.3356,1.4201,1.5291,1.5584,1.5698,1.5649,1.5428,1.5296,1.5291,1.5009,1.454,1.3995,1.4555,1.4864,1.4859,1.485,1.4555,1.3936,1.3152,1.2427,1.1803,1.1029,1.0586,1.0586,1.0586,1.0586,1.0586,1.0586,1.0586,1.0586,1.0586,1.0586,1.0586,1.0586,1.0586,1.0593,1.0653,1.0671,1.0693,1.0754,1.0754,1.0627,0.9963,0.9676,1.0015,0.9591,0.9189,0.9502,1.009,1.0708,1.1001,1.1607,1.2058,1.2268,1.2305,1.2268,1.2305,1.2305,1.2305,1.2305,1.2305,1.2305,1.2305,1.2305,1.2305,1.2305,1.2305,1.228,1.2305,1.2291,1.2278,1.2305,1.2285,1.2251,1.2225,1.2102,1.2,1.1977,1.1785,1.1713,1.1793,1.1653,1.1591,1.164,1.1245,1.0876,1.1057,1.0927,1.0738,1.1319,1.1332,1.1289,1.1315,1.1312,1.1335,1.1366,1.1372,1.1389,1.1386,1.1332,1.1309,1.1319,1.1326,1.1312,1.1316,1.1306,1.1343,1.1312,1.1306,1.1326,1.1309,1.1384,1.22,1.2701,1.2944,1.4324,1.5014,1.5262,1.6062,1.6513,1.6427,1.5489,1.4939,1.4826,1.3841,1.3223,1.3115,1.3176,1.3221,1.3213,1.3221,1.3183,1.3115,1.2343,1.1896,1.1741,1.1021,1.0586,1.0586,1.0586,1.0586,1.0586,1.0586,1.0586,1.0586,1.0586,1.0586,1.0593,1.0586,1.0606,1.0606,1.0838,1.0972,1.0978,1.1189,1.1229,1.0946,1.0414,1.0405,1.1137,1.1086,1.1076,1.1328,1.154,1.1854,1.2025,1.2208,1.227,1.2296,1.2305,1.2305,1.2305,1.2305,1.2305,1.2305,1.2305,1.2305,1.2305,1.2305,1.2305,1.2305,1.2305,1.2305,1.2305,1.2305,1.2305,1.2305,1.2305,1.2305,1.2285,1.2278,1.227,1.2187,1.2191,1.2158,1.2124,1.2049,1.1879,1.1863,1.1646,1.1463,1.1892,1.169,1.1243,1.1412,1.1412,1.1412,1.1412,1.1432,1.161,1.1683,1.1703,1.1853,1.1944,1.1944,1.1926,1.1733,1.1419,1.1412,1.1412,1.1412,1.1412,1.1412,1.1412,1.1412,1.1412,1.1457,1.1792,1.2241,1.2697,1.3502,1.4074,1.4484,1.4876,1.5047,1.5022,1.4509,1.4304,1.4254,1.3799,1.3316,1.2833,1.2623,1.2301,1.1969,1.2592,1.278,1.2305,1.195,1.1562,1.1123,1.076,1.0586,1.0586,1.0586,1.0586,1.0586,1.0586,1.0586,1.0586,1.0586,1.0682,1.0825,1.0838,1.0895,1.1056,1.1176,1.1249,1.1256,1.1516,1.163,1.1506,1.1131,1.1107,1.1595,1.1689,1.1821,1.2062,1.2124,1.2171,1.2285,1.2305,1.2305,1.2305,1.2305,1.2305,1.2305,1.2305,1.2305,1.2305,1.2305,1.2305,1.2305,1.2305,1.2305,1.2305,1.2305,1.2305,1.2305,1.2305,1.2305,1.2305,1.2305,1.2305,1.2305,1.2305,1.2305,1.2305,1.2305,1.2305,1.2285,1.2238,1.2124,1.2078,1.2082,1.2006,1.2266,1.2105,1.1713,1.1646,1.1646,1.1646,1.1653,1.1673,1.1897,1.2002,1.2029,1.2211,1.2305,1.2305,1.2305,1.2059,1.1686,1.1635,1.1628,1.1628,1.1646,1.1653,1.1646,1.1646,1.1653,1.1646,1.1925,1.2221,1.2619,1.3195,1.3726,1.421,1.4252,1.4244,1.4219,1.3919,1.3729,1.3696,1.344,1.2943,1.2371,1.2099,1.1701,1.1324,1.2063,1.2218,1.1553,1.1469,1.1195,1.0634,1.0586,1.0586,1.0586,1.0586,1.0586,1.0593,1.0667,1.0747,1.0804,1.0811,1.0905,1.1096,1.1109,1.1179,1.1386,1.1472,1.1543,1.1579,1.1835,1.2013,1.1982,1.1782,1.1751,1.1951,1.202,1.2096,1.2271,1.2305,1.2305,1.2305,1.2305,1.2305,1.2305,1.2305,1.2305,1.2305,1.2305,1.2305,1.2305,1.2305,1.2305,1.2305,1.2305,1.2305,1.2305,1.2305,1.2305,1.2305,1.2305,1.2305,1.2305,1.2305,1.2305,1.2305,1.2305,1.2305,1.2305,1.2305,1.2305,1.2305,1.228,1.2273,1.2298,1.2278,1.2254,1.2299,1.2276,1.212,1.2265,1.2251,1.2265,1.2225,1.2246,1.2258,1.2278,1.2258,1.2291,1.2305,1.2305,1.2305,1.2285,1.2213,1.2186,1.2251,1.2226,1.2225,1.2211,1.2211,1.2206,1.2233,1.232,1.3139,1.3107,1.2524,1.3846,1.4731,1.4923,1.5018,1.5149,1.4984,1.3871,1.3332,1.3165,1.2247,1.1556,1.1614,1.1573,1.1437,1.1403,1.1468,1.1288,1.0837,1.0685,1.0712,1.062,1.06,1.0606,1.06,1.0626,1.062,1.0633,1.0835,1.1089,1.1299,1.1346,1.1359,1.1379,1.1386,1.1412,1.1466,1.171,1.1868,1.1882,1.2102,1.2231,1.2271,1.2234,1.2266,1.2283,1.225,1.227,1.2318,1.2318,1.2331,1.232,1.2403,1.2318,1.2345,1.2385,1.2393,1.2358,1.2305,1.2457,1.2476,1.2387,1.2502,1.2576,1.2477,1.241,1.2397,1.236,1.2305,1.2305,1.2305,1.2305,1.2305,1.2305,1.2305,1.2305,1.2305,1.2305,1.2305,1.2305,1.2305,1.2305,1.2305,1.2305,1.2305,1.2305,1.2306,1.2296,1.2301,1.2191,1.2305,1.2305,1.2305,1.2305,1.2305,1.2305,1.2305,1.2305,1.2305,1.2305,1.2305,1.2305,1.2305,1.2305,1.2305,1.2305,1.2305,1.2305,1.2305,1.2305,1.2305,1.2305,1.2335,1.2666,1.2659,1.2482,1.3007,1.3357,1.3357,1.3346,1.3357,1.3295,1.2912,1.2664,1.257,1.2218,1.1991,1.1971,1.1817,1.1728,1.169,1.1506,1.1299,1.1119,1.1116,1.1109,1.1132,1.1092,1.1116,1.1092,1.1109,1.1116,1.1122,1.1199,1.1299,1.1392,1.1412,1.151,1.1677,1.1734,1.179,1.1971,1.2078,1.2138,1.2176,1.2245,1.2305,1.233,1.2516,1.2602,1.2587,1.2444,1.2385,1.2564,1.263,1.2684,1.2825,1.2869,1.2874,1.2872,1.2886,1.2867,1.3012,1.3455,1.377,1.3625,1.4082,1.4304,1.4091,1.3645,1.3182,1.3101,1.2703,1.2305,1.2305,1.2305,1.2305,1.2305,1.2305,1.2305,1.2305,1.2305,1.2305,1.2305,1.2305,1.2305,1.2305,1.2305,1.2305,1.2305,1.2305,1.2305,1.2305,1.2305,1.2305,1.2305,1.2305,1.2305,1.2305,1.2305,1.2305,1.2305,1.2305,1.2305,1.2305,1.2305,1.2305,1.2305,1.2305,1.2305,1.2305,1.2305,1.2305,1.2305,1.2305,1.2305,1.2305,1.2305,1.2305,1.2305,1.2305,1.2305,1.2305,1.2305,1.2305,1.2305,1.2323,1.2305,1.2305,1.2305,1.2305,1.2305,1.2258,1.2122,1.2022,1.2002,1.1799,1.171,1.1675,1.1693,1.1593,1.1426,1.1412,1.1412,1.1412,1.1412,1.1452,1.1557,1.157,1.1599,1.169,1.1675,1.179,1.1989,1.2029,1.2116,1.226,1.2305,1.2305,1.2305,1.241,1.2444,1.2523,1.2744,1.2935,1.2902,1.2731,1.2692,1.2874,1.2938,1.2999,1.3147,1.3204,1.3198,1.3166,1.3166,1.3325,1.3719,1.4336,1.473,1.4835,1.5587,1.5825,1.5535,1.4746,1.4163,1.4216,1.3241,1.2781,1.2659,1.2636,1.2367,1.2318,1.2305,1.2305,1.2305,1.2305,1.2305,1.2305,1.2305,1.2305,1.2305,1.2305,1.2305,1.2305,1.2305,1.2305,1.2305,1.2305,1.2305,1.2305,1.2305,1.2305,1.2305,1.2305,1.2305,1.2305,1.2305,1.2305,1.2305,1.2305,1.2305,1.2305,1.2305,1.2305,1.2305,1.2305,1.2305,1.2305,1.2305,1.2305,1.2305,1.2305,1.2305,1.2305,1.2305,1.2305,1.2305,1.2305,1.2305,1.2305,1.2305,1.2305,1.2305,1.2305,1.2305,1.2305,1.2298,1.2265,1.2271,1.2298,1.2245,1.2225,1.2245,1.222,1.1979,1.1486,1.1408,1.1406,1.1455,1.1397,1.1549,1.1813,1.1888,1.2009,1.2184,1.2258,1.226,1.2278,1.2271,1.2265,1.2358,1.2331,1.2371,1.2444,1.2644,1.2801,1.2831,1.3032,1.3218,1.3213,1.3201,1.3203,1.3194,1.3193,1.3233,1.3267,1.324,1.3227,1.328,1.3313,1.3674,1.445,1.5012,1.5463,1.6201,1.6619,1.6666,1.6403,1.5536,1.5203,1.5083,1.4026,1.297,1.2977,1.2984,1.2613,1.2325,1.2311,1.2305,1.2305,1.2305,1.2305,1.2305,1.2305,1.2305,1.2305,1.2305,1.2305,1.2305,1.2305,1.2305,1.2305,1.2305,1.2305,1.2305,1.2305,1.2305,1.2305,1.2305,1.2305,1.2305,1.2311,1.2305,1.2305,1.2305,1.2305,1.2305,1.2311,1.2305,1.2311,1.2305,1.2305,1.2311,1.2318,1.2311,1.2305,1.2305,1.2305,1.2305,1.2305,1.2305,1.2305,1.2305,1.2305,1.2305,1.2305,1.2305,1.2305,1.2305,1.2305,1.2305,1.2305,1.2305,1.2305,1.2305,1.2305,1.2305,1.2305,1.2305,1.2198,1.2008,1.1361,1.1342,1.1957,1.1361,1.135,1.1999,1.2171,1.2204,1.2285,1.2305,1.2305,1.2305,1.2318,1.2423,1.2589,1.2643,1.2738,1.2878,1.2994,1.3078,1.3085,1.332,1.3486,1.3513,1.3683,1.3708,1.3486,1.3487,1.3567,1.3728,1.3781,1.3835,1.3814,1.3814,1.4317,1.5255,1.5872,1.6668,1.7457,1.8132,1.8368,1.7353,1.6294,1.5427,1.5,1.386,1.3214,1.3305,1.3195,1.282,1.2512,1.2418,1.2318,1.2305,1.2305,1.2305,1.2305,1.2305,1.2305,1.2305,1.2305,1.2305,1.2305,1.2305,1.2305,1.2305,1.2305,1.2305,1.2639,1.2639,1.262,1.2639,1.2639,1.2639,1.262,1.262,1.2645,1.2639,1.2645,1.2645,1.2639,1.262,1.2639,1.2639,1.2645,1.2639,1.2639,1.2579,1.2365,1.2311,1.2305,1.2305,1.2305,1.2305,1.2305,1.2305,1.2305,1.2305,1.2305,1.2305,1.2305,1.2305,1.2305,1.2305,1.2305,1.2305,1.2305,1.2305,1.2305,1.2305,1.2305,1.2249,1.1941,1.1768,1.1675,1.0776,1.0888,1.191,1.1675,1.1712,1.2243,1.2298,1.2305,1.2305,1.2318,1.2351,1.2464,1.2504,1.2617,1.2884,1.2939,1.2986,1.3165,1.3256,1.334,1.3387,1.361,1.3799,1.3805,1.3961,1.3981,1.3814,1.3787,1.3867,1.4055,1.4109,1.4096,1.4055,1.4083,1.4636,1.5566,1.6621,1.7385,1.7989,1.8852,1.9125,1.7769,1.6651,1.5822,1.5033,1.4205,1.3826,1.3738,1.3443,1.301,1.2771,1.2559,1.2405,1.2305,1.2305,1.2305,1.2305,1.2305,1.2305,1.2305,1.2305,1.2305,1.2305,1.2305,1.2305,1.2305,1.2305,1.2305,1.32,1.3206,1.32,1.3166,1.316,1.316,1.314,1.3173,1.3166,1.3146,1.316,1.312,1.3153,1.316,1.2923,1.291,1.3134,1.289,1.2969,1.2895,1.2546,1.2232,1.2366,1.2331,1.2305,1.2305,1.2305,1.2305,1.2305,1.2305,1.2305,1.2305,1.2305,1.2305,1.2305,1.2305,1.2305,1.2305,1.2305,1.2305,1.2268,1.215,1.2139,1.2077,1.1223,1.0714,1.0583,0.9933,1.0295,1.191,1.1996,1.2015,1.2268,1.2318,1.2358,1.2378,1.2351,1.2557,1.275,1.2811,1.2925,1.3167,1.3233,1.3253,1.3347,1.352,1.3634,1.3647,1.39,1.4054,1.4062,1.4103,1.4068,1.4103,1.4035,1.4055,1.4082,1.4109,1.4109,1.4109,1.4145,1.451,1.5538,1.6539,1.7012,1.7516,1.8228,1.8088,1.7307,1.6392,1.6115,1.5309,1.4282,1.4131,1.3925,1.362,1.3246,1.312,1.2893,1.2685,1.2492,1.2458,1.2331,1.2325,1.2331,1.2325,1.2305,1.2305,1.2305,1.2305,1.2305,1.2305,1.2305,1.2305,1.2305,1.3206,1.3206,1.3206,1.3206,1.3206,1.3206,1.3193,1.3213,1.32,1.3167,1.32,1.3206,1.318,1.3107,1.232,1.2387,1.2836,1.2332,1.2492,1.2969,1.2137,1.2151,1.2492,1.2423,1.2269,1.222,1.2271,1.2305,1.2305,1.2293,1.2286,1.2305,1.2249,1.2268,1.2305,1.2268,1.2305,1.2305,1.2305,1.2268,1.2095,1.1545,1.1199,1.1106,1.0233,0.9725,0.9693,0.9448,0.9838,1.1031,1.1199,1.1558,1.2183,1.2512,1.267,1.2678,1.2832,1.2979,1.306,1.3106,1.3233,1.3447,1.3507,1.36,1.3862,1.3917,1.3964,1.3981,1.4083,1.4109,1.4109,1.4109,1.4109,1.4109,1.4109,1.4109,1.4109,1.4109,1.4109,1.4109,1.4109,1.4615,1.5338,1.5962,1.6438,1.7017,1.736,1.7371,1.6382,1.5942,1.5557,1.4867,1.4135,1.4136,1.4028,1.3736,1.3507,1.3433,1.328,1.308,1.2913,1.2811,1.2565,1.2371,1.2398,1.2398,1.2338,1.2305,1.2305,1.2305,1.2305,1.2305,1.2305,1.2305,1.2305,1.2111,1.2105,1.2111,1.2398,1.2712,1.2316,1.2656,1.3343,1.3024,1.2814,1.2834,1.2834,1.2834,1.2691,1.1646,1.1775,1.2562,1.164,1.1507,1.1949,1.1802,1.1622,1.1718,1.2069,1.2209,1.1369,1.2137,1.2173,1.1909,1.2105,1.2293,1.2187,1.1867,1.1867,1.2268,1.1842,1.1675,1.1731,1.2003,1.1978,1.1062,1.092,1.0565,1.011,0.9221,0.8684,0.874,0.874,0.9201,1.0057,1.0663,1.1249,1.1828,1.26,1.2952,1.2972,1.312,1.3227,1.3347,1.3373,1.3507,1.374,1.3814,1.3915,1.4056,1.4109,1.4109,1.4103,1.4109,1.4109,1.4109,1.4109,1.4109,1.4109,1.4109,1.4109,1.4109,1.4109,1.4109,1.4109,1.4124,1.4271,1.5012,1.5372,1.5701,1.5982,1.6296,1.5912,1.5272,1.5138,1.4957,1.4391,1.4109,1.4119,1.4113,1.3903,1.3788,1.372,1.3654,1.348,1.326,1.3113,1.2858,1.2612,1.2538,1.2458,1.2354,1.2301,1.2305,1.2305,1.2305,1.2305,1.2305,1.2305,1.2305,1.0589,1.0589,1.0589,1.1193,1.1878,1.1096,1.177,1.319,1.2505,1.2068,1.2068,1.2097,1.2061,1.2044,1.0867,1.1016,1.1994,1.0856,1.0479,1.0739,1.1005,1.0999,0.9777,1.1794,1.1752,1.0763,1.1942,1.1907,1.1652,1.2023,1.2119,1.187,1.1216,1.1434,1.1836,1.1409,1.105,1.1273,1.1694,1.1298,1.029,1.0271,1.0024,0.9162,0.8242,0.7803,0.7886,0.805,0.8444,0.8961,1.0219,1.0823,1.12,1.2464,1.3068,1.324,1.332,1.348,1.3614,1.3674,1.376,1.4001,1.4055,1.4109,1.4109,1.4109,1.4109,1.4109,1.4109,1.4109,1.4109,1.4109,1.4109,1.4109,1.4109,1.4109,1.4109,1.4109,1.4109,1.4109,1.4109,1.4109,1.4328,1.4768,1.5227,1.5002,1.5226,1.5082,1.4706,1.4573,1.4468,1.425,1.4109,1.4109,1.4096,1.4076,1.4049,1.3995,1.3968,1.3814,1.3547,1.334,1.3133,1.2939,1.2846,1.2621,1.234,1.2305,1.2373,1.2305,1.2305,1.2305,1.2305,1.2305,1.2305,1.0589,1.0589,1.0589,1.074,1.0913,1.0718,1.0891,1.137,1.1128,1.095,1.095,1.095,1.095,1.0913,0.9879,0.9879,1.0713,0.9814,0.9279,0.9418,1.0386,0.9553,0.8683,1.0517,1.1439,1.1049,1.1409,1.1567,1.1571,1.1937,1.1988,1.0528,1.1491,1.1916,1.1241,1.1596,1.1966,1.1867,1.1446,1.0849,1.0216,0.9697,0.9211,0.831,0.748,0.7052,0.7184,0.7841,0.7963,0.7707,0.8389,0.9767,1.1015,1.1877,1.2592,1.3281,1.372,1.3908,1.3968,1.3968,1.4029,1.4062,1.4109,1.4109,1.4109,1.4109,1.4109,1.4109,1.4109,1.4109,1.4109,1.4109,1.4109,1.4109,1.4109,1.4109,1.4109,1.4109,1.4109,1.4109,1.4109,1.4109,1.4109,1.425,1.4391,1.4166,1.4229,1.4328,1.425,1.4109,1.4109,1.4109,1.4109,1.4109,1.4109,1.4109,1.4109,1.4109,1.4109,1.4096,1.3808,1.3614,1.342,1.3267,1.3133,1.2861,1.2559,1.2556,1.2678,1.2492,1.2365,1.2394,1.2434,1.2386,1.2413,0.8965,0.8965,0.8965,0.9292,0.9666,0.9226,0.9592,1.033,1.0009,0.9814,0.9814,0.9792,0.9814,0.971,0.8689,0.8689,0.9318,0.8601,0.8061,0.8321,0.9161,0.8772,0.7844,0.8939,1.0069,0.974,1.0496,1.0583,1.048,1.1024,1.1118,1.0477,1.1241,1.1306,1.1035,1.1232,1.072,1.039,1.0368,0.9901,0.8929,0.8879,0.8319,0.7704,0.7329,0.7258,0.694,0.7837,0.7737,0.7431,0.7955,0.8959,1.0218,1.1394,1.2362,1.291,1.3738,1.4039,1.4103,1.4109,1.4103,1.4109,1.4109,1.4109,1.4109,1.4109,1.4109,1.4109,1.4109,1.4109,1.4109,1.4109,1.4109,1.4109,1.4109,1.4109,1.4109,1.4109,1.4109,1.4109,1.4109,1.4109,1.4109,1.4109,1.4109,1.413,1.413,1.4208,1.4208,1.4109,1.4109,1.4109,1.4109,1.4109,1.4109,1.4109,1.4109,1.4109,1.4109,1.4109,1.3981,1.3861,1.3734,1.3567,1.3407,1.3227,1.2975,1.2999,1.3069,1.3164,1.3089,1.281,1.263,1.2619,1.2716,0.7117,0.7117,0.7117,0.7709,0.8368,0.7621,0.8247,0.9657,0.9056,0.8623,0.8627,0.8606,0.8623,0.8386,0.7665,0.7797,0.8105,0.7797,0.7316,0.7467,0.8189,0.7995,0.7566,0.8048,0.8331,0.7408,0.9081,0.9392,0.9135,0.9368,1.0377,1.0807,1.0704,1.0951,1.1212,1.0679,1.0144,0.9651,0.945,0.8894,0.7714,0.7967,0.782,0.7535,0.7453,0.7499,0.7254,0.7836,0.8188,0.7526,0.8518,0.8992,0.9565,1.0905,1.2301,1.238,1.3442,1.4039,1.4109,1.4109,1.4109,1.4109,1.4109,1.4109,1.4109,1.4109,1.4109,1.4109,1.4109,1.4109,1.4109,1.4109,1.4109,1.4109,1.4109,1.4109,1.4109,1.4109,1.4109,1.4109,1.4109,1.4109,1.4109,1.4109,1.4109,1.4109,1.4109,1.4109,1.4109,1.4109,1.4109,1.4109,1.4109,1.4109,1.4109,1.4109,1.4109,1.4109,1.4109,1.4109,1.4109,1.4015,1.388,1.38,1.364,1.3494,1.3367,1.332,1.3486,1.3798,1.3555,1.3006,1.2857,1.2877,1.3002,0.7117,0.7117,0.7117,0.7228,0.7382,0.7161,0.7356,0.7595,0.7599,0.7423,0.7448,0.7426,0.7489,0.7382,0.7294,0.7272,0.7448,0.7205,0.7117,0.7117,0.7492,0.7272,0.7316,0.7404,0.736,0.7533,0.8443,0.884,0.9018,0.9871,0.9762,0.9671,1.0595,1.1416,1.1286,1.129,1.0665,0.9789,0.9087,0.8143,0.7916,0.7878,0.8055,0.7741,0.7583,0.7273,0.7377,0.812,0.8751,0.8733,0.9705,1.0094,1.0232,1.1305,1.2103,1.2547,1.3421,1.4109,1.4109,1.4109,1.4109,1.4109,1.4109,1.4109,1.4109,1.4109,1.4109,1.4109,1.4109,1.4109,1.4109,1.4109,1.4109,1.4109,1.4109,1.4109,1.4109,1.4109,1.4109,1.4109,1.4109,1.4109,1.4109,1.4109,1.4109,1.4109,1.4109,1.4109,1.4109,1.4109,1.4109,1.4109,1.4109,1.4109,1.4109,1.4109,1.4109,1.4109,1.4109,1.4109,1.4109,1.4109,1.4021,1.3941,1.3929,1.389,1.3776,1.3668,1.3743,1.3938,1.3547,1.3108,1.3213,1.3333,1.3387,0.7117,0.7117,0.7117,0.7117,0.7117,0.7117,0.7117,0.7117,0.7117,0.7117,0.7117,0.7117,0.7117,0.7117,0.7117,0.7117,0.7117,0.7117,0.7117,0.7117,0.7117,0.7117,0.7117,0.7117,0.7117,0.725,0.7709,0.8017,0.8017,0.8418,0.8827,0.9125,0.9964,1.0292,1.0243,1.0086,0.9842,0.9206,0.8264,0.7659,0.7638,0.7655,0.7694,0.7566,0.7413,0.7132,0.7205,0.7533,0.7947,0.8145,0.9061,0.9248,0.957,1.0454,1.1729,1.2376,1.3379,1.4088,1.4088,1.4109,1.4109,1.4109,1.4109,1.4109,1.4109,1.4109,1.4082,1.406,1.4088,1.4109,1.4109,1.406,1.4109,1.4109,1.4109,1.4109,1.4109,1.4109,1.4109,1.4109,1.4109,1.4109,1.4109,1.4109,1.4109,1.4109,1.4109,1.4109,1.4109,1.4109,1.4109,1.4109,1.4109,1.4109,1.4109,1.4109,1.4109,1.4109,1.4109,1.4109,1.4109,1.4109,1.4109,1.4048,1.4098,1.4092,1.4051,1.3903,1.3994,1.4056,1.3797,1.3626,1.3722,1.379,1.3784,0.7117,0.7117,0.7117,0.7117,0.7117,0.7117,0.7117,0.7117,0.7117,0.7117,0.7117,0.7117,0.7117,0.7117,0.7117,0.7117,0.7117,0.7117,0.7117,0.7117,0.7117,0.7117,0.7117,0.7117,0.7117,0.7117,0.7183,0.7117,0.725,0.7379,0.7885,0.8629,0.8925,0.9087,0.9378,0.9386,0.8295,0.7753,0.7165,0.7117,0.7117,0.7117,0.7117,0.7117,0.7117,0.7117,0.7117,0.7205,0.7489,0.7841,0.8386,0.8671,0.8317,0.9592,1.1101,1.2221,1.3224,1.373,1.4082,1.4109,1.4109,1.4109,1.4109,1.4109,1.4109,1.406,1.399,1.3844,1.3682,1.3626,1.3544,1.3675,1.3843,1.4109,1.4109,1.4109,1.4109,1.4109,1.4109,1.4109,1.4109,1.4109,1.4109,1.4109,1.4109,1.4109,1.4109,1.4109,1.4109,1.4109,1.4109,1.4109,1.4109,1.4109,1.4109,1.4109,1.4109,1.4109,1.4109,1.4109,1.4109,1.4109,1.4109,1.4109,1.4103,1.4104,1.4103,1.4109,1.4086,1.4067,1.4084,1.4063,1.3976,1.3956,1.3957,0.7117,0.7117,0.7117,0.7117,0.7117,0.7117,0.7117,0.7117,0.7117,0.7117,0.7117,0.7117,0.7117,0.7117,0.7117,0.7117,0.7117,0.7117,0.7117,0.7117,0.7117,0.7117,0.7117,0.7117,0.7117,0.7117,0.7117,0.7117,0.7117,0.7117,0.7665,0.854,0.8781,0.9213,0.9531,0.8951,0.8868,0.8456,0.7599,0.7117,0.7117,0.7117,0.7117,0.7117,0.7117,0.7205,0.725,0.7272,0.7489,0.8518,0.8737,0.9323,1.0026,1.0351,1.1209,1.1943,1.2547,1.2969,1.3758,1.4046,1.3955,1.3934,1.4046,1.4088,1.406,1.3885,1.3529,1.2551,1.252,1.2529,1.2547,1.2581,1.3084,1.3646,1.4018,1.406,1.4109,1.4109,1.4109,1.4109,1.4109,1.4109,1.4109,1.4109,1.4109,1.4109,1.4109,1.4109,1.4109,1.4109,1.4109,1.4109,1.4109,1.4109,1.4109,1.4109,1.4109,1.4109,1.4109,1.4109,1.4109,1.4109,1.4109,1.4109,1.4109,1.4109,1.4109,1.4109,1.4109,1.4109,1.4109,1.4109,1.4096,1.4109,1.4109,0.7117,0.7117,0.7117,0.7117,0.7117,0.7117,0.7117,0.7117,0.7117,0.7117,0.7117,0.7117,0.7117,0.7117,0.7117,0.7117,0.7117,0.7117,0.7117,0.7117,0.7117,0.7117,0.7117,0.7117,0.7117,0.7117,0.7117,0.7117,0.7117,0.7139,0.7467,0.7797,0.7907,0.7947,0.8834,0.8185,0.7907,0.7665,0.736,0.7117,0.7117,0.7117,0.7117,0.7117,0.7117,0.7492,0.7819,0.7404,0.7753,0.8649,0.8912,0.8689,0.886,0.9187,0.9923,1.0243,1.0999,1.1863,1.2905,1.3652,1.3688,1.3449,1.3625,1.4088,1.3997,1.3421,1.2948,1.238,1.167,1.1397,1.152,1.1959,1.2477,1.3027,1.347,1.3864,1.3955,1.4088,1.4109,1.4109,1.4109,1.4109,1.4109,1.4109,1.4109,1.4109,1.4109,1.4109,1.4109,1.4109,1.4109,1.4109,1.4109,1.4109,1.4109,1.4109,1.4109,1.4109,1.4109,1.4109,1.4109,1.4109,1.4109,1.4109,1.4109,1.4109,1.4109,1.4109,1.4109,1.4109,1.4109,1.4109,1.4109,1.4109,1.4109,0.7117,0.7117,0.7117,0.7117,0.7117,0.7117,0.7117,0.7117,0.7117,0.7117,0.7117,0.7117,0.7117,0.7117,0.7117,0.7117,0.7117,0.7117,0.7117,0.7117,0.7117,0.7117,0.7117,0.7117,0.7117,0.7117,0.7117,0.7117,0.7117,0.7117,0.7139,0.7117,0.7294,0.725,0.7161,0.725,0.7272,0.725,0.7183,0.7117,0.7117,0.7117,0.7117,0.7205,0.7445,0.7969,0.8588,0.8171,0.8233,0.8627,0.8456,0.7991,0.7643,0.8057,0.8711,0.9274,1.0156,1.0783,1.1848,1.2671,1.3145,1.2942,1.2559,1.289,1.2933,1.2312,1.1595,1.1219,1.0664,1.0262,1.0337,1.0939,1.1348,1.1863,1.2495,1.3103,1.3561,1.3442,1.3709,1.4109,1.4109,1.4109,1.4109,1.4109,1.4109,1.4109,1.4109,1.4109,1.4109,1.4109,1.4109,1.4109,1.4109,1.4109,1.4109,1.4109,1.4109,1.4109,1.4109,1.4109,1.4109,1.4109,1.4109,1.4109,1.4109,1.4109,1.4109,1.4109,1.4109,1.4109,1.4109,1.4109,1.4109,1.4109,1.4109,0.7117,0.7117,0.7117,0.7117,0.7117,0.7117,0.7117,0.7117,0.7117,0.7117,0.7117,0.7117,0.7117,0.7117,0.7117,0.7117,0.7117,0.7117,0.7117,0.7117,0.7117,0.7117,0.7117,0.7117,0.7117,0.7117,0.7117,0.7117,0.7117,0.7117,0.7117,0.7117,0.7117,0.7117,0.7117,0.7117,0.7117,0.7117,0.7117,0.7117,0.7117,0.7117,0.7117,0.7338,0.8083,0.8803,0.8868,0.854,0.854,0.8803,0.8215,0.7757,0.758,0.7687,0.8215,0.8951,0.9727,1.0053,1.0378,1.211,1.3124,1.2419,1.1686,1.1327,1.1434,1.0999,1.0276,0.9605,0.9292,0.9048,0.903,0.9244,1.0041,1.0611,1.1305,1.1863,1.227,1.2401,1.2796,1.3752,1.399,1.3823,1.4109,1.4109,1.4109,1.4109,1.4109,1.4109,1.4109,1.4109,1.4109,1.4109,1.4109,1.4109,1.4109,1.4109,1.4109,1.4109,1.4109,1.4109,1.4109,1.4109,1.4109,1.4109,1.4109,1.4109,1.4109,1.4109,1.4109,1.4109,1.4109,1.4109,1.4109,1.4109,1.4109,0.7117,0.7117,0.7117,0.7117,0.7117,0.7117,0.7117,0.7117,0.7117,0.7117,0.7117,0.7117,0.7117,0.7117,0.7117,0.7117,0.7117,0.7117,0.7117,0.7117,0.7117,0.7117,0.7117,0.7117,0.7117,0.7117,0.7117,0.7117,0.7117,0.7117,0.7117,0.7117,0.7117,0.7117,0.7117,0.7117,0.7117,0.7117,0.7117,0.7117,0.7117,0.7117,0.7117,0.7205,0.7356,0.8233,0.8632,0.8105,0.8324,0.8562,0.8324,0.8105,0.7973,0.7995,0.8255,0.8737,0.9383,0.9274,0.934,1.1219,1.2361,1.1542,1.0848,1.0503,1.0265,0.9983,0.9488,0.8856,0.8229,0.7984,0.7856,0.8472,0.9235,0.9615,1.0053,1.0589,1.0988,1.1193,1.1985,1.2984,1.3235,1.3203,1.3634,1.4109,1.4109,1.4109,1.4109,1.4109,1.4109,1.4109,1.4109,1.4109,1.4109,1.4109,1.4109,1.4109,1.4109,1.4109,1.4109,1.4109,1.4109,1.4109,1.4109,1.4109,1.4109,1.4109,1.4109,1.4109,1.4109,1.4109,1.4109,1.4109,1.4109,1.4109,1.4109,0.7117,0.7117,0.7117,0.7117,0.7117,0.7117,0.7117,0.7117,0.7117,0.7117,0.7117,0.7117,0.7117,0.7117,0.7117,0.7117,0.7117,0.7117,0.7117,0.7117,0.7117,0.7117,0.7117,0.7117,0.7117,0.7117,0.7117,0.7117,0.7117,0.7117,0.7117,0.7117,0.7117,0.7117,0.7117,0.7117,0.7117,0.7117,0.7117,0.7117,0.7117,0.7117,0.7117,0.7228,0.7577,0.8145,0.8584,0.8346,0.8303,0.8518,0.8496,0.8299,0.8299,0.8368,0.839,0.8478,0.8649,0.8737,0.8969,0.9857,1.0869,1.0178,0.9527,0.9444,0.9357,0.8838,0.8317,0.8229,0.7533,0.7117,0.7139,0.7816,0.8176,0.8448,0.8685,0.9157,0.9766,1.0173,1.1219,1.2215,1.2414,1.2813,1.3516,1.4018,1.3997,1.4018,1.4109,1.4109,1.4109,1.4109,1.4109,1.4109,1.4109,1.4109,1.4109,1.4109,1.4109,1.4109,1.4109,1.4109,1.4109,1.4109,1.4109,1.4109,1.4109,1.4109,1.4109,1.4109,1.4109,1.4109,1.4109,1.4109,1.4109,1.4109,1.4109,0.7117,0.7117,0.7117,0.7117,0.7117,0.7117,0.7117,0.7117,0.7117,0.7117,0.7117,0.7117,0.7117,0.7117,0.7117,0.7117,0.7117,0.7117,0.7117,0.7117,0.7117,0.7117,0.7117,0.7117,0.7117,0.7117,0.7117,0.7117,0.7117,0.7117,0.7117,0.7117,0.7117,0.7117,0.7117,0.7117,0.7117,0.7117,0.7117,0.7117,0.7117,0.7117,0.7117,0.7294,0.7819,0.8342,0.8342,0.8321,0.8277,0.8364,0.7793,0.7599,0.7709,0.7489,0.747,0.7577,0.8321,0.8189,0.7467,0.8452,0.8864,0.8882,0.8317,0.7859,0.7467,0.725,0.7379,0.7555,0.7205,0.7117,0.7139,0.7187,0.7338,0.747,0.7749,0.7987,0.8619,0.8951,0.9896,1.0854,1.1774,1.2584,1.3383,1.3955,1.3891,1.3934,1.406,1.4109,1.4088,1.4109,1.4109,1.4109,1.4109,1.4109,1.4109,1.4109,1.4109,1.4109,1.4109,1.4109,1.4109,1.4109,1.4109,1.4109,1.4109,1.4109,1.4109,1.4109,1.4109,1.4109,1.4109,1.4109,1.4109,1.4109,1.4109,0.7117,0.7117,0.7117,0.7117,0.7117,0.7117,0.7117,0.7117,0.7117,0.7117,0.7117,0.7117,0.7117,0.7117,0.7117,0.7117,0.7117,0.7117,0.7117,0.7117,0.7117,0.7117,0.7117,0.7117,0.7117,0.7117,0.7117,0.7117,0.7117,0.7117,0.7117,0.7117,0.7117,0.7117,0.7117,0.7117,0.7117,0.7117,0.7117,0.7117,0.7117,0.7117,0.7117,0.7117,0.7599,0.7819,0.7837,0.7859,0.7859,0.7859,0.7183,0.7426,0.7709,0.7621,0.7448,0.7731,0.8321,0.7558,0.7183,0.7602,0.7687,0.7577,0.7445,0.7117,0.7117,0.7117,0.7117,0.7117,0.7117,0.7117,0.7117,0.7139,0.7205,0.7205,0.7356,0.736,0.7687,0.7713,0.8233,0.917,1.0108,1.0904,1.1718,1.2687,1.2905,1.3124,1.3209,1.3849,1.4046,1.4088,1.4109,1.4109,1.4109,1.4109,1.4109,1.4109,1.4109,1.4109,1.4109,1.4109,1.4109,1.4109,1.4109,1.4109,1.4109,1.4109,1.4109,1.4109,1.4109,1.4109,1.4109,1.4109,1.4109,1.4109,1.4109,0.7117,0.7117,0.7117,0.7117,0.7117,0.7117,0.7117,0.7117,0.7117,0.7117,0.7117,0.7117,0.7117,0.7117,0.7117,0.7117,0.7117,0.7117,0.7117,0.7117,0.7117,0.7117,0.7117,0.7117,0.7117,0.7117,0.7117,0.7117,0.7117,0.7117,0.7117,0.7117,0.7117,0.7117,0.7117,0.7117,0.7117,0.7117,0.7117,0.7117,0.7117,0.7117,0.7117,0.7117,0.7183,0.7161,0.7139,0.7117,0.7117,0.7117,0.725,0.7492,0.7797,0.7797,0.7536,0.7753,0.7687,0.7139,0.7139,0.7139,0.7272,0.7205,0.7117,0.7117,0.7117,0.7117,0.7117,0.7117,0.7117,0.7117,0.7117,0.7117,0.7117,0.7117,0.7117,0.7143,0.7165,0.7253,0.7602,0.8414,0.8903,0.9553,1.019,1.095,1.1708,1.2013,1.2318,1.3082,1.38,1.3899,1.399,1.4109,1.4109,1.4109,1.4109,1.4109,1.4109,1.4109,1.4109,1.4109,1.4109,1.4109,1.4109,1.4109,1.4109,1.4109,1.4109,1.4109,1.4109,1.4109,1.4109,1.4109,1.4109,1.4109,1.4109,0.7117,0.7117,0.7117,0.7117,0.7117,0.7117,0.7117,0.7117,0.7117,0.7117,0.7117,0.7117,0.7117,0.7117,0.7117,0.7117,0.7117,0.7117,0.7117,0.7117,0.7117,0.7117,0.7117,0.7117,0.7117,0.7117,0.7117,0.7117,0.7117,0.7117,0.7117,0.7117,0.7117,0.7117,0.7117,0.7117,0.7117,0.7117,0.7117,0.7117,0.7117,0.7117,0.7117,0.7117,0.7117,0.7117,0.7117,0.7117,0.7117,0.7117,0.7139,0.7139,0.7161,0.7117,0.7117,0.7117,0.7139,0.7117,0.7117,0.7117,0.7117,0.7117,0.7117,0.7117,0.7117,0.7117,0.7117,0.7117,0.7117,0.7117,0.7117,0.7117,0.7117,0.7117,0.7117,0.7117,0.7117,0.7316,0.7687,0.8153,0.844,0.8964,0.9558,1.0216,1.0567,1.0783,1.1193,1.1992,1.2723,1.3501,1.3662,1.4109,1.4109,1.4109,1.4088,1.4067,1.4109,1.4109,1.4109,1.4109,1.4109,1.4109,1.4109,1.4109,1.4109,1.4109,1.4109,1.4109,1.4109,1.4109,1.4109,1.4109,1.4109,1.4109,1.4109,0.7117,0.7117,0.7117,0.7117,0.7117,0.7117,0.7117,0.7117,0.7117,0.7117,0.7117,0.7117,0.7117,0.7117,0.7117,0.7117,0.7117,0.7117,0.7117,0.7117,0.7117,0.7117,0.7117,0.7117,0.7117,0.7117,0.7117,0.7117,0.7117,0.7117,0.7117,0.7117,0.7117,0.7117,0.7117,0.7117,0.7117,0.7117,0.7117,0.7117,0.7117,0.7117,0.7117,0.7117,0.7117,0.7117,0.7117,0.7117,0.7117,0.7117,0.7117,0.7117,0.7117,0.7117,0.7117,0.7117,0.7117,0.7117,0.7117,0.7117,0.7117,0.7117,0.7117,0.7117,0.7117,0.7117,0.7117,0.7117,0.7117,0.7117,0.7117,0.7117,0.7117,0.7117,0.7117,0.7117,0.7117,0.7228,0.7555,0.7625,0.7937,0.8062,0.8685,0.9117,0.9423,0.9601,1.0031,1.0762,1.16,1.2344,1.3093,1.3519,1.3774,1.3683,1.3948,1.4018,1.4067,1.4109,1.4109,1.4109,1.4109,1.4109,1.4109,1.4109,1.4109,1.4109,1.4109,1.4109,1.4109,1.4109,1.4109,1.4109,1.4109,1.4109,1.4109,0.7117,0.7117,0.7117,0.7117,0.7117,0.7117,0.7117,0.7117,0.7117,0.7117,0.7117,0.7117,0.7117,0.7117,0.7117,0.7117,0.7117,0.7117,0.7117,0.7117,0.7117,0.7117,0.7117,0.7117,0.7117,0.7117,0.7117,0.7117,0.7117,0.7117,0.7117,0.7117,0.7117,0.7117,0.7117,0.7117,0.7117,0.7117,0.7117,0.7117,0.7117,0.7117,0.7117,0.7117,0.7117,0.7117,0.7117,0.7117,0.7117,0.7117,0.7117,0.7117,0.7117,0.7117,0.7117,0.7117,0.7117,0.7117,0.7117,0.7117,0.7117,0.7117,0.7117,0.7117,0.7117,0.7117,0.7117,0.7117,0.7117,0.7117,0.7117,0.7117,0.7117,0.7117,0.7117,0.7117,0.7117,0.7117,0.7139,0.7139,0.7187,0.7209,0.7533,0.7973,0.8211,0.8295,0.858,0.9161,1.0091,1.1065,1.1952,1.2631,1.2951,1.3146,1.3417,1.3625,1.3843,1.3913,1.4109,1.4109,1.4109,1.4109,1.4109,1.4109,1.4109,1.4109,1.4109,1.4109,1.4109,1.4109,1.4109,1.4109,1.4109,1.4109,1.4109,0.7117,0.7117,0.7117,0.7117,0.7117,0.7117,0.7117,0.7117,0.7117,0.7117,0.7117,0.7117,0.7117,0.7117,0.7117,0.7117,0.7117,0.7117,0.7117,0.7117,0.7117,0.7117,0.7117,0.7117,0.7117,0.7117,0.7117,0.7117,0.7117,0.7117,0.7117,0.7117,0.7117,0.7117,0.7117,0.7117,0.7117,0.7117,0.7117,0.7117,0.7117,0.7117,0.7117,0.7117,0.7117,0.7117,0.7117,0.7117,0.7117,0.7117,0.7117,0.7117,0.7117,0.7117,0.7117,0.7117,0.7117,0.7117,0.7117,0.7117,0.7117,0.7117,0.7117,0.7117,0.7117,0.7117,0.7117,0.7117,0.7117,0.7117,0.7117,0.7117,0.7117,0.7117,0.7117,0.7117,0.7117,0.7117,0.7117,0.7117,0.7117,0.7117,0.7161,0.7643,0.7687,0.7404,0.7489,0.8013,0.8573,0.9647,1.0636,1.1559,1.1947,1.2159,1.2198,1.2531,1.3336,1.3646,1.3737,1.4067,1.4046,1.4067,1.4109,1.4109,1.4109,1.4109,1.4109,1.4109,1.4109,1.4109,1.4109,1.4109,1.4109,1.4109,1.4109,0.7117,0.7117,0.7117,0.7117,0.7117,0.7117,0.7117,0.7117,0.7117,0.7117,0.7117,0.7117,0.7117,0.7117,0.7117,0.7117,0.7117,0.7117,0.7117,0.7117,0.7117,0.7117,0.7117,0.7117,0.7117,0.7117,0.7117,0.7117,0.7117,0.7117,0.7117,0.7117,0.7117,0.7117,0.7117,0.7117,0.7117,0.7117,0.7117,0.7117,0.7117,0.7117,0.7117,0.7117,0.7117,0.7117,0.7117,0.7117,0.7117,0.7117,0.7117,0.7117,0.7117,0.7117,0.7117,0.7117,0.7117,0.7117,0.7117,0.7117,0.7117,0.7117,0.7117,0.7117,0.7117,0.7117,0.7117,0.7117,0.7117,0.7117,0.7117,0.7117,0.7117,0.7117,0.7117,0.7117,0.7117,0.7117,0.7117,0.7117,0.7117,0.7117,0.7117,0.7117,0.7117,0.7139,0.7161,0.7356,0.7445,0.8194,0.9222,1.0125,1.0801,1.1043,1.1046,1.1327,1.2066,1.2547,1.2638,1.3188,1.3849,1.4067,1.4109,1.4109,1.4109,1.4109,1.4109,1.4109,1.4109,1.4109,1.4109,1.4109,1.4109,1.4109,1.4109,0.7117,0.7117,0.7117,0.7117,0.7117,0.7117,0.7117,0.7117,0.7117,0.7117,0.7117,0.7117,0.7117,0.7117,0.7117,0.7117,0.7117,0.7117,0.7117,0.7117,0.7117,0.7117,0.7117,0.7117,0.7117,0.7117,0.7117,0.7117,0.7117,0.7117,0.7117,0.7117,0.7117,0.7117,0.7117,0.7117,0.7117,0.7117,0.7117,0.7117,0.7117,0.7117,0.7117,0.7117,0.7117,0.7117,0.7117,0.7117,0.7117,0.7117,0.7117,0.7117,0.7117,0.7117,0.7117,0.7117,0.7117,0.7117,0.7117,0.7117,0.7117,0.7117,0.7117,0.7117,0.7117,0.7117,0.7117,0.7117,0.7117,0.7117,0.7117,0.7117,0.7117,0.7117,0.7117,0.7117,0.7117,0.7117,0.7117,0.7117,0.7117,0.7117,0.7117,0.7117,0.7117,0.7117,0.7117,0.7117,0.7117,0.7117,0.8031,0.8763,0.9504,0.9865,0.9868,1.0163,1.0666,1.1085,1.1531,1.2163,1.282,1.3646,1.4109,1.3955,1.3955,1.4109,1.4109,1.4109,1.4109,1.4109,1.4109,1.4109,1.4109,1.4039,1.3822,0.7117,0.7117,0.7117,0.7117,0.7117,0.7117,0.7117,0.7117,0.7117,0.7117,0.7117,0.7117,0.7117,0.7117,0.7117,0.7117,0.7117,0.7117,0.7117,0.7117,0.7117,0.7117,0.7117,0.7117,0.7117,0.7117,0.7117,0.7117,0.7117,0.7117,0.7117,0.7117,0.7117,0.7117,0.7117,0.7117,0.7117,0.7117,0.7117,0.7117,0.7117,0.7117,0.7117,0.7117,0.7117,0.7117,0.7117,0.7117,0.7117,0.7117,0.7117,0.7117,0.7117,0.7117,0.7117,0.7117,0.7117,0.7117,0.7117,0.7117,0.7117,0.7117,0.7117,0.7117,0.7117,0.7117,0.7117,0.7117,0.7117,0.7117,0.7117,0.7117,0.7117,0.7117,0.7117,0.7117,0.7117,0.7117,0.7117,0.7117,0.7117,0.7117,0.7117,0.7117,0.7117,0.7117,0.7117,0.7117,0.7117,0.7117,0.7533,0.7955,0.8386,0.8616,0.8671,0.8982,0.9374,0.9969,1.0486,1.1128,1.1751,1.2339,1.2997,1.3625,1.3667,1.3673,1.3976,1.4109,1.4109,1.4067,1.4109,1.4109,1.4109,1.3955,1.3421,0.7117,0.7117,0.7117,0.7117,0.7117,0.7117,0.7117,0.7117,0.7117,0.7117,0.7117,0.7117,0.7117,0.7117,0.7117,0.7117,0.7117,0.7117,0.7117,0.7117,0.7117,0.7117,0.7117,0.7117,0.7117,0.7117,0.7117,0.7117,0.7117,0.7117,0.7117,0.7117,0.7117,0.7117,0.7117,0.7117,0.7117,0.7117,0.7117,0.7117,0.7117,0.7117,0.7117,0.7117,0.7117,0.7117,0.7117,0.7117,0.7117,0.7117,0.7117,0.7117,0.7117,0.7117,0.7117,0.7117,0.7117,0.7117,0.7117,0.7117,0.7117,0.7117,0.7117,0.7117,0.7117,0.7117,0.7117,0.7117,0.7117,0.7117,0.7117,0.7117,0.7117,0.7117,0.7117,0.7117,0.7117,0.7117,0.7117,0.7117,0.7117,0.7117,0.7117,0.7117,0.7117,0.7117,0.7117,0.7117,0.7117,0.7117,0.7117,0.7323,0.7573,0.7415,0.7467,0.7709,0.8111,0.8777,0.9453,1.0096,1.0589,1.0848,1.1499,1.2403,1.2863,1.2933,1.33,1.3946,1.401,1.3989,1.4067,1.4109,1.4088,1.3582,1.2814]},{"header":{"parameterUnit":"m.s-1","parameterCategory":1,"la1":31.0,"la2":29.5877,"lo1":-88.7671,"lo2":-86.6584,"dy":0.0162,"dx":0.0185,"nx":115,"ny":88,"refTime":"2023-07-23T18:00:00:Z","depth":0,"parameterNumber":3,"parameterNumberName":"V-component_of_WINDS"},"data":[0.0,0.0,0.0,0.0,0.0,0.0,0.0,0.0,0.0,0.0,0.0,0.0,0.0,0.0,0.0,0.0,0.0,0.0,0.0,0.0,0.0,0.0,0.0,0.0,0.0,0.0,0.0,0.0,0.0,0.0,0.0,0.0,0.0,0.0,0.0,0.0,0.0,0.0,0.0,0.0,0.0,0.0,0.0,0.0,0.0,0.0,0.0,0.0,0.0,0.0,0.0,0.0,0.0,0.0,0.0,0.0,0.0,0.0,0.0,0.0,0.0,0.0,0.0,0.0,0.0,0.0,0.0,0.0,0.0,0.0,0.0,0.0,0.0,0.0,0.0,0.0,0.0,0.0,0.0,0.0,0.0,0.0,0.0,0.0,0.0,0.0,0.0,0.0,0.0,0.0,0.0,0.0,0.0,0.0,0.0,0.0,0.0,0.0,0.0,0.0,0.0,0.0,0.0,0.0,0.0,0.0,0.0,0.0,0.0,0.0,0.0,0.0,0.0,0.0,0.0,0.0,0.0,0.0,0.0,0.0,0.0,0.0,0.0,0.0,0.0,0.0,0.0,0.0,0.0,0.0,0.0,0.0,0.0,0.0,0.0,0.0,0.0,0.0,0.0,0.0,0.0,0.0,0.0,0.0,0.0,0.0,0.0,0.0,0.0,0.0,0.0,0.0,0.0,0.0,0.0,0.0,0.0,0.0,0.0,0.0,0.0,0.0,0.0,0.0,0.0,0.0,0.0,0.0,0.0,0.0,0.0,0.0,0.0,0.0,0.0,0.0,0.0,0.0,0.0,0.0,0.0,0.0,0.0,0.0,0.0,0.0,0.0,0.0,0.0,0.0,0.0,0.0,0.0,0.0,0.0,0.0,0.0,0.0,0.0,0.0,0.0,0.0,0.0,0.0,0.0,0.0,0.0,0.0,0.0,0.0,0.0,0.0,0.0,0.0,0.0,0.0,0.0,0.0,0.0,0.0,0.0,0.0,0.0,0.0,0.0,0.0,0.0,0.0,0.0,0.0,0.0,0.0,0.0,0.0,0.0,0.0,0.0,0.0,0.0,0.0,0.0,0.0,0.0,0.0,0.0,0.0,0.0,0.0,0.0,0.0,0.0,0.0,0.0,0.0,0.0,0.0,0.0,0.0,0.0,0.0,0.0,0.0,0.0,0.0,0.0,0.0,0.0,0.0,0.0,0.0,0.0,0.0,0.0,0.0,0.0,0.0,0.0,0.0,0.0,0.0,0.0,0.0,0.0,0.0,0.0,0.0,0.0,0.0,0.0,0.0,0.0,0.0,0.0,0.0,0.0,0.0,0.0,0.0,0.0,0.0,0.0,0.0,0.0,0.0,0.0,0.0,0.0,0.0,0.0,0.0,0.0,0.0,0.0,0.0,0.0,0.0,0.0,0.0,0.0,0.0,0.0,0.0,0.0,0.0,0.0,0.0,0.0,0.0,0.0,0.0,0.0,0.0,0.0,0.0,0.0,0.0,0.0,0.0,0.0,0.0,0.0,0.0,0.0,0.0,0.0,0.0,0.0,0.0,0.0,0.0,0.0,0.0,0.0,0.0,0.0,0.0,0.0,0.0,0.0,0.0,0.0,0.0,0.0,0.0,0.0,0.0,0.0,0.0,0.0,0.0,0.0,0.0,0.0,0.0,0.0,0.0,0.0,0.0,0.0,0.0,0.0,0.0,0.0,0.0,0.0,0.0,0.0,0.0,0.0,0.0,0.0,0.0,0.0,0.0,0.0,0.0,0.0,0.0,0.0,0.0,0.0,0.0,0.0,0.0,0.0,0.0,0.0,0.0,0.0,0.0,0.0,0.0,0.0,0.0,0.0,0.0,0.0,0.0,0.0,0.0,0.0,0.0,0.0,0.0,0.0,0.0,0.0,0.0,0.0,0.0,0.0,0.0,0.0,0.0,0.0,0.0,0.0,0.0,0.0,0.0,0.0,0.0,0.0,0.0,0.0,0.0,0.0,0.0,0.0,0.0,0.0,0.0,0.0,0.0,0.0,0.0,0.0,0.0,0.0,0.0,0.0,0.0,0.0,0.0,0.0,0.0,0.0,0.0,0.0,0.0,0.0,0.0,0.0,0.0,0.0,0.0,0.0,0.0,0.0,0.0,0.0,0.0,0.0,0.0,0.0,0.0,0.0,0.0,0.0,0.0,0.0,0.0,0.0,0.0,0.0,0.0,0.0,0.0,0.0,0.0,0.0,0.0,0.0,0.0,0.0,0.0,0.0,0.0,0.0,0.0,0.0,0.0,0.0,0.0,0.0,0.0,0.0,0.0,0.0,0.0,0.0,0.0,0.0,0.0,0.0,0.0,0.0,0.0,0.0,0.0,0.0,0.0,0.0,0.0,0.0,0.0,0.0,0.0,0.0,0.0,0.0,0.0,0.0,0.0,0.0,0.0,0.0,0.0,0.0,0.0,0.0,0.0,0.0,0.0,0.0,0.0,0.0,0.0,0.0,0.0,0.0,0.0,0.0,0.0,0.0,0.0,0.0,0.0,0.0,0.0,0.0,0.0,0.0,0.0,0.0,0.0,0.0,0.0,0.0,0.0,0.0,0.0,0.0,0.0,0.0,0.0,0.0,0.0,0.0,0.0,0.0,0.0,0.0,0.0,0.0,0.0,0.0,0.0,0.0,0.0,0.0,0.0,0.0,0.0,0.0,0.0,0.0,0.0,0.0,0.0,0.0,0.0,0.0,0.0,0.0,0.0,0.0,0.0,0.0,0.0,0.0,0.0,0.0,0.0,0.0,0.0,0.0,0.0,0.0,0.0,0.0,0.0,0.0,0.0,0.0,0.0,0.0,0.0,0.0,0.0,0.0,0.0,0.0,0.0,0.0,0.0,0.0,0.0,0.0,0.0,0.0,0.0,0.0,0.0,0.0,0.0,0.0,0.0,0.0,0.0,0.0,0.0,0.0,0.0,0.0,0.0,0.0,0.0,0.0,0.0,0.0,0.0,0.0,0.0,0.0,0.0,0.0,0.0,0.0,0.0,0.0,0.0,0.0,0.0,0.0,0.0,0.0,0.0,0.0,0.0,0.0,0.0,0.0,0.0,0.0,0.0,0.0,0.0,0.0,0.0,0.0,0.0,0.0,0.0,0.0,0.0,0.0,0.0,0.0,0.0,0.0,0.0,0.0,0.0,0.0,0.0,0.0,0.0,0.0,0.0,0.0,0.0,0.0,0.0,0.0,0.0,0.0,0.0,0.0,0.0,0.0,0.0,0.0,0.0,0.0,0.0,0.0,0.0,0.0,0.0,0.0,0.0,0.0,0.0,0.0,0.0,0.0,0.0,0.0,0.0,0.0,0.0,0.0,0.0,0.0,0.0,0.0,0.0,0.0,0.0,0.0,0.0,0.0,0.0,0.0,0.0,0.0,0.0,0.0,0.0,0.0,0.0,0.0,0.0,0.0,0.0,0.0,0.0,0.0,0.0,0.0,0.0,0.0,0.0,0.0,0.0,0.0,0.0,0.0,0.0,0.0,0.0,0.0,0.0,0.0,0.0,0.0,0.0,0.0,0.0,0.0,0.0,0.0,0.0,0.0,0.0,0.0,0.0,0.0,0.0,0.0,0.0,0.0,0.0,0.0,0.0,0.0,0.0,0.0,0.0,0.0,0.0,0.0,0.0,0.0,0.0,0.0,0.0,0.0,0.0,0.0,0.0,0.0,0.0,0.0,0.0,0.0,0.0,0.0,0.0,0.0,0.0,0.0,0.0,0.0,0.0,0.0,0.0,0.0,0.0,0.0,0.0,0.0,0.0,0.0,0.0,0.0,0.0,0.0,0.0,0.0,0.0,0.0,0.0,0.0,0.0,0.0,0.0,0.0,0.0,0.0,0.0,0.0,0.0,0.0,0.0,0.0,0.0,0.0,0.0,0.0,0.0,0.0,0.0,0.0,0.0,0.0,0.0,0.0,0.0,0.0,0.0,0.0,0.0,0.0,0.0,0.0,0.0,0.0,0.0,0.0,0.0,0.0,0.0,0.0,0.0,0.0,0.0,0.0,0.0,0.0,0.0,0.0,0.0,0.0,0.0,0.0,0.0,0.0,0.0,0.0,0.0,0.0,0.0,0.0,0.0,0.0,0.0,0.0,0.0,0.0,0.0,0.0,0.0,0.0,0.0,0.0,0.0,0.0,0.0,0.0,0.0,0.0,0.0,0.0,0.0,0.0,0.0,0.0,0.0,0.0,0.0,0.0,0.0,0.0,0.0,0.0,0.0,0.0,0.0,0.0,0.0,0.0,0.0,0.0,0.0,0.8602,0.0,0.0,0.0,0.0,0.0,0.0,0.0,0.0,0.0,0.0,0.0,0.0,0.0,0.0,0.0,0.0,0.0,0.0,0.0,0.0,0.0,0.0,0.0,0.0,0.0,0.0,0.0,0.0,0.0,0.0,0.0,0.0,0.0,0.0,0.0,0.0,0.0,0.0,0.0,0.0,0.0,0.0,0.0,0.0,0.0,0.0,0.0,0.0,0.0,0.0,0.0,0.0,0.0,0.0,0.0,0.0,0.0,0.0,0.0,0.0,0.0,0.0,0.0,0.0,0.0,0.0,0.0,0.0,0.0,0.0,0.0,0.0,0.0,0.0,0.0,0.0,0.0,0.0,0.0,0.0,0.0,0.0,0.0,0.0,0.0,0.0,0.0,0.0,0.0,0.0,0.0,0.0,0.0,0.0,0.0,0.0,0.0,0.0,0.0,0.0,0.0,0.0,0.0,0.0,0.0,0.0,0.0,0.0,0.0,0.0,0.8993,0.9529,0.8999,0.8846,0.9129,0.0,0.0,0.0,0.0,0.0,0.0,0.0,0.0,0.0,0.0,0.0,0.0,0.0,0.0,0.0,0.0,0.0,0.0,0.0,0.0,0.0,0.0,0.0,0.0,0.0,0.0,0.0,0.0,0.0,0.0,0.0,0.0,0.0,0.0,0.0,0.0,0.0,0.0,0.0,0.0,0.0,0.0,0.0,0.0,0.0,0.0,0.0,0.0,0.0,0.0,0.0,0.0,0.0,0.0,0.0,0.0,0.0,0.0,0.0,0.0,0.0,0.0,0.0,0.0,0.0,0.0,0.0,0.0,0.0,0.0,0.0,0.0,0.0,0.0,0.0,0.0,0.0,0.0,0.0,0.0,0.0,0.0,0.0,0.0,0.0,0.0,0.0,0.0,0.0,0.0,0.0,0.0,0.0,0.0,0.0,0.0,0.0,0.0,0.0,0.0,0.0,0.0,0.0,0.0,0.0,0.0,0.0,0.0,0.0,0.0,0.0,0.0,0.9498,0.9259,0.9666,0.0,0.0,0.0,0.0,0.0,0.0,0.0,0.0,0.0,0.0,0.0,0.0,0.0,0.0,0.0,0.0,0.0,0.0,0.0,0.0,0.0,0.0,0.0,0.0,0.0,0.0,0.0,0.0,0.0,0.0,0.0,0.0,0.0,0.0,0.0,0.0,0.0,0.0,0.0,0.0,0.0,0.0,0.0,0.0,0.0,0.0,0.0,0.0,0.0,0.0,0.0,0.0,0.0,0.0,0.0,0.0,0.0,0.0,0.0,0.0,0.0,0.0,0.0,0.0,0.0,0.0,0.0,0.0,0.0,0.0,0.0,0.0,0.0,0.0,0.0,0.0,0.0,0.0,0.0,0.0,0.0,0.0,0.0,0.0,0.0,0.0,0.0,0.0,0.0,0.0,0.0,0.0,0.0,0.0,0.0,0.0,0.0,0.0,0.0,0.0,0.0,0.0,0.0,0.0,0.0,0.0,0.0,0.0,0.0,0.0,1.0254,1.0283,1.0196,0.0,1.0215,0.0,0.0,0.0,0.0,0.0,0.0,0.0,0.0,0.0,0.0,0.0,0.0,0.0,0.0,0.0,0.0,0.0,0.0,0.0,0.0,0.0,0.0,0.0,0.0,0.0,0.0,0.0,0.0,0.0,0.0,0.0,0.0,0.0,0.0,0.0,0.0,0.0,0.0,0.0,0.0,0.0,0.0,0.0,0.0,0.0,0.0,0.0,0.0,0.0,0.0,0.0,0.0,0.0,0.0,0.0,0.0,0.0,0.0,0.0,0.0,0.0,0.0,0.0,0.0,0.0,0.0,0.0,0.0,0.0,0.0,0.0,0.0,0.0,0.0,0.0,0.0,0.0,0.0,0.0,0.0,0.0,0.0,0.0,0.0,0.0,0.0,0.0,0.0,0.0,0.0,0.0,0.0,0.0,0.0,0.0,0.0,0.0,0.0,0.0,0.0,0.0,0.0,0.0,0.0,0.0,0.0,0.0,0.0,0.0,0.0,1.0312,1.0312,1.0312,1.0312,0.0,0.0,0.0,0.0,0.0,0.0,0.0,0.0,0.0,0.0,0.0,0.0,0.0,0.0,0.0,0.0,0.0,0.0,0.0,0.0,0.0,0.0,0.0,0.0,0.0,0.0,0.0,0.0,0.0,0.0,0.0,0.0,0.0,0.0,0.0,0.0,0.0,0.0,0.0,0.0,0.0,0.0,0.0,0.0,0.0,0.0,0.0,0.0,0.0,0.0,0.0,0.0,0.0,0.0,0.0,0.0,0.0,0.0,0.0,0.0,0.0,0.0,0.0,0.0,0.0,0.0,0.0,0.0,0.0,0.0,0.0,0.0,0.0,0.0,0.0,0.0,0.0,0.0,0.0,0.0,0.0,0.0,0.0,0.0,0.0,0.0,0.0,0.0,0.0,0.0,0.0,0.0,0.0,0.0,0.0,0.0,0.0,0.0,0.0,0.0,0.0,0.0,0.0,0.0,0.0,0.0,0.0,0.0,0.0,0.0,1.1037,1.0459,1.0479,1.0604,1.0687,1.0696,0.0,0.0,0.0,0.0,0.0,0.0,0.0,0.0,0.0,0.0,0.0,0.0,0.0,0.0,0.0,0.0,0.0,0.0,0.0,0.0,0.0,0.0,0.0,0.0,0.0,0.0,0.0,0.0,0.0,0.0,0.0,0.0,0.0,0.0,0.0,0.0,0.0,0.0,0.0,0.0,0.0,0.0,0.0,0.0,0.0,0.0,0.0,0.0,0.0,0.0,0.0,0.0,0.0,0.0,0.0,0.0,0.0,0.0,0.0,0.0,0.0,0.0,0.0,0.0,0.0,0.0,0.0,0.0,0.0,0.0,0.0,0.0,0.0,0.0,0.0,0.0,0.0,0.0,0.0,0.0,0.0,0.0,0.0,0.0,0.0,0.0,0.0,0.0,0.0,0.0,0.0,0.0,0.0,0.0,0.0,0.0,0.0,0.0,0.0,0.0,0.0,0.0,0.0,0.0,0.0,0.0,0.0,0.0,1.3158,1.1695,1.0858,1.0879,1.138,1.1643,0.0,0.0,0.0,0.0,0.0,0.0,0.0,0.0,0.0,0.0,0.0,0.0,0.0,0.0,0.0,0.0,0.0,0.0,0.0,0.0,0.0,0.0,0.0,0.0,0.0,0.0,0.0,0.0,0.0,0.0,0.0,0.0,0.0,0.0,0.0,0.0,0.0,0.0,0.0,0.0,0.0,0.0,0.0,0.0,0.0,0.0,0.0,0.0,0.0,0.0,0.0,0.0,0.0,0.0,0.0,0.0,0.0,0.0,0.0,0.0,0.0,0.0,0.0,0.0,0.0,0.0,0.0,0.0,0.0,0.0,0.0,0.0,0.0,0.0,0.0,0.0,0.0,0.0,0.0,0.0,0.0,0.0,0.0,0.0,0.0,0.0,0.0,0.0,0.0,0.0,0.0,0.0,0.0,0.0,0.0,0.0,0.0,0.0,0.0,0.0,0.0,0.0,0.0,0.0,0.0,0.0,0.0,0.0,0.0,1.4113,1.235,1.1349,1.135,1.154,1.198,0.0,0.0,0.0,0.0,0.0,0.0,0.0,0.0,0.0,0.0,0.0,0.0,0.0,0.0,0.0,0.0,0.0,0.0,0.0,0.0,0.0,0.0,0.0,0.0,0.0,0.0,0.0,0.0,0.0,0.0,0.0,0.0,0.0,0.0,0.0,0.0,0.0,0.0,0.0,0.0,0.0,0.0,0.0,0.0,0.0,0.0,0.0,0.0,0.0,0.0,0.0,0.0,0.0,0.0,0.0,0.0,0.0,0.0,0.0,0.0,0.0,0.0,0.0,0.0,0.0,0.0,0.0,0.0,0.0,0.0,0.0,0.0,0.0,0.0,0.0,0.0,0.0,0.0,0.0,0.0,0.0,0.0,0.0,0.0,0.0,0.0,0.0,0.0,0.0,0.0,0.0,0.0,0.0,0.0,0.0,0.0,0.0,0.0,0.0,0.0,0.0,0.0,0.0,0.0,0.0,0.0,0.0,0.0,0.0,1.4419,0.0,1.18,1.1801,1.2339,1.2966,0.0,0.0,0.0,0.0,0.0,0.0,0.0,0.0,0.0,0.0,0.0,0.0,0.0,0.0,0.0,0.0,0.0,0.0,0.0,0.0,0.0,0.0,0.0,0.0,0.0,0.0,0.0,0.0,0.0,0.0,0.0,0.0,0.0,0.0,0.0,0.0,0.0,0.0,0.0,0.0,0.0,0.0,0.0,0.0,0.0,0.0,0.0,0.0,0.0,0.0,0.0,0.0,0.0,0.0,0.0,0.0,0.0,0.0,0.0,0.0,0.0,0.0,0.0,0.0,0.0,0.0,0.0,0.0,0.0,0.0,0.0,0.0,0.0,0.0,0.0,0.0,0.0,0.0,0.0,0.0,0.0,0.0,0.0,0.0,0.0,0.0,0.0,0.0,0.0,0.0,0.0,0.0,0.0,0.0,0.0,0.0,0.0,0.0,0.0,0.0,0.0,0.0,0.0,0.0,0.0,0.0,0.0,0.0,1.6238,1.4039,1.2807,1.2213,1.2228,1.3765,1.465,0.0,0.0,0.0,0.0,0.0,0.0,0.0,0.0,0.0,0.0,0.0,0.0,0.0,0.0,0.0,0.0,0.0,0.0,0.0,0.0,0.0,0.0,0.0,0.0,0.0,0.0,0.0,0.0,0.0,0.0,0.0,0.0,0.0,0.0,0.0,0.0,0.0,0.0,0.0,0.0,0.0,0.0,0.0,0.0,0.0,0.0,0.0,0.0,0.0,0.0,0.0,0.0,0.0,0.0,0.0,0.0,0.0,0.0,0.0,0.0,0.0,0.0,0.0,0.0,0.0,0.0,0.0,0.0,0.0,0.0,0.0,0.0,0.0,0.0,0.0,0.0,0.0,0.0,0.0,0.0,0.0,0.0,0.0,0.0,0.0,0.0,0.0,0.0,0.0,0.0,0.0,0.0,0.0,0.0,0.0,0.0,0.0,0.0,0.0,0.0,0.0,0.0,0.0,0.0,0.0,0.0,0.0,0.0,0.0,1.5548,1.3667,1.2686,1.2714,1.3938,1.5012,0.0,0.0,0.0,0.0,0.0,0.0,0.0,0.0,0.0,0.0,0.0,0.0,0.0,0.0,0.0,0.0,0.0,0.0,0.0,0.0,0.0,0.0,0.0,0.0,0.0,0.0,0.0,0.0,0.0,0.0,0.0,0.0,0.0,0.0,0.0,0.0,0.0,0.0,0.0,0.0,0.0,0.0,0.0,0.0,0.0,0.0,0.0,0.0,0.0,0.0,0.0,0.0,0.0,0.0,0.0,0.0,0.0,0.0,0.0,0.0,0.0,0.0,0.0,0.0,0.0,0.0,0.0,0.0,0.0,0.0,0.0,0.0,0.0,0.0,0.0,0.0,0.0,0.0,0.0,0.0,0.0,0.0,0.0,0.0,0.0,0.0,0.0,0.0,0.0,0.0,0.0,0.0,0.0,0.0,0.0,0.0,0.0,0.0,0.0,0.0,0.0,0.0,0.0,0.0,0.0,0.0,0.0,0.0,0.0,1.5619,1.3866,1.2915,1.2915,1.4414,1.5564,1.6296,0.0,0.0,0.0,0.0,0.0,0.0,0.0,0.0,0.0,0.0,0.0,0.0,0.0,0.0,0.0,0.0,0.0,0.0,0.0,0.0,0.0,0.0,0.0,0.0,0.0,0.0,0.0,0.0,0.0,0.0,0.0,0.0,0.0,0.0,0.0,0.0,0.0,0.0,0.0,0.0,0.0,0.0,0.0,0.0,0.0,0.0,0.0,0.0,0.0,0.0,0.0,0.0,0.0,0.0,0.0,0.0,0.0,0.0,0.0,0.0,0.0,0.0,0.0,0.0,0.0,0.0,0.0,0.0,0.0,0.0,0.0,0.0,0.0,0.0,0.0,0.0,0.0,0.0,0.0,0.0,0.0,0.0,0.0,0.0,0.0,0.0,0.0,0.0,0.0,0.0,0.0,0.0,0.0,0.0,0.0,0.0,0.0,0.0,0.0,0.0,0.0,0.0,0.0,0.0,0.0,0.0,0.0,0.0,1.4801,1.3688,1.3043,1.2929,1.5081,1.6306,0.0,0.0,0.0,0.0,0.0,0.0,0.0,0.0,0.0,0.0,0.0,0.0,0.0,0.0,0.0,0.0,0.0,0.0,0.0,0.0,0.0,0.0,0.0,0.0,0.0,0.0,0.0,0.0,0.0,0.0,0.0,0.0,0.0,0.0,0.0,0.0,0.0,0.0,0.0,0.0,0.0,0.0,0.0,0.0,0.0,0.0,0.0,0.0,0.0,0.0,0.0,0.0,0.0,0.0,0.0,0.0,0.0,0.0,0.0,0.0,0.0,0.0,0.0,0.0,0.0,0.0,0.0,0.0,0.0,0.0,0.0,0.0,0.0,0.0,0.0,0.0,0.0,0.0,0.0,0.0,0.0,0.0,0.0,0.0,0.0,0.0,0.0,0.0,0.0,0.0,0.0,0.0,0.0,0.0,0.0,0.0,0.0,0.0,0.0,0.0,0.0,0.0,0.0,0.0,0.0,0.0,0.0,0.0,0.0,1.7079,1.5997,1.4608,1.3041,1.5114,1.6306,0.0,0.0,0.0,0.0,0.0,0.0,0.0,0.0,0.0,0.0,0.0,0.0,0.0,0.0,0.0,0.0,0.0,0.0,0.0,0.0,0.0,0.0,0.0,0.0,0.0,0.0,0.0,0.0,0.0,0.0,0.0,0.0,0.0,0.0,0.0,0.0,0.0,0.0,0.0,0.0,0.0,0.0,0.0,0.0,0.0,0.0,0.0,0.0,0.0,0.0,0.0,0.0,0.0,0.0,0.0,0.0,0.0,0.0,0.0,0.0,0.0,0.0,0.0,0.0,0.0,0.0,0.0,0.0,0.0,0.0,0.0,0.0,0.0,0.0,0.0,0.0,0.0,0.0,0.0,0.0,0.0,0.0,0.0,0.0,0.0,0.0,0.0,0.0,0.0,0.0,0.0,0.0,0.0,0.0,0.0,0.0,0.0,0.0,0.0,0.0,0.0,0.0,0.0,0.0,0.0,0.0,0.0,0.0,1.7764,1.7283,1.6632,1.5674,1.4368,1.6072,1.7018,0.0,0.0,0.0,0.0,0.0,0.0,0.0,0.0,0.0,0.0,0.0,0.0,0.0,0.0,0.0,0.0,0.0,0.0,0.0,0.0,0.0,0.0,0.0,0.0,0.0,0.0,0.0,0.0,0.0,0.0,0.0,0.0,0.0,0.0,0.0,0.0,0.0,0.0,0.0,0.0,0.0,0.0,0.0,0.0,0.0,0.0,0.0,0.0,0.0,0.0,0.0,0.0,0.0,0.0,0.0,0.0,0.0,0.0,0.0,0.0,0.0,0.0,0.0,0.0,0.0,0.0,0.0,0.0,0.0,0.0,0.0,0.0,0.0,0.0,0.0,0.0,0.0,0.0,0.0,0.0,0.0,0.0,0.0,0.0,0.0,0.0,0.0,0.0,0.0,0.0,0.0,0.0,0.0,0.0,0.0,0.0,0.0,0.0,0.0,0.0,0.0,0.0,0.0,0.0,0.0,0.0,0.0,0.0,1.7681,1.6682,1.6653,1.6663,1.6671,1.7541,1.8009,0.0,0.0,0.0,0.0,0.0,0.0,0.0,0.0,0.0,0.0,0.0,0.0,0.0,0.0,0.0,0.0,0.0,0.0,0.0,0.0,0.0,0.0,0.0,0.0,0.0,0.0,0.0,0.0,0.0,0.0,0.0,0.0,0.0,0.0,0.0,0.0,0.0,0.0,0.0,0.0,0.0,0.0,0.0,0.0,0.0,0.0,0.0,0.0,0.0,0.0,0.0,0.0,0.0,0.0,0.0,0.0,0.0,0.0,0.0,0.0,0.0,0.0,0.0,0.0,0.0,0.0,0.0,0.0,0.0,0.0,0.0,0.0,0.0,0.0,0.0,0.0,0.0,0.0,0.0,0.0,0.0,0.0,0.0,0.0,0.0,0.0,0.0,0.0,0.0,0.0,0.0,0.0,0.0,0.0,0.0,0.0,0.0,0.0,0.0,0.0,0.0,0.0,0.0,0.0,0.0,0.0,0.0,0.0,1.9224,1.899,1.8981,1.8966,1.8966,1.8344,1.8009,0.0,0.0,0.0,0.0,0.0,0.0,0.0,0.0,0.0,0.0,0.0,0.0,0.0,0.0,0.0,0.0,0.0,0.0,0.0,0.0,0.0,0.0,0.0,0.0,0.0,0.0,0.0,0.0,0.0,0.0,0.0,0.0,0.0,0.0,0.0,0.0,0.0,0.0,0.0,0.0,0.0,0.0,0.0,0.0,0.0,0.0,0.0,0.0,2.3214,0.0,0.0,0.0,0.0,0.0,0.0,0.0,0.0,0.0,0.0,0.0,0.0,0.0,0.0,0.0,0.0,0.0,0.0,0.0,0.0,0.0,0.0,0.0,0.0,0.0,0.0,0.0,0.0,0.0,0.0,0.0,0.0,0.0,0.0,0.0,0.0,0.0,0.0,0.0,0.0,0.0,0.0,0.0,0.0,0.0,0.0,0.0,0.0,0.0,0.0,0.0,0.0,0.0,0.0,0.0,0.0,0.0,0.0,0.0,1.9723,1.9723,1.9723,1.9723,1.969,1.9098,1.8797,0.0,0.0,0.0,0.0,0.0,0.0,0.0,0.0,0.0,0.0,0.0,0.0,0.0,0.0,0.0,0.0,0.0,0.0,0.0,0.0,0.0,0.0,0.0,0.0,0.0,0.0,0.0,0.0,0.0,0.0,0.0,0.0,0.0,0.0,0.0,0.0,0.0,0.0,0.0,0.0,0.0,0.0,0.0,0.0,0.0,0.0,0.0,0.0,0.0,0.0,0.0,0.0,0.0,0.0,0.0,0.0,0.0,0.0,0.0,0.0,0.0,0.0,0.0,0.0,0.0,0.0,0.0,0.0,0.0,0.0,0.0,0.0,0.0,0.0,0.0,0.0,0.0,0.0,0.0,0.0,0.0,0.0,0.0,0.0,0.0,0.0,0.0,0.0,0.0,0.0,0.0,0.0,0.0,0.0,0.0,0.0,0.0,0.0,0.0,0.0,0.0,0.0,0.0,0.0,0.0,0.0,0.0,1.972,1.9723,1.9723,1.9723,1.9723,1.9723,1.9723,1.972,1.9791,0.0,0.0,0.0,0.0,0.0,0.0,0.0,0.0,0.0,0.0,0.0,0.0,0.0,0.0,0.0,0.0,0.0,0.0,0.0,0.0,0.0,0.0,0.0,0.0,0.0,0.0,0.0,0.0,0.0,0.0,0.0,0.0,0.0,0.0,0.0,0.0,0.0,0.0,2.2963,2.3415,0.0,0.0,0.0,0.0,0.0,0.0,0.0,0.0,2.4541,0.0,0.0,0.0,0.0,0.0,0.0,0.0,0.0,0.0,0.0,0.0,0.0,0.0,0.0,0.0,0.0,0.0,0.0,0.0,0.0,0.0,0.0,0.0,0.0,0.0,0.0,0.0,0.0,0.0,0.0,0.0,0.0,0.0,0.0,0.0,0.0,0.0,0.0,0.0,0.0,0.0,0.0,0.0,0.0,0.0,0.0,0.0,0.0,0.0,0.0,0.0,0.0,0.0,0.0,0.0,0.0,2.0201,1.9865,1.9723,1.9723,1.9723,1.9723,1.9723,1.9723,1.9856,2.0167,0.0,0.0,0.0,0.0,0.0,0.0,0.0,0.0,0.0,0.0,0.0,0.0,0.0,0.0,0.0,0.0,0.0,0.0,0.0,0.0,0.0,0.0,0.0,0.0,0.0,0.0,0.0,0.0,0.0,0.0,0.0,0.0,0.0,0.0,0.0,0.0,0.0,0.0,0.0,2.4047,2.4132,0.0,0.0,0.0,0.0,0.0,0.0,0.0,0.0,2.4782,0.0,0.0,0.0,0.0,0.0,0.0,0.0,0.0,0.0,0.0,0.0,0.0,0.0,0.0,0.0,0.0,0.0,0.0,0.0,0.0,0.0,0.0,0.0,0.0,0.0,0.0,0.0,0.0,0.0,0.0,0.0,0.0,0.0,0.0,0.0,0.0,0.0,0.0,0.0,0.0,0.0,0.0,0.0,0.0,0.0,0.0,0.0,0.0,0.0,0.0,0.0,0.0,0.0,0.0,0.0,2.0297,1.9909,1.9723,1.9723,1.9723,1.9723,1.9723,1.9723,1.9785,0.0,0.0,0.0,0.0,0.0,0.0,0.0,0.0,0.0,0.0,0.0,0.0,0.0,0.0,0.0,0.0,0.0,0.0,0.0,0.0,0.0,0.0,0.0,0.0,0.0,0.0,0.0,0.0,0.0,0.0,0.0,0.0,0.0,0.0,0.0,0.0,0.0,0.0,0.0,0.0,2.42,2.4211,2.4193,0.0,0.0,0.0,0.0,0.0,0.0,2.4745,2.4885,0.0,0.0,0.0,0.0,0.0,0.0,0.0,0.0,0.0,0.0,0.0,0.0,0.0,0.0,0.0,0.0,0.0,0.0,0.0,0.0,0.0,0.0,0.0,0.0,0.0,0.0,0.0,0.0,0.0,0.0,0.0,0.0,0.0,0.0,0.0,0.0,0.0,0.0,0.0,0.0,0.0,0.0,0.0,0.0,0.0,0.0,0.0,0.0,0.0,0.0,0.0,0.0,0.0,0.0,0.0,2.0441,1.9938,1.9723,1.9723,1.9723,1.9723,1.9723,1.9723,1.9738,0.0,0.0,0.0,0.0,0.0,0.0,0.0,0.0,0.0,0.0,0.0,0.0,0.0,0.0,0.0,0.0,0.0,0.0,0.0,0.0,0.0,0.0,0.0,0.0,0.0,0.0,0.0,0.0,0.0,0.0,0.0,0.0,0.0,0.0,0.0,0.0,0.0,0.0,0.0,0.0,0.0,2.4194,2.4199,2.437,0.0,0.0,0.0,0.0,2.4746,2.4894,0.0,0.0,0.0,0.0,0.0,0.0,0.0,0.0,0.0,0.0,0.0,0.0,0.0,0.0,0.0,0.0,0.0,0.0,0.0,0.0,0.0,0.0,0.0,0.0,0.0,0.0,0.0,0.0,0.0,0.0,0.0,0.0,0.0,0.0,0.0,0.0,0.0,0.0,0.0,0.0,0.0,0.0,0.0,0.0,0.0,0.0,0.0,0.0,0.0,0.0,0.0,0.0,0.0,0.0,0.0,0.0,2.0886,2.0104,1.9723,1.9723,1.9723,1.9723,1.9723,1.9723,1.985,0.0,0.0,0.0,0.0,0.0,0.0,0.0,0.0,0.0,0.0,0.0,0.0,0.0,0.0,0.0,0.0,0.0,0.0,0.0,0.0,0.0,0.0,0.0,0.0,0.0,0.0,0.0,0.0,0.0,0.0,0.0,0.0,0.0,0.0,0.0,0.0,0.0,0.0,0.0,0.0,0.0,2.4194,2.4194,2.4375,2.4426,0.0,0.0,2.4738,2.4574,2.4809,0.0,0.0,0.0,0.0,0.0,0.0,0.0,0.0,0.0,0.0,0.0,0.0,0.0,0.0,0.0,0.0,0.0,0.0,0.0,0.0,0.0,0.0,0.0,0.0,0.0,0.0,0.0,0.0,0.0,0.0,0.0,0.0,0.0,0.0,0.0,0.0,0.0,0.0,0.0,0.0,0.0,0.0,0.0,0.0,0.0,0.0,0.0,0.0,0.0,0.0,0.0,0.0,0.0,0.0,0.0,2.1007,2.0959,2.0139,1.9723,1.9723,1.9723,1.9723,1.9723,1.9723,1.9877,0.0,0.0,0.0,0.0,0.0,0.0,0.0,0.0,0.0,0.0,0.0,0.0,0.0,0.0,0.0,0.0,0.0,0.0,0.0,0.0,0.0,0.0,0.0,0.0,0.0,0.0,0.0,0.0,0.0,0.0,0.0,0.0,0.0,0.0,0.0,0.0,0.0,0.0,0.0,0.0,0.0,0.0,2.4223,2.447,0.0,0.0,0.0,2.4875,2.4793,0.0,0.0,0.0,0.0,0.0,0.0,0.0,0.0,0.0,0.0,0.0,0.0,0.0,0.0,0.0,0.0,0.0,0.0,0.0,0.0,0.0,0.0,0.0,0.0,0.0,0.0,0.0,0.0,0.0,0.0,0.0,0.0,0.0,0.0,0.0,0.0,0.0,0.0,0.0,0.0,0.0,0.0,0.0,0.0,0.0,0.0,0.0,0.0,0.0,0.0,0.0,0.0,0.0,0.0,0.0,0.0,0.0,2.1134,2.0413,2.0032,2.0015,2.0024,2.0024,2.0039,1.9909,0.0,0.0,0.0,0.0,0.0,0.0,0.0,0.0,0.0,0.0,0.0,0.0,0.0,0.0,0.0,0.0,0.0,0.0,0.0,0.0,0.0,0.0,0.0,0.0,0.0,0.0,0.0,2.4646,0.0,0.0,0.0,0.0,0.0,0.0,0.0,0.0,0.0,0.0,0.0,0.0,0.0,0.0,2.464,2.4922,2.5077,2.5152,0.0,0.0,2.5704,2.5646,2.6243,2.6692,0.0,0.0,0.0,0.0,0.0,0.0,0.0,0.0,0.0,0.0,0.0,0.0,0.0,0.0,0.0,0.0,0.0,0.0,0.0,0.0,0.0,0.0,0.0,0.0,0.0,0.0,0.0,0.0,0.0,0.0,0.0,0.0,0.0,0.0,0.0,0.0,0.0,0.0,0.0,0.0,0.0,0.0,0.0,0.0,0.0,0.0,0.0,0.0,0.0,0.0,0.0,0.0,0.0,0.0,2.1559,2.1544,2.1134,2.091,2.0918,2.0918,2.091,2.0902,2.0483,2.0466,0.0,0.0,0.0,0.0,0.0,0.0,0.0,0.0,0.0,0.0,0.0,0.0,0.0,0.0,0.0,0.0,0.0,0.0,0.0,0.0,0.0,0.0,0.0,0.0,0.0,0.0,0.0,0.0,0.0,0.0,0.0,0.0,0.0,0.0,0.0,0.0,0.0,0.0,0.0,0.0,0.0,2.5216,2.6865,2.6538,2.6345,0.0,2.7463,2.7646,2.7447,2.7624,2.7533,2.6733,0.0,0.0,0.0,0.0,0.0,0.0,0.0,0.0,0.0,0.0,0.0,0.0,0.0,0.0,0.0,0.0,0.0,0.0,0.0,0.0,0.0,0.0,0.0,0.0,0.0,0.0,0.0,0.0,0.0,0.0,0.0,0.0,0.0,0.0,0.0,0.0,0.0,0.0,0.0,0.0,0.0,0.0,0.0,0.0,0.0,0.0,0.0,0.0,0.0,0.0,0.0,0.0,0.0,2.1597,2.1589,2.1205,2.1007,2.1007,2.0715,2.0551,2.0566,2.0383,2.0516,0.0,0.0,0.0,0.0,0.0,0.0,0.0,0.0,0.0,0.0,0.0,0.0,0.0,0.0,0.0,0.0,0.0,0.0,0.0,0.0,0.0,0.0,0.0,0.0,0.0,0.0,0.0,0.0,2.5237,2.4971,2.51,0.0,0.0,0.0,0.0,0.0,0.0,0.0,0.0,0.0,0.0,2.7248,2.8951,2.8219,0.0,0.0,2.7908,2.7827,2.7641,2.8189,2.853,2.8181,2.8849,0.0,0.0,0.0,0.0,0.0,0.0,0.0,0.0,0.0,0.0,0.0,0.0,0.0,0.0,0.0,0.0,0.0,0.0,0.0,0.0,0.0,0.0,0.0,0.0,0.0,0.0,0.0,0.0,0.0,0.0,0.0,0.0,0.0,0.0,0.0,0.0,0.0,0.0,0.0,0.0,0.0,0.0,0.0,0.0,0.0,0.0,0.0,0.0,0.0,0.0,0.0,0.0,2.1801,2.1801,2.14,2.1197,2.1165,2.0732,2.0508,2.0508,2.0382,2.0575,0.0,0.0,0.0,0.0,0.0,0.0,0.0,0.0,0.0,0.0,0.0,0.0,0.0,0.0,0.0,0.0,0.0,0.0,0.0,0.0,0.0,0.0,0.0,0.0,0.0,0.0,0.0,0.0,2.6072,2.5921,2.6069,0.0,0.0,0.0,0.0,0.0,0.0,0.0,0.0,0.0,0.0,2.7929,3.0065,2.9552,2.8947,2.8933,2.8753,2.8587,2.845,2.9019,2.9412,2.9149,0.0,0.0,0.0,0.0,0.0,0.0,0.0,0.0,0.0,0.0,0.0,0.0,0.0,0.0,0.0,0.0,0.0,0.0,0.0,0.0,0.0,0.0,0.0,0.0,0.0,0.0,0.0,2.1511,0.0,0.0,2.2539,0.0,0.0,0.0,0.0,0.0,0.0,0.0,0.0,0.0,0.0,0.0,0.0,0.0,0.0,0.0,0.0,0.0,0.0,0.0,0.0,0.0,0.0,2.2282,2.2282,2.1801,2.1574,2.1574,2.1189,2.0943,2.0943,2.0533,2.0699,2.1544,0.0,0.0,0.0,0.0,0.0,0.0,0.0,0.0,0.0,0.0,0.0,0.0,0.0,0.0,0.0,0.0,0.0,0.0,0.0,0.0,0.0,0.0,0.0,0.0,0.0,0.0,2.6706,2.733,2.781,0.0,0.0,0.0,0.0,0.0,0.0,0.0,0.0,0.0,2.7152,2.6145,2.6611,2.9904,3.0364,3.0261,3.0282,3.0315,3.0318,3.0274,3.0321,3.008,0.0,0.0,0.0,0.0,0.0,0.0,0.0,0.0,0.0,0.0,0.0,0.0,0.0,0.0,0.0,0.0,0.0,0.0,0.0,0.0,0.0,0.0,0.0,0.0,0.0,0.0,0.0,2.2194,2.2317,0.0,0.0,0.0,0.0,0.0,0.0,0.0,0.0,0.0,0.0,0.0,2.3682,2.3352,0.0,0.0,0.0,0.0,0.0,0.0,0.0,0.0,0.0,0.0,0.0,0.0,2.2313,2.2282,2.1847,2.1597,2.1598,2.0902,2.0541,2.0533,2.039,2.0699,2.1567,0.0,0.0,0.0,0.0,0.0,0.0,0.0,0.0,0.0,0.0,0.0,0.0,0.0,0.0,0.0,0.0,0.0,0.0,0.0,0.0,0.0,0.0,0.0,0.0,0.0,2.7796,0.0,0.0,0.0,0.0,0.0,0.0,0.0,0.0,0.0,0.0,2.7646,2.7567,2.8713,2.8208,2.8189,2.9322,2.9735,2.9943,0.0,0.0,0.0,0.0,0.0,0.0,0.0,0.0,0.0,0.0,0.0,0.0,0.0,0.0,3.0404,3.0404,3.0404,3.0404,3.0404,0.0,0.0,0.0,0.0,0.0,0.0,0.0,0.0,0.0,0.0,0.0,0.0,0.0,0.0,2.2772,2.2868,2.2985,0.0,0.0,0.0,0.0,0.0,0.0,0.0,0.0,2.342,2.3626,2.3845,2.3421,2.3195,0.0,2.3093,2.2952,0.0,0.0,0.0,0.0,0.0,0.0,0.0,0.0,2.2313,2.2282,2.1847,2.1597,2.1559,2.0756,2.0382,2.0541,2.0541,2.0724,2.1118,2.1314,2.1453,0.0,0.0,0.0,0.0,0.0,0.0,0.0,0.0,0.0,0.0,0.0,0.0,0.0,0.0,0.0,0.0,0.0,0.0,0.0,0.0,0.0,0.0,0.0,2.831,0.0,0.0,0.0,0.0,0.0,0.0,0.0,0.0,0.0,2.9198,2.8504,2.8409,2.9339,2.9189,2.8991,2.8994,0.0,0.0,0.0,0.0,0.0,0.0,0.0,3.0152,3.0148,3.0148,3.0148,3.0171,3.0221,3.026,3.0276,0.0,0.0,3.0404,3.0404,3.0404,3.0404,3.0404,3.0404,3.0404,3.0404,3.0404,0.0,0.0,0.0,0.0,0.0,0.0,0.0,0.0,2.2643,2.2929,0.0,2.3538,0.0,0.0,0.0,0.0,2.3212,2.3224,0.0,0.0,2.3265,2.3224,2.3247,2.3265,2.3224,2.323,2.3509,2.3329,2.2708,2.244,0.0,0.0,0.0,0.0,0.0,0.0,2.2313,2.2289,2.1816,2.1574,2.1568,2.0716,2.0491,2.0943,2.0959,2.0764,2.0399,2.0813,2.1213,2.1621,2.1627,0.0,0.0,0.0,0.0,0.0,0.0,0.0,0.0,0.0,0.0,0.0,0.0,0.0,0.0,0.0,0.0,0.0,0.0,0.0,0.0,2.8828,0.0,0.0,0.0,0.0,0.0,0.0,0.0,0.0,0.0,3.0192,2.9744,2.9669,2.9532,2.9096,0.0,0.0,0.0,0.0,2.9025,2.9042,2.9406,2.9706,2.9722,2.9713,2.9737,2.9739,0.0,0.0,2.9716,2.9889,3.0043,3.0017,3.0244,3.0404,3.0404,3.0404,3.0404,3.0404,3.0404,3.0404,3.0404,3.0404,3.0404,2.2723,0.0,0.0,0.0,0.0,2.3277,2.323,2.2952,2.3294,2.3477,2.356,2.366,0.0,0.0,0.0,0.0,0.0,0.0,2.356,2.3566,2.38,2.3935,2.3917,2.3912,2.379,2.3555,2.3409,2.3117,2.2695,2.244,2.2313,2.2313,0.0,0.0,0.0,0.0,2.2313,2.2261,2.1562,2.1173,2.1166,2.0321,2.0063,2.0483,2.05,2.0716,2.1212,2.1344,2.1628,2.2061,2.2099,0.0,0.0,0.0,0.0,0.0,0.0,0.0,0.0,0.0,0.0,0.0,0.0,0.0,0.0,0.0,0.0,0.0,0.0,0.0,2.95,2.958,2.9736,0.0,0.0,0.0,0.0,0.0,0.0,0.0,0.0,0.0,2.9935,2.9785,2.962,0.0,0.0,2.8989,2.8998,2.9274,2.9489,2.9494,2.9726,0.0,2.991,3.007,3.0196,3.0199,3.0202,3.0202,3.0198,3.0244,3.0295,3.027,3.0352,3.0404,3.0404,3.0404,3.0401,3.0404,3.0404,3.0404,3.0404,3.0404,3.0404,2.2898,2.3224,2.3346,2.3311,2.323,2.3555,2.3516,2.3212,2.3549,2.3721,2.3726,2.3832,2.3902,2.3896,2.3896,0.0,0.0,0.0,2.3883,2.3902,2.4299,2.4483,2.4491,2.4545,2.4449,2.4254,2.4033,2.3733,2.3405,2.338,2.33,2.3156,0.0,2.2313,2.2313,2.2313,2.2313,2.2282,2.1781,2.1516,2.1508,2.1007,2.0583,2.0314,2.0467,2.074,2.107,2.1094,2.1514,2.2404,2.2467,2.2803,0.0,0.0,0.0,0.0,0.0,0.0,0.0,0.0,0.0,0.0,0.0,2.8362,2.8997,0.0,0.0,0.0,3.0037,3.0015,2.9724,2.9891,0.0,0.0,0.0,0.0,0.0,0.0,0.0,3.0404,3.0137,2.9961,2.9999,2.9973,2.9913,2.9684,2.9278,2.9148,2.95,0.0,2.9487,2.9675,2.9641,2.96,2.9616,2.9754,2.9842,2.9846,2.9844,2.984,2.9848,2.9927,3.0004,3.0011,3.0048,3.0131,3.0121,3.0126,3.0179,3.0358,3.0404,3.0404,3.0404,3.0404,3.0404,2.3129,2.3495,2.3808,2.3657,2.3283,2.3593,2.3566,2.3317,2.3604,2.3735,2.3769,2.4064,2.4231,2.4305,2.4378,0.0,2.4392,2.4378,2.4392,2.4405,2.4798,2.4992,2.4999,2.5095,2.514,2.5147,2.5041,2.4832,2.4558,2.48,2.4805,2.4472,2.3156,2.2472,2.2472,2.2482,2.2472,2.2472,2.2454,2.2425,2.238,2.238,2.1794,2.0655,2.1004,2.1069,2.0673,2.0663,2.1324,2.2747,2.2844,2.3654,2.5326,0.0,0.0,0.0,0.0,0.0,0.0,0.0,0.0,0.0,0.0,0.0,0.0,0.0,0.0,2.9748,2.9713,0.0,2.9744,2.9892,0.0,0.0,0.0,3.0398,3.0367,3.0398,3.0404,3.0404,0.0,0.0,2.9999,3.019,3.023,2.9925,2.9369,2.9334,3.0212,2.9593,2.9177,2.9566,2.9309,2.9069,2.918,2.9184,2.92,2.918,2.9055,2.9138,2.916,2.9307,2.9424,2.9488,2.9579,2.9706,2.9695,2.9734,2.9842,3.0249,3.032,3.0334,3.0292,3.0294,3.029,2.5213,2.5798,2.5891,2.5028,2.3622,2.3932,2.4026,2.3981,2.4054,2.4084,2.4066,2.417,2.4525,2.5136,2.5755,2.6038,2.6038,2.602,2.6038,2.6023,2.5828,2.5732,2.5733,2.5522,2.5407,2.5387,2.5126,2.4962,2.4868,2.4718,2.4582,2.4489,2.4135,2.3975,2.3966,2.3975,2.3975,2.3983,2.3684,2.3341,2.3005,2.2972,2.3013,2.3054,2.3162,2.33,2.3475,2.3507,2.3677,2.4033,2.4082,2.4429,2.5153,2.5376,0.0,0.0,0.0,0.0,0.0,0.0,0.0,0.0,0.0,2.9312,2.9814,0.0,3.0045,0.0,2.9788,2.9845,3.02,3.0088,0.0,0.0,3.0244,3.0314,3.0126,3.027,3.0404,3.0404,3.0099,2.9938,2.9999,2.9924,2.9827,2.9761,2.931,2.9194,2.978,2.9617,2.9326,2.9233,2.9373,2.9524,2.9491,2.9541,2.9511,2.9533,2.9537,2.9533,2.9528,2.9575,2.9616,2.9644,2.9661,2.9691,2.9684,2.9689,2.9715,2.9845,2.9865,2.9845,2.9886,2.9879,2.9871,2.5691,2.5961,2.6249,2.5757,2.4783,2.5142,2.5249,2.5273,2.5273,2.5273,2.5249,2.5286,2.5511,2.5957,2.641,2.6607,2.6607,2.6607,2.6607,2.6615,2.6738,2.6792,2.6811,2.681,2.6726,2.6557,2.6377,2.6192,2.6016,2.5846,2.5755,2.5755,2.5568,2.5489,2.5439,2.4846,2.4515,2.4491,2.428,2.404,2.3778,2.3778,2.3819,2.3885,2.3885,2.4016,2.4225,2.4233,2.4463,2.4966,2.516,2.5517,2.6058,2.6543,2.6993,0.0,0.0,0.0,0.0,0.0,0.0,0.0,0.0,0.0,0.0,0.0,3.0058,3.0157,2.9973,2.9985,3.0361,3.028,3.0117,3.0013,3.0136,3.0129,2.9908,3.0186,3.0317,3.0115,3.0099,3.0067,2.9884,2.9589,2.9589,3.002,2.9881,2.9678,2.9603,2.9428,2.9204,2.904,2.9223,2.9405,2.9392,2.9387,2.9382,2.9387,2.9387,2.9392,2.9387,2.9387,2.9387,2.9387,2.9387,2.9387,2.9387,2.9387,2.9396,2.9388,2.9388,2.9474,2.9653,2.9702,2.9699,2.5673,2.5534,2.6088,2.6357,2.6416,2.6711,2.6753,2.6607,2.6607,2.6607,2.6607,2.6699,2.6754,2.6778,2.6859,2.6901,2.6895,2.6919,2.6919,2.695,2.7578,2.7878,2.7903,2.8195,2.8183,2.7887,2.7847,2.7623,2.7294,2.7257,2.7233,2.721,2.6891,2.6708,2.664,2.543,2.4778,2.4778,2.4786,2.4786,2.4786,2.4778,2.4613,2.4282,2.4306,2.4298,2.4257,2.429,2.4777,2.5741,2.6151,2.6688,2.7395,2.8057,2.8426,0.0,2.8809,0.0,0.0,0.0,0.0,0.0,0.0,0.0,0.0,2.9865,3.0054,3.0311,3.0124,3.0035,3.0254,3.0305,3.0225,2.9988,2.9965,2.9897,2.9735,3.005,3.0195,2.9879,3.0255,3.0368,3.0071,2.9553,2.9659,3.0538,3.0972,3.0784,2.9943,2.959,2.9455,2.9317,2.9116,2.9093,2.9203,2.9125,2.9034,2.9004,2.9033,2.8987,2.9021,2.9015,2.9004,2.9004,2.9033,2.9015,2.8987,2.9004,2.9004,2.9035,2.9026,2.9142,2.9461,2.9549,2.9615,2.7147,2.7367,2.751,2.7727,2.7969,2.8019,2.7506,2.6607,2.6607,2.6607,2.6662,2.7291,2.7572,2.7622,2.8277,2.8565,2.8546,2.8546,2.8565,2.8535,2.8373,2.8286,2.8267,2.8085,2.795,2.7883,2.7567,2.7388,2.7303,2.6954,2.6825,2.6808,2.6733,2.6708,2.67,0.0,0.0,0.0,2.6277,2.6285,2.6277,2.6277,2.626,2.6194,2.6479,0.0,2.6202,2.6496,2.6761,2.6962,2.7039,0.0,0.0,0.0,0.0,0.0,0.0,0.0,0.0,0.0,0.0,0.0,2.9584,2.9705,2.9705,2.9725,2.9809,2.9968,2.9855,2.9744,2.9668,2.9775,2.9811,2.9759,2.9746,2.9748,2.9695,2.9776,3.0029,3.0619,3.0992,3.1276,3.1309,3.0996,3.082,3.1273,3.2373,3.2545,3.1231,3.098,3.0938,3.0889,2.9941,2.9367,2.9888,2.9455,2.9152,2.8987,2.8987,2.9042,2.9078,2.9042,2.8999,2.9023,2.8987,2.8987,2.8987,2.8987,2.8987,2.8987,2.8987,2.9015,2.9115,2.9139,2.9143,2.8143,2.8163,2.836,2.8539,0.0,2.8688,2.8359,2.7781,2.7794,2.7776,2.7813,2.8203,2.8393,2.8405,2.8822,2.8987,2.8987,2.8987,2.8987,2.8994,2.8785,2.8694,2.8688,2.8526,2.8248,2.7911,2.7848,2.7643,2.7294,2.7099,2.7004,2.6979,2.68,2.6708,2.6708,2.6708,2.6708,2.6708,2.6708,2.6708,2.6708,2.6708,2.6708,2.6708,2.7074,0.0,0.0,0.0,0.0,0.0,0.0,0.0,0.0,2.8496,0.0,2.8719,2.8881,2.8987,2.9011,2.9128,2.9211,2.9198,2.9288,2.9461,2.9678,2.9705,2.9705,2.9705,2.9784,2.9811,2.9712,2.9901,2.9977,2.9865,2.9773,2.9807,3.003,2.9668,2.9857,3.1028,3.1999,3.2415,3.1858,3.1614,3.1676,3.2108,3.2742,3.3079,3.2628,3.2138,3.174,3.1495,3.1575,3.1231,3.0845,3.0478,3.0167,3.0191,3.0191,3.0185,3.0191,2.9849,2.9592,2.9561,2.928,2.8987,2.8987,2.8987,2.8987,2.8987,2.8987,2.8987,2.8987,2.8987,2.8987,2.8608,2.8349,2.8676,2.8833,2.8899,2.8899,2.8934,2.8987,2.8987,0.0,0.0,2.8987,2.8987,2.8987,2.8987,2.8987,2.8987,2.8987,2.8987,2.8987,2.8987,2.8987,2.8987,2.8987,2.8627,2.8006,2.821,2.796,2.7326,2.7233,2.7194,2.7162,2.6865,2.6708,2.6708,2.6708,2.6708,2.6708,2.6708,2.6708,2.6708,2.6708,2.6708,2.6708,2.7162,2.738,2.7319,2.7743,2.7996,2.7985,2.8257,2.831,2.8127,2.8663,2.8851,2.8552,2.8803,2.8987,2.8987,2.8987,2.8987,2.8987,2.8987,2.9152,2.9551,2.9616,2.9583,2.9415,2.971,2.9839,2.975,2.9991,3.012,3.0024,2.988,3.0042,3.0578,2.9994,3.0074,3.1452,3.2865,3.3392,3.2382,3.2212,3.2372,3.2943,3.3012,3.3036,3.3501,3.3027,3.2396,3.2144,3.2759,3.3142,3.2028,3.139,3.1427,3.1262,3.1317,3.1409,3.1317,3.0858,3.0424,3.0228,2.9757,2.95,2.9341,2.9299,2.9219,2.9201,2.9097,2.8987,2.8987,2.8987,2.8987,2.8037,2.7982,2.8031,2.821,2.8496,2.8477,2.8682,2.8981,2.9005,2.9005,2.8987,2.8987,2.8987,2.8987,2.8987,2.8987,2.8987,2.8987,2.8987,2.8987,2.8987,2.8987,2.8987,2.8987,2.8761,2.8336,2.8088,2.7736,2.7294,2.6955,2.6791,2.6791,2.6725,2.6708,2.6708,2.6708,2.6708,2.6708,2.6708,2.6708,2.6708,2.6708,2.6708,2.6733,2.7416,2.7641,2.7325,2.7967,2.8318,2.8318,2.8363,2.8534,2.8827,2.8934,2.8982,2.8923,2.8964,2.8987,2.8987,2.8987,2.8987,2.8987,2.8987,2.9027,2.9106,2.9307,2.9343,2.9119,2.9345,2.9375,2.9161,2.9251,2.9601,3.0108,3.0158,3.0451,3.1219,3.1103,3.1344,3.2327,3.3222,3.3782,3.3486,3.344,3.344,3.3634,3.3535,3.366,3.3715,3.3685,3.3563,3.349,3.3629,3.3395,3.2623,3.1823,3.1604,3.1409,3.1501,3.1592,3.1611,3.1397,3.1097,3.0662,3.0736,3.0779,3.0448,3.0173,3.0069,3.0002,2.9599,2.9169,2.9175,2.9133,2.9048,2.8495,2.8501,2.8495,2.8577,2.8749,2.9198,2.9485,2.969,3.0118,2.98,2.9023,2.8987,2.8987,2.8987,2.8987,2.8987,2.8987,2.8987,2.8987,2.8987,2.8987,2.8987,2.8987,2.8987,2.8712,2.8143,2.7982,2.7567,2.7012,2.6774,2.6708,2.6708,2.6708,2.6708,2.6708,2.6708,2.6825,2.7028,2.6799,2.6708,2.6708,2.6708,2.6799,2.7011,2.7597,2.7908,2.7893,2.8445,2.8731,2.8731,2.8731,2.8797,2.8988,2.8987,2.8987,2.8987,2.8987,2.8987,2.8987,2.8987,2.8987,2.8987,2.8987,2.8987,2.8987,2.9112,2.9128,2.9028,2.9235,2.9542,2.9822,2.9973,3.0341,3.1155,3.1142,3.1391,3.2015,3.1703,3.1906,3.3019,3.3559,3.38,3.3815,3.3807,3.3807,3.3807,3.3807,3.3807,3.3807,3.3807,3.3807,3.3814,3.3804,3.3662,3.3283,3.2973,3.273,3.2712,3.2712,3.2687,3.2657,3.2418,3.1916,3.1529,3.1488,3.1427,3.139,3.1133,3.0913,3.0815,3.0624,3.0334,3.029,3.0003,2.9528,2.9537,2.9525,2.9555,2.9537,2.9598,3.021,3.0485,3.054,3.1115,3.0693,2.9635,2.9537,2.9543,2.9543,2.9537,2.9537,2.9543,2.9543,2.9543,2.9543,2.9537,2.9537,2.9544,2.946,2.9101,2.8592,2.836,2.7946,2.741,2.7267,2.7224,2.7207,2.7131,2.7071,2.7096,2.7008,2.7131,2.7394,2.7123,2.6954,2.698,2.6962,2.7123,2.7424,2.7808,2.8118,2.8407,2.8779,2.8987,2.8987,2.8987,2.8987,2.8987,2.8987,2.8987,2.8987,2.8987,2.8987,2.8987,2.8987,2.8987,2.9005,2.917,2.9268,2.928,2.9445,2.9445,2.9346,2.9722,3.0227,3.0651,3.0889,3.1337,3.2079,3.2063,3.2294,3.2938,3.2439,3.2358,3.3592,3.3807,3.382,3.3807,3.3807,3.3807,3.3807,3.3807,3.3807,3.3807,3.3807,3.3807,3.3807,3.3807,3.3795,3.3807,3.377,3.3733,3.3807,3.3752,3.366,3.3587,3.3195,3.2858,3.2575,3.2271,3.2235,3.2455,3.207,3.1739,3.1658,3.1428,3.1309,3.1225,3.0857,3.0115,3.1152,3.1188,3.1121,3.1195,3.1133,3.125,3.128,3.1299,3.1397,3.1335,3.1188,3.1176,3.1152,3.117,3.1133,3.1091,3.1115,3.1164,3.1133,3.1115,3.117,3.1176,3.1066,3.0775,3.0615,3.0449,2.9738,2.9308,2.9201,2.8903,2.8783,2.8742,2.8416,2.8246,2.8217,2.7952,2.784,2.7847,2.7819,2.7797,2.7779,2.7797,2.7794,2.7847,2.8177,2.8368,2.8433,2.8803,2.8987,2.8987,2.8987,2.8987,2.8987,2.8987,2.8987,2.8987,2.8987,2.8987,2.9005,2.8987,2.9042,2.9042,2.9726,3.0093,3.0112,3.0742,3.0852,3.0435,3.1013,3.1325,3.1342,3.136,3.1715,3.2496,3.2587,3.2848,3.3493,3.3655,3.3653,3.3727,3.3807,3.3807,3.3807,3.3807,3.3807,3.3807,3.3807,3.3807,3.3807,3.3807,3.3807,3.3807,3.3807,3.3807,3.3807,3.3807,3.3807,3.3807,3.3807,3.3807,3.3752,3.3733,3.3653,3.3371,3.3495,3.3403,3.3311,3.3048,3.2528,3.2429,3.2051,3.1494,3.1439,3.1369,3.0785,3.1409,3.1409,3.1409,3.1409,3.1464,3.1898,3.21,3.2155,3.262,3.2816,3.2816,3.2822,3.229,3.1427,3.1409,3.1409,3.1409,3.1409,3.1409,3.1409,3.1409,3.1409,3.1372,3.1227,3.1074,3.0891,3.0505,3.0224,3.0029,2.9837,2.9773,2.9764,2.9583,2.9531,2.9511,2.9382,2.9432,2.9646,2.9162,2.9024,2.912,2.8366,2.8003,2.8172,2.8324,2.8527,2.8743,2.8923,2.8987,2.8987,2.8987,2.8987,2.8987,2.8987,2.8987,2.8987,2.8987,2.9201,2.969,2.9726,2.9934,3.0375,3.0705,3.0907,3.0925,3.1641,3.1953,3.1666,3.1323,3.1311,3.1966,3.1952,3.2258,3.3084,3.3311,3.344,3.3752,3.3807,3.3807,3.3807,3.3807,3.3807,3.3807,3.3807,3.3807,3.3807,3.3807,3.3807,3.3807,3.3807,3.3807,3.3807,3.3807,3.3807,3.3807,3.3807,3.3807,3.3807,3.3807,3.3807,3.3807,3.3807,3.3807,3.3807,3.3807,3.3807,3.3752,3.3623,3.3311,3.3183,3.314,3.271,3.2216,3.211,3.159,3.2051,3.2051,3.2051,3.207,3.2125,3.2687,3.2919,3.2993,3.355,3.3807,3.3807,3.3807,3.3189,3.2161,3.2076,3.2058,3.2058,3.2051,3.207,3.2051,3.2051,3.207,3.2051,3.1948,3.1836,3.1681,3.1466,3.1196,3.0914,3.0916,3.0898,3.0888,3.081,3.0746,3.0761,3.0681,3.0725,3.096,3.0374,3.0237,3.0338,2.9441,2.8784,2.8594,2.8565,2.8694,2.8969,2.8987,2.8987,2.8987,2.8987,2.8987,2.9005,2.9207,2.9427,2.9635,2.9653,2.991,3.0485,3.0522,3.0766,3.1335,3.1574,3.1715,3.1868,3.2461,3.2894,3.2864,3.2043,3.2013,3.2668,3.2746,3.301,3.3715,3.3807,3.3807,3.3807,3.3807,3.3807,3.3807,3.3807,3.3807,3.3807,3.3807,3.3807,3.3807,3.3807,3.3807,3.3807,3.3807,3.3807,3.3807,3.3807,3.3807,3.3807,3.3807,3.3807,3.3807,3.3807,3.3807,3.3807,3.3807,3.3807,3.3807,3.3807,3.3807,3.3807,3.3795,3.3777,3.3788,3.3733,3.3555,3.306,3.2943,3.2689,3.3697,3.366,3.3697,3.3587,3.3703,3.3678,3.3733,3.3678,3.377,3.3807,3.3807,3.3807,3.3752,3.3612,3.3538,3.366,3.3648,3.3587,3.355,3.355,3.3593,3.3667,3.3677,3.3302,3.3273,3.333,3.2718,3.2372,3.237,3.2391,3.2395,3.2364,3.2092,3.1939,3.1881,3.1596,3.1377,3.1481,3.1371,3.1317,3.1329,3.1243,3.0393,2.9227,2.9013,2.9086,2.9078,2.9023,2.9042,2.9023,2.9097,2.9078,2.9115,2.9769,3.0467,3.1097,3.1225,3.1262,3.1317,3.1335,3.1409,3.1556,3.2173,3.2552,3.2589,3.3195,3.3605,3.3715,3.35,3.353,3.369,3.3598,3.3653,3.3844,3.3844,3.388,3.3905,3.402,3.3844,3.3917,3.4027,3.4107,3.3954,3.3807,3.3938,3.3931,3.386,3.3776,3.3748,3.3764,3.381,3.3773,3.3787,3.3807,3.3807,3.3807,3.3807,3.3807,3.3807,3.3807,3.3807,3.3807,3.3807,3.3807,3.3807,3.3807,3.3807,3.3807,3.3807,3.3807,3.3807,3.364,3.3498,3.3683,3.3495,3.3807,3.3807,3.3807,3.3807,3.3807,3.3807,3.3807,3.3807,3.3807,3.3807,3.3807,3.3807,3.3807,3.3807,3.3807,3.3807,3.3807,3.3807,3.3807,3.3807,3.3807,3.3807,3.3775,3.3652,3.3634,3.3721,3.3501,3.3321,3.3321,3.3346,3.3321,3.3325,3.3203,3.3152,3.3125,3.3007,3.2944,3.2889,3.2467,3.2167,3.2118,3.1666,3.1097,3.0601,3.054,3.0522,3.0534,3.0528,3.054,3.0528,3.0522,3.054,3.0558,3.0821,3.1097,3.1354,3.1409,3.1623,3.2082,3.2185,3.2394,3.2889,3.3183,3.3348,3.3396,3.3642,3.3807,3.3818,3.3812,3.3989,3.4348,3.413,3.4027,3.4461,3.4582,3.4791,3.5176,3.5119,3.5013,3.5305,3.5404,3.5411,3.5212,3.5108,3.4901,3.4811,3.4207,3.3648,3.3399,3.3563,3.3789,3.3527,3.3638,3.3807,3.3807,3.3807,3.3807,3.3807,3.3807,3.3807,3.3807,3.3807,3.3807,3.3807,3.3807,3.3807,3.3807,3.3807,3.3807,3.3807,3.3807,3.3807,3.3807,3.3807,3.3807,3.3807,3.3807,3.3807,3.3807,3.3807,3.3807,3.3807,3.3807,3.3807,3.3807,3.3807,3.3807,3.3807,3.3807,3.3807,3.3807,3.3807,3.3807,3.3807,3.3807,3.3807,3.3807,3.3807,3.3807,3.3807,3.3807,3.3807,3.3807,3.3807,3.3807,3.3807,3.38,3.3807,3.3807,3.3807,3.3807,3.3807,3.3678,3.325,3.2974,3.2919,3.2473,3.2173,3.2186,3.218,3.1904,3.1445,3.1409,3.1409,3.1409,3.1409,3.1519,3.1751,3.1788,3.1923,3.2118,3.2186,3.2394,3.2883,3.2993,3.3231,3.374,3.3807,3.3807,3.3807,3.381,3.3901,3.406,3.3915,3.4198,3.5148,3.5397,3.5411,3.5491,3.5426,3.5653,3.6182,3.5973,3.5955,3.6112,3.6174,3.6179,3.6031,3.5706,3.5397,3.5269,3.445,3.3696,3.2753,3.3563,3.3983,3.3389,3.3829,3.3901,3.3801,3.3684,3.3805,3.3844,3.3807,3.3807,3.3807,3.3807,3.3807,3.3807,3.3807,3.3807,3.3807,3.3807,3.3807,3.3807,3.3807,3.3807,3.3807,3.3807,3.3807,3.3807,3.3807,3.3807,3.3807,3.3807,3.3807,3.3807,3.3807,3.3807,3.3807,3.3807,3.3807,3.3807,3.3807,3.3807,3.3807,3.3807,3.3807,3.3807,3.3807,3.3807,3.3807,3.3807,3.3807,3.3807,3.3807,3.3807,3.3807,3.3807,3.3807,3.3807,3.3807,3.3807,3.3807,3.3807,3.3807,3.3807,3.3788,3.3697,3.3715,3.3788,3.3642,3.3587,3.3642,3.363,3.2969,3.1611,3.1556,3.166,3.158,3.1581,3.1837,3.251,3.2607,3.2938,3.3476,3.3678,3.374,3.3733,3.3715,3.3697,3.3954,3.388,3.399,3.413,3.3932,3.4123,3.4779,3.4683,3.4717,3.6241,3.7407,3.7675,3.6622,3.631,3.6358,3.645,3.6376,3.634,3.6486,3.6578,3.6153,3.5765,3.5745,3.5616,3.5244,3.4745,3.4029,3.272,3.3894,3.4451,3.3927,3.423,3.4748,3.414,3.3552,3.3735,3.3862,3.3825,3.3807,3.3807,3.3807,3.3807,3.3807,3.3807,3.3807,3.3807,3.3807,3.3807,3.3807,3.3807,3.3807,3.3807,3.3807,3.3807,3.3807,3.3807,3.3807,3.3807,3.3807,3.3807,3.3807,3.3825,3.3807,3.3807,3.3807,3.3807,3.3807,3.3825,3.3807,3.3825,3.3807,3.3807,3.3825,3.3844,3.3825,3.3807,3.3807,3.3807,3.3807,3.3807,3.3807,3.3807,3.3807,3.3807,3.3807,3.3807,3.3807,3.3807,3.3807,3.3807,3.3807,3.3807,3.3807,3.3807,3.3807,3.3807,3.3807,3.3807,3.3807,3.3513,3.3104,3.3229,3.3235,3.3019,3.3229,3.3377,3.3419,3.344,3.3532,3.3752,3.3807,3.3807,3.3807,3.3844,3.4075,3.4472,3.4619,3.4938,3.5261,3.4468,3.452,3.5768,3.6597,3.7305,3.7316,3.8044,3.818,3.7243,3.7118,3.7338,3.7716,3.7863,3.7947,3.7955,3.7955,3.7726,3.723,3.6886,3.6469,3.6141,3.5347,3.4275,3.4428,3.4597,3.527,3.5178,3.5642,3.5699,3.506,3.46,3.4575,3.4376,3.4119,3.3844,3.3807,3.3807,3.3807,3.3807,3.3807,3.3807,3.3807,3.3807,3.3807,3.3807,3.3807,3.3807,3.3807,3.3807,3.3807,3.4724,3.4724,3.4731,3.4724,3.4724,3.4724,3.4731,3.4731,3.4743,3.4724,3.4743,3.4743,3.4724,3.4731,3.4724,3.4724,3.4743,3.4724,3.4724,3.4559,3.3972,3.3825,3.3807,3.3807,3.3807,3.3807,3.3807,3.3807,3.3807,3.3807,3.3807,3.3807,3.3807,3.3807,3.3807,3.3807,3.3807,3.3807,3.3807,3.3807,3.3807,3.3807,3.3807,3.3827,3.3896,3.3935,3.3967,3.4243,3.4207,3.3927,3.3967,3.3955,3.3809,3.3788,3.3807,3.3807,3.3844,3.3935,3.4185,3.4296,3.4608,3.5279,3.5488,3.5679,3.5988,3.5162,3.5444,3.6655,3.7842,3.85,3.8124,3.8358,3.8414,3.8017,3.7944,3.8164,3.8615,3.8699,3.8663,3.8615,3.8626,3.8441,3.7989,3.7497,3.7019,3.6578,3.5832,3.5132,3.564,3.581,3.6333,3.6688,3.6765,3.6554,3.6024,3.5718,3.5504,3.503,3.4504,3.4082,3.3807,3.3807,3.3807,3.3807,3.3807,3.3807,3.3807,3.3807,3.3807,3.3807,3.3807,3.3807,3.3807,3.3807,3.3807,3.6266,3.6285,3.6266,3.6174,3.6156,3.6156,3.6101,3.6193,3.6174,3.6119,3.6156,3.6046,3.6138,3.6218,3.6055,3.608,3.6269,3.6149,3.6059,3.5733,3.4883,3.4186,3.4034,3.388,3.3807,3.3807,3.3807,3.3807,3.3807,3.3807,3.3807,3.3807,3.3807,3.3807,3.3807,3.3807,3.3807,3.3807,3.3807,3.3807,3.382,3.3842,3.3867,3.3868,3.4099,3.4242,3.4282,3.4497,3.4411,3.3927,3.3876,3.387,3.382,3.3844,3.3954,3.4009,3.3935,3.4442,3.4912,3.5078,3.5452,3.6237,3.6358,3.6413,3.6545,3.6586,3.671,3.7496,3.8256,3.8678,3.8634,3.8681,3.8652,3.8681,3.856,3.8615,3.8689,3.8699,3.8699,3.8699,3.8666,3.8488,3.798,3.7533,3.6848,3.6113,3.6065,3.618,3.6387,3.6979,3.7908,3.8009,3.776,3.7483,3.6997,3.6549,3.6332,3.6046,3.5422,3.4853,3.4321,3.4229,3.388,3.3862,3.388,3.3862,3.3807,3.3807,3.3807,3.3807,3.3807,3.3807,3.3807,3.3807,3.3807,3.6285,3.6285,3.6285,3.6285,3.6285,3.6285,3.631,3.6303,3.6328,3.6423,3.6328,3.6285,3.6398,3.632,3.6554,3.649,3.65,3.6591,3.6475,3.6308,3.6142,3.5415,3.4674,3.4075,3.3882,3.392,3.3944,3.3807,3.3807,3.3832,3.3814,3.3807,3.3827,3.382,3.3807,3.382,3.3807,3.3807,3.3807,3.382,3.3862,3.4012,3.4086,3.4117,3.4409,3.4556,3.4585,3.4653,3.4524,3.4141,3.4086,3.3987,3.3934,3.4376,3.4692,3.4773,3.5257,3.5661,3.5881,3.5947,3.6358,3.707,3.7173,3.743,3.8021,3.8042,3.817,3.8414,3.8626,3.8699,3.8699,3.8699,3.8699,3.8699,3.8699,3.8699,3.8699,3.8699,3.8699,3.8699,3.8699,3.8449,3.8082,3.7718,3.7193,3.6286,3.6448,3.7199,3.7453,3.7557,3.8204,3.8478,3.8378,3.8253,3.796,3.7484,3.7173,3.7033,3.6549,3.5998,3.5477,3.514,3.4523,3.399,3.4064,3.4064,3.3899,3.3807,3.3807,3.3807,3.3807,3.3807,3.3807,3.3807,3.3807,3.7692,3.7673,3.7692,3.7598,3.7514,3.7625,3.7553,3.7356,3.7427,3.7479,3.7472,3.7472,3.7472,3.7521,3.7797,3.7778,3.7544,3.7779,3.786,3.7682,3.736,3.672,3.593,3.5175,3.4961,3.512,3.4572,3.4435,3.4403,3.4065,3.3832,3.3829,3.3922,3.3922,3.382,3.391,3.3967,3.3948,3.3895,3.3883,3.4172,3.4177,3.4288,3.4405,3.4714,3.4993,3.5301,3.5382,3.5103,3.4644,3.4605,3.4686,3.4596,3.5154,3.5525,3.558,3.6046,3.6402,3.6732,3.6806,3.7173,3.7815,3.8017,3.823,3.8553,3.8699,3.8699,3.8681,3.8699,3.8699,3.8699,3.8699,3.8699,3.8699,3.8699,3.8699,3.8699,3.8699,3.8699,3.8699,3.8673,3.8619,3.8232,3.8047,3.7616,3.72,3.7256,3.7888,3.834,3.8309,3.8275,3.8554,3.8699,3.853,3.8449,3.8068,3.7881,3.776,3.7577,3.7037,3.6431,3.5965,3.5268,3.4651,3.4449,3.4229,3.4059,3.3912,3.3807,3.3807,3.3807,3.3807,3.3807,3.3807,3.3807,3.9605,3.9605,3.9605,3.9439,3.9156,3.9425,3.9107,3.8857,3.8919,3.9016,3.9016,3.9109,3.8916,3.9166,3.9185,3.9387,3.908,3.9229,3.9452,3.9139,3.8619,3.7889,3.7637,3.6501,3.6371,3.6554,3.5692,3.5456,3.5335,3.4612,3.4164,3.4231,3.4327,3.4111,3.3953,3.4037,3.4135,3.4062,3.3961,3.4074,3.4392,3.4398,3.4531,3.5033,3.5521,3.594,3.6322,3.6406,3.6036,3.5125,3.5492,3.568,3.5727,3.6133,3.6397,3.6501,3.6659,3.7037,3.7467,3.7632,3.787,3.8469,3.8615,3.8699,3.8699,3.8699,3.8699,3.8699,3.8699,3.8699,3.8699,3.8699,3.8699,3.8699,3.8699,3.8699,3.8699,3.8699,3.8699,3.8699,3.8699,3.8699,3.8578,3.8348,3.8105,3.7964,3.8043,3.8226,3.8561,3.8527,3.8504,3.8627,3.8699,3.8699,3.8663,3.8608,3.8534,3.845,3.8377,3.7955,3.7221,3.6652,3.602,3.555,3.5293,3.4793,3.4251,3.4097,3.4052,3.3807,3.3807,3.3807,3.3807,3.3807,3.3807,3.9605,3.9605,3.9605,3.9564,3.9517,3.957,3.9523,3.9408,3.9457,3.9486,3.9486,3.9486,3.9486,3.9517,3.9808,3.9808,3.9551,3.9824,3.9992,3.99,3.9537,3.9506,3.9166,3.7762,3.6839,3.6856,3.6603,3.641,3.6285,3.6002,3.5635,3.5401,3.5039,3.4607,3.4278,3.4221,3.3908,3.3922,3.4086,3.4343,3.4557,3.4746,3.5141,3.5906,3.6766,3.7368,3.7502,3.739,3.7264,3.7258,3.717,3.7014,3.6744,3.7172,3.7431,3.7441,3.7823,3.8212,3.8377,3.8377,3.8479,3.8634,3.8699,3.8699,3.8699,3.8699,3.8699,3.8699,3.8699,3.8699,3.8699,3.8699,3.8699,3.8699,3.8699,3.8699,3.8699,3.8699,3.8699,3.8699,3.8699,3.8699,3.8699,3.8627,3.8554,3.8658,3.8635,3.8578,3.8627,3.8699,3.8699,3.8699,3.8699,3.8699,3.8699,3.8699,3.8699,3.8699,3.8699,3.8663,3.7936,3.7467,3.6872,3.645,3.6083,3.5516,3.492,3.4734,3.4773,3.4321,3.3972,3.4169,3.4279,3.4089,3.4162,4.0024,4.0024,4.0024,3.9949,3.988,3.9964,3.9858,3.9673,3.9775,3.9824,3.9824,3.9829,3.9824,3.987,4.0125,4.0125,3.9963,4.0143,4.0295,4.0223,3.9979,4.0086,4.0239,3.9209,3.8328,3.8353,3.7768,3.7602,3.7549,3.7067,3.6509,3.6312,3.6062,3.5857,3.5471,3.5287,3.5548,3.5646,3.5571,3.5703,3.5979,3.6031,3.6305,3.6939,3.7593,3.8004,3.85,3.8308,3.8567,3.8906,3.8882,3.8422,3.7885,3.8159,3.8329,3.8375,3.846,3.8704,3.8681,3.8699,3.8681,3.8699,3.8699,3.8699,3.8699,3.8699,3.8699,3.8699,3.8699,3.8699,3.8699,3.8699,3.8699,3.8699,3.8699,3.8699,3.8699,3.8699,3.8699,3.8699,3.8699,3.8699,3.8699,3.8699,3.8699,3.8692,3.8692,3.8643,3.8643,3.8699,3.8699,3.8699,3.8699,3.8699,3.8699,3.8699,3.8699,3.8699,3.8699,3.8699,3.8414,3.8083,3.7797,3.7338,3.6835,3.6402,3.5891,3.5716,3.5545,3.5385,3.5183,3.5016,3.4998,3.5147,3.5236,4.0492,4.0492,4.0492,4.0364,4.0233,4.0381,4.0198,3.9842,4.0023,4.0139,4.0158,4.0163,4.0139,4.0209,4.0372,4.0347,4.0286,4.0347,4.0457,4.041,4.025,4.0308,4.0332,4.0119,3.9941,4.0341,3.9236,3.8841,3.8702,3.8104,3.7578,3.7151,3.71,3.6824,3.6745,3.6863,3.6811,3.6903,3.6955,3.7133,3.7496,3.7483,3.7594,3.799,3.8345,3.8694,3.9257,3.9285,3.9472,4.0359,4.0181,3.9637,3.9181,3.8992,3.9087,3.9041,3.8833,3.8704,3.8699,3.8699,3.8699,3.8699,3.8699,3.8699,3.8699,3.8699,3.8699,3.8699,3.8699,3.8699,3.8699,3.8699,3.8699,3.8699,3.8699,3.8699,3.8699,3.8699,3.8699,3.8699,3.8699,3.8699,3.8699,3.8699,3.8699,3.8699,3.8699,3.8699,3.8699,3.8699,3.8699,3.8699,3.8699,3.8699,3.8699,3.8699,3.8699,3.8699,3.8699,3.8699,3.8699,3.8505,3.8201,3.7981,3.754,3.7136,3.6787,3.6534,3.6432,3.6419,3.6135,3.5734,3.5871,3.6237,3.6213,4.0492,4.0492,4.0492,4.0473,4.0445,4.0485,4.043,4.0366,4.0385,4.0418,4.0433,4.0437,4.0406,4.0445,4.0461,4.0465,4.0433,4.0477,4.0492,4.0492,4.0425,4.0465,4.0457,4.0441,4.0449,4.0397,3.9937,3.9772,3.9752,3.9407,3.8791,3.8431,3.8044,3.7561,3.7131,3.6783,3.7192,3.7513,3.7669,3.7905,3.7953,3.798,3.8203,3.8806,3.9354,3.9849,4.0049,4.0024,3.9991,4.0115,3.9851,3.9653,3.9477,3.9264,3.9128,3.9049,3.884,3.8699,3.8699,3.8699,3.8699,3.8699,3.8699,3.8699,3.8699,3.8699,3.8699,3.8699,3.8699,3.8699,3.8699,3.8699,3.8699,3.8699,3.8699,3.8699,3.8699,3.8699,3.8699,3.8699,3.8699,3.8699,3.8699,3.8699,3.8699,3.8699,3.8699,3.8699,3.8699,3.8699,3.8699,3.8699,3.8699,3.8699,3.8699,3.8699,3.8699,3.8699,3.8699,3.8699,3.8699,3.8699,3.8524,3.8303,3.8204,3.7969,3.7657,3.7363,3.7128,3.6972,3.6659,3.6383,3.6677,3.6945,3.6718,4.0492,4.0492,4.0492,4.0492,4.0492,4.0492,4.0492,4.0492,4.0492,4.0492,4.0492,4.0492,4.0492,4.0492,4.0492,4.0492,4.0492,4.0492,4.0492,4.0492,4.0492,4.0492,4.0492,4.0492,4.0492,4.0469,4.0364,4.0304,4.0304,4.0142,3.9814,3.9527,3.9142,3.8835,3.8565,3.8566,3.8488,3.8625,3.8877,3.9061,3.9065,3.9042,3.9352,3.9735,4.0122,4.045,4.0477,4.0397,4.0298,4.0258,4.0042,3.9959,3.9863,3.962,3.9282,3.9104,3.8855,3.8707,3.8707,3.8699,3.8699,3.8699,3.8699,3.8699,3.8699,3.8699,3.8689,3.8696,3.8707,3.8699,3.8699,3.8696,3.8699,3.8699,3.8699,3.8699,3.8699,3.8699,3.8699,3.8699,3.8699,3.8699,3.8699,3.8699,3.8699,3.8699,3.8699,3.8699,3.8699,3.8699,3.8699,3.8699,3.8699,3.8699,3.8699,3.8699,3.8699,3.8699,3.8699,3.8699,3.8699,3.8699,3.8699,3.8597,3.8537,3.8456,3.8409,3.8068,3.7806,3.7595,3.7587,3.7566,3.7573,3.7569,3.7363,4.0492,4.0492,4.0492,4.0492,4.0492,4.0492,4.0492,4.0492,4.0492,4.0492,4.0492,4.0492,4.0492,4.0492,4.0492,4.0492,4.0492,4.0492,4.0492,4.0492,4.0492,4.0492,4.0492,4.0492,4.0492,4.0492,4.0481,4.0492,4.0469,4.0426,4.033,4.0058,4.0053,4.0056,3.9829,3.9666,4.0208,4.0356,4.0504,4.0492,4.0492,4.0492,4.0492,4.0492,4.0492,4.0492,4.0492,4.0477,4.0406,4.0339,4.0209,4.0148,4.0203,3.9858,3.9444,3.9132,3.8887,3.8773,3.8689,3.8699,3.8699,3.8699,3.8699,3.8699,3.8699,3.8696,3.8701,3.8691,3.877,3.8748,3.8715,3.8752,3.8754,3.8699,3.8699,3.8699,3.8699,3.8699,3.8699,3.8699,3.8699,3.8699,3.8699,3.8699,3.8699,3.8699,3.8699,3.8699,3.8699,3.8699,3.8699,3.8699,3.8699,3.8699,3.8699,3.8699,3.8699,3.8699,3.8699,3.8699,3.8699,3.8699,3.8699,3.8699,3.8681,3.8618,3.8681,3.8699,3.8375,3.8258,3.8563,3.8571,3.827,3.8215,3.8152,4.0492,4.0492,4.0492,4.0492,4.0492,4.0492,4.0492,4.0492,4.0492,4.0492,4.0492,4.0492,4.0492,4.0492,4.0492,4.0492,4.0492,4.0492,4.0492,4.0492,4.0492,4.0492,4.0492,4.0492,4.0492,4.0492,4.0492,4.0492,4.0492,4.0492,4.0372,4.0177,4.0125,4.0007,3.9893,4.0067,4.0105,4.0214,4.0385,4.0492,4.0492,4.0492,4.0492,4.0492,4.0492,4.0477,4.0469,4.0465,4.0406,4.0181,4.0134,3.9982,3.9751,3.9668,3.9414,3.9218,3.9049,3.8973,3.8784,3.8723,3.8735,3.8742,3.8723,3.8707,3.8696,3.8739,3.8741,3.8699,3.8894,3.8994,3.8906,3.8936,3.8893,3.8803,3.8712,3.8696,3.8699,3.8699,3.8699,3.8699,3.8699,3.8699,3.8699,3.8699,3.8699,3.8699,3.8699,3.8699,3.8699,3.8699,3.8699,3.8699,3.8699,3.8699,3.8699,3.8699,3.8699,3.8699,3.8699,3.8699,3.8699,3.8699,3.8699,3.8699,3.8699,3.8699,3.8699,3.8699,3.8699,3.8699,3.8699,3.8699,3.8663,3.8699,3.8699,4.0492,4.0492,4.0492,4.0492,4.0492,4.0492,4.0492,4.0492,4.0492,4.0492,4.0492,4.0492,4.0492,4.0492,4.0492,4.0492,4.0492,4.0492,4.0492,4.0492,4.0492,4.0492,4.0492,4.0492,4.0492,4.0492,4.0492,4.0492,4.0492,4.0489,4.041,4.0347,4.0326,4.0298,4.0053,4.023,4.0326,4.0372,4.0449,4.0492,4.0492,4.0492,4.0492,4.0492,4.0492,4.0425,4.0343,4.0441,4.0356,4.0153,4.0096,4.0125,4.0067,3.9993,3.9797,3.9696,3.9493,3.9262,3.8994,3.8822,3.8788,3.8851,3.8811,3.8707,3.8719,3.884,3.898,3.9041,3.9239,3.9339,3.9283,3.9193,3.9051,3.8933,3.8844,3.8747,3.8735,3.8707,3.8699,3.8699,3.8699,3.8699,3.8699,3.8699,3.8699,3.8699,3.8699,3.8699,3.8699,3.8699,3.8699,3.8699,3.8699,3.8699,3.8699,3.8699,3.8699,3.8699,3.8699,3.8699,3.8699,3.8699,3.8699,3.8699,3.8699,3.8699,3.8699,3.8699,3.8699,3.8699,3.8699,3.8699,3.8699,3.8699,3.8699,4.0492,4.0492,4.0492,4.0492,4.0492,4.0492,4.0492,4.0492,4.0492,4.0492,4.0492,4.0492,4.0492,4.0492,4.0492,4.0492,4.0492,4.0492,4.0492,4.0492,4.0492,4.0492,4.0492,4.0492,4.0492,4.0492,4.0492,4.0492,4.0492,4.0492,4.0489,4.0492,4.0461,4.0469,4.0485,4.0469,4.0465,4.0469,4.0481,4.0492,4.0492,4.0492,4.0492,4.0477,4.0414,4.0294,4.0186,4.0273,4.0241,4.0158,4.0214,4.0289,4.0377,4.0276,4.012,3.9973,3.9718,3.9552,3.9288,3.9071,3.8934,3.8961,3.9087,3.902,3.9005,3.9124,3.9302,3.9451,3.9625,3.9771,3.9792,3.953,3.9414,3.9262,3.9107,3.8949,3.8833,3.8833,3.8781,3.8699,3.8699,3.8699,3.8699,3.8699,3.8699,3.8699,3.8699,3.8699,3.8699,3.8699,3.8699,3.8699,3.8699,3.8699,3.8699,3.8699,3.8699,3.8699,3.8699,3.8699,3.8699,3.8699,3.8699,3.8699,3.8699,3.8699,3.8699,3.8699,3.8699,3.8699,3.8699,3.8699,3.8699,3.8699,3.8699,4.0492,4.0492,4.0492,4.0492,4.0492,4.0492,4.0492,4.0492,4.0492,4.0492,4.0492,4.0492,4.0492,4.0492,4.0492,4.0492,4.0492,4.0492,4.0492,4.0492,4.0492,4.0492,4.0492,4.0492,4.0492,4.0492,4.0492,4.0492,4.0492,4.0492,4.0492,4.0492,4.0492,4.0492,4.0492,4.0492,4.0492,4.0492,4.0492,4.0492,4.0492,4.0492,4.0492,4.0453,4.0291,4.012,4.0105,4.0177,4.0177,4.012,4.0264,4.0375,4.0408,4.0368,4.0264,4.0067,3.9845,3.9765,3.9681,3.9228,3.8942,3.909,3.9295,3.942,3.9389,3.9493,3.9647,3.9815,3.9949,3.9985,4.0009,3.994,3.9808,3.9599,3.9427,3.9262,3.9137,3.9034,3.8948,3.8766,3.8701,3.8699,3.8699,3.8699,3.8699,3.8699,3.8699,3.8699,3.8699,3.8699,3.8699,3.8699,3.8699,3.8699,3.8699,3.8699,3.8699,3.8699,3.8699,3.8699,3.8699,3.8699,3.8699,3.8699,3.8699,3.8699,3.8699,3.8699,3.8699,3.8699,3.8699,3.8699,3.8699,3.8699,3.8699,4.0492,4.0492,4.0492,4.0492,4.0492,4.0492,4.0492,4.0492,4.0492,4.0492,4.0492,4.0492,4.0492,4.0492,4.0492,4.0492,4.0492,4.0492,4.0492,4.0492,4.0492,4.0492,4.0492,4.0492,4.0492,4.0492,4.0492,4.0492,4.0492,4.0492,4.0492,4.0492,4.0492,4.0492,4.0492,4.0492,4.0492,4.0492,4.0492,4.0492,4.0492,4.0492,4.0492,4.0477,4.043,4.0241,4.0177,4.0286,4.0242,4.0172,4.0242,4.0286,4.0313,4.0308,4.0236,4.0134,3.9948,3.9973,3.9958,3.9451,3.9129,3.9358,3.9535,3.9628,3.969,3.9762,3.9903,4.0048,4.0221,4.0251,4.0296,4.0291,4.0203,3.9953,3.9765,3.9605,3.9455,3.9357,3.9123,3.8947,3.878,3.8688,3.8704,3.8699,3.8699,3.8699,3.8699,3.8699,3.8699,3.8699,3.8699,3.8699,3.8699,3.8699,3.8699,3.8699,3.8699,3.8699,3.8699,3.8699,3.8699,3.8699,3.8699,3.8699,3.8699,3.8699,3.8699,3.8699,3.8699,3.8699,3.8699,3.8699,3.8699,3.8699,3.8699,4.0492,4.0492,4.0492,4.0492,4.0492,4.0492,4.0492,4.0492,4.0492,4.0492,4.0492,4.0492,4.0492,4.0492,4.0492,4.0492,4.0492,4.0492,4.0492,4.0492,4.0492,4.0492,4.0492,4.0492,4.0492,4.0492,4.0492,4.0492,4.0492,4.0492,4.0492,4.0492,4.0492,4.0492,4.0492,4.0492,4.0492,4.0492,4.0492,4.0492,4.0492,4.0492,4.0492,4.0473,4.0389,4.0258,4.0167,4.0237,4.0246,4.0181,4.0186,4.0227,4.0227,4.0233,4.0228,4.021,4.0153,4.0134,4.0043,3.9813,3.9529,3.9712,3.9874,3.9913,3.9934,4.0072,4.0203,4.0221,4.0397,4.0492,4.0489,4.0443,4.0412,4.0176,4.0105,3.996,3.9816,3.9694,3.937,3.9113,3.8928,3.8716,3.8704,3.8712,3.8719,3.8712,3.8699,3.8699,3.8699,3.8699,3.8699,3.8699,3.8699,3.8699,3.8699,3.8699,3.8699,3.8699,3.8699,3.8699,3.8699,3.8699,3.8699,3.8699,3.8699,3.8699,3.8699,3.8699,3.8699,3.8699,3.8699,3.8699,3.8699,3.8699,3.8699,4.0492,4.0492,4.0492,4.0492,4.0492,4.0492,4.0492,4.0492,4.0492,4.0492,4.0492,4.0492,4.0492,4.0492,4.0492,4.0492,4.0492,4.0492,4.0492,4.0492,4.0492,4.0492,4.0492,4.0492,4.0492,4.0492,4.0492,4.0492,4.0492,4.0492,4.0492,4.0492,4.0492,4.0492,4.0492,4.0492,4.0492,4.0492,4.0492,4.0492,4.0492,4.0492,4.0492,4.0461,4.0343,4.0218,4.0218,4.0223,4.0232,4.0213,4.0328,4.0385,4.0364,4.0406,4.0429,4.0389,4.0223,4.025,4.041,4.0195,4.0086,4.0062,4.0203,4.0315,4.041,4.0469,4.0426,4.0393,4.0477,4.0492,4.0489,4.05,4.0453,4.0429,4.0336,4.027,4.012,4.0067,3.9784,3.9472,3.9044,3.8729,3.8729,3.8735,3.8757,3.8742,3.8696,3.8699,3.8707,3.8699,3.8699,3.8699,3.8699,3.8699,3.8699,3.8699,3.8699,3.8699,3.8699,3.8699,3.8699,3.8699,3.8699,3.8699,3.8699,3.8699,3.8699,3.8699,3.8699,3.8699,3.8699,3.8699,3.8699,3.8699,3.8699,4.0492,4.0492,4.0492,4.0492,4.0492,4.0492,4.0492,4.0492,4.0492,4.0492,4.0492,4.0492,4.0492,4.0492,4.0492,4.0492,4.0492,4.0492,4.0492,4.0492,4.0492,4.0492,4.0492,4.0492,4.0492,4.0492,4.0492,4.0492,4.0492,4.0492,4.0492,4.0492,4.0492,4.0492,4.0492,4.0492,4.0492,4.0492,4.0492,4.0492,4.0492,4.0492,4.0492,4.0492,4.0385,4.0343,4.0319,4.0315,4.0315,4.0315,4.0481,4.0437,4.0364,4.0381,4.0433,4.036,4.0223,4.0412,4.0481,4.0404,4.0368,4.0389,4.0414,4.0492,4.0492,4.0492,4.0492,4.0492,4.0492,4.0492,4.0492,4.0489,4.0477,4.0477,4.043,4.0449,4.0368,4.0383,4.0241,3.9917,3.9529,3.9317,3.9245,3.9045,3.8994,3.8942,3.8913,3.8773,3.8723,3.8707,3.8699,3.8699,3.8699,3.8699,3.8699,3.8699,3.8699,3.8699,3.8699,3.8699,3.8699,3.8699,3.8699,3.8699,3.8699,3.8699,3.8699,3.8699,3.8699,3.8699,3.8699,3.8699,3.8699,3.8699,3.8699,4.0492,4.0492,4.0492,4.0492,4.0492,4.0492,4.0492,4.0492,4.0492,4.0492,4.0492,4.0492,4.0492,4.0492,4.0492,4.0492,4.0492,4.0492,4.0492,4.0492,4.0492,4.0492,4.0492,4.0492,4.0492,4.0492,4.0492,4.0492,4.0492,4.0492,4.0492,4.0492,4.0492,4.0492,4.0492,4.0492,4.0492,4.0492,4.0492,4.0492,4.0492,4.0492,4.0492,4.0492,4.0481,4.0485,4.0489,4.0492,4.0492,4.0492,4.0469,4.0425,4.0347,4.0347,4.0417,4.0356,4.0368,4.0489,4.0489,4.0489,4.0465,4.0477,4.0492,4.0492,4.0492,4.0492,4.0492,4.0492,4.0492,4.0492,4.0492,4.0492,4.0492,4.0492,4.0492,4.0508,4.0504,4.0488,4.0404,4.0123,4.0058,3.9887,3.9669,3.9486,3.9289,3.9217,3.9143,3.8956,3.8769,3.8713,3.8701,3.8699,3.8699,3.8699,3.8699,3.8699,3.8699,3.8699,3.8699,3.8699,3.8699,3.8699,3.8699,3.8699,3.8699,3.8699,3.8699,3.8699,3.8699,3.8699,3.8699,3.8699,3.8699,3.8699,3.8699,4.0492,4.0492,4.0492,4.0492,4.0492,4.0492,4.0492,4.0492,4.0492,4.0492,4.0492,4.0492,4.0492,4.0492,4.0492,4.0492,4.0492,4.0492,4.0492,4.0492,4.0492,4.0492,4.0492,4.0492,4.0492,4.0492,4.0492,4.0492,4.0492,4.0492,4.0492,4.0492,4.0492,4.0492,4.0492,4.0492,4.0492,4.0492,4.0492,4.0492,4.0492,4.0492,4.0492,4.0492,4.0492,4.0492,4.0492,4.0492,4.0492,4.0492,4.0489,4.0489,4.0485,4.0492,4.0492,4.0492,4.0489,4.0492,4.0492,4.0492,4.0492,4.0492,4.0492,4.0492,4.0492,4.0492,4.0492,4.0492,4.0492,4.0492,4.0492,4.0492,4.0492,4.0492,4.0492,4.0492,4.0492,4.0457,4.0368,4.0297,4.0357,4.0224,3.9906,3.9682,3.9611,3.9552,3.9439,3.9223,3.9013,3.873,3.8715,3.8699,3.8699,3.8699,3.8707,3.8715,3.8699,3.8699,3.8699,3.8699,3.8699,3.8699,3.8699,3.8699,3.8699,3.8699,3.8699,3.8699,3.8699,3.8699,3.8699,3.8699,3.8699,3.8699,3.8699,4.0492,4.0492,4.0492,4.0492,4.0492,4.0492,4.0492,4.0492,4.0492,4.0492,4.0492,4.0492,4.0492,4.0492,4.0492,4.0492,4.0492,4.0492,4.0492,4.0492,4.0492,4.0492,4.0492,4.0492,4.0492,4.0492,4.0492,4.0492,4.0492,4.0492,4.0492,4.0492,4.0492,4.0492,4.0492,4.0492,4.0492,4.0492,4.0492,4.0492,4.0492,4.0492,4.0492,4.0492,4.0492,4.0492,4.0492,4.0492,4.0492,4.0492,4.0492,4.0492,4.0492,4.0492,4.0492,4.0492,4.0492,4.0492,4.0492,4.0492,4.0492,4.0492,4.0492,4.0492,4.0492,4.0492,4.0492,4.0492,4.0492,4.0492,4.0492,4.0492,4.0492,4.0492,4.0492,4.0492,4.0492,4.0473,4.0393,4.04,4.0479,4.0415,4.0105,3.9989,3.9919,3.9896,3.977,3.9558,3.9239,3.8929,3.8849,3.8848,3.8696,3.8707,3.8716,3.8712,3.8715,3.8699,3.8699,3.8699,3.8699,3.8699,3.8699,3.8699,3.8699,3.8699,3.8699,3.8699,3.8699,3.8699,3.8699,3.8699,3.8699,3.8699,3.8699,4.0492,4.0492,4.0492,4.0492,4.0492,4.0492,4.0492,4.0492,4.0492,4.0492,4.0492,4.0492,4.0492,4.0492,4.0492,4.0492,4.0492,4.0492,4.0492,4.0492,4.0492,4.0492,4.0492,4.0492,4.0492,4.0492,4.0492,4.0492,4.0492,4.0492,4.0492,4.0492,4.0492,4.0492,4.0492,4.0492,4.0492,4.0492,4.0492,4.0492,4.0492,4.0492,4.0492,4.0492,4.0492,4.0492,4.0492,4.0492,4.0492,4.0492,4.0492,4.0492,4.0492,4.0492,4.0492,4.0492,4.0492,4.0492,4.0492,4.0492,4.0492,4.0492,4.0492,4.0492,4.0492,4.0492,4.0492,4.0492,4.0492,4.0492,4.0492,4.0492,4.0492,4.0492,4.0492,4.0492,4.0492,4.0492,4.0489,4.0489,4.05,4.0496,4.0397,4.0313,4.0245,4.0208,4.0148,3.9979,3.9553,3.9069,3.9093,3.9166,3.8917,3.8728,3.8759,3.8811,3.8754,3.875,3.8699,3.8699,3.8699,3.8699,3.8699,3.8699,3.8699,3.8699,3.8699,3.8699,3.8699,3.8699,3.8699,3.8699,3.8699,3.8699,3.8699,4.0492,4.0492,4.0492,4.0492,4.0492,4.0492,4.0492,4.0492,4.0492,4.0492,4.0492,4.0492,4.0492,4.0492,4.0492,4.0492,4.0492,4.0492,4.0492,4.0492,4.0492,4.0492,4.0492,4.0492,4.0492,4.0492,4.0492,4.0492,4.0492,4.0492,4.0492,4.0492,4.0492,4.0492,4.0492,4.0492,4.0492,4.0492,4.0492,4.0492,4.0492,4.0492,4.0492,4.0492,4.0492,4.0492,4.0492,4.0492,4.0492,4.0492,4.0492,4.0492,4.0492,4.0492,4.0492,4.0492,4.0492,4.0492,4.0492,4.0492,4.0492,4.0492,4.0492,4.0492,4.0492,4.0492,4.0492,4.0492,4.0492,4.0492,4.0492,4.0492,4.0492,4.0492,4.0492,4.0492,4.0492,4.0492,4.0492,4.0492,4.0492,4.0492,4.0485,4.0377,4.0368,4.0441,4.0406,4.0285,4.001,3.9423,3.935,3.9496,3.9462,3.9233,3.9057,3.9075,3.8869,3.8803,3.8792,3.8715,3.8723,3.8715,3.8699,3.8699,3.8699,3.8699,3.8699,3.8699,3.8699,3.8699,3.8699,3.8699,3.8699,3.8699,3.8699,4.0492,4.0492,4.0492,4.0492,4.0492,4.0492,4.0492,4.0492,4.0492,4.0492,4.0492,4.0492,4.0492,4.0492,4.0492,4.0492,4.0492,4.0492,4.0492,4.0492,4.0492,4.0492,4.0492,4.0492,4.0492,4.0492,4.0492,4.0492,4.0492,4.0492,4.0492,4.0492,4.0492,4.0492,4.0492,4.0492,4.0492,4.0492,4.0492,4.0492,4.0492,4.0492,4.0492,4.0492,4.0492,4.0492,4.0492,4.0492,4.0492,4.0492,4.0492,4.0492,4.0492,4.0492,4.0492,4.0492,4.0492,4.0492,4.0492,4.0492,4.0492,4.0492,4.0492,4.0492,4.0492,4.0492,4.0492,4.0492,4.0492,4.0492,4.0492,4.0492,4.0492,4.0492,4.0492,4.0492,4.0492,4.0492,4.0492,4.0492,4.0492,4.0492,4.0492,4.0492,4.0492,4.0489,4.0485,4.043,4.0414,4.0049,3.9745,3.9867,4.0134,3.9988,3.9662,3.9339,3.916,3.9049,3.904,3.892,3.8773,3.8715,3.8699,3.8699,3.8699,3.8699,3.8699,3.8699,3.8699,3.8699,3.8699,3.8699,3.8699,3.8699,3.8699,4.0492,4.0492,4.0492,4.0492,4.0492,4.0492,4.0492,4.0492,4.0492,4.0492,4.0492,4.0492,4.0492,4.0492,4.0492,4.0492,4.0492,4.0492,4.0492,4.0492,4.0492,4.0492,4.0492,4.0492,4.0492,4.0492,4.0492,4.0492,4.0492,4.0492,4.0492,4.0492,4.0492,4.0492,4.0492,4.0492,4.0492,4.0492,4.0492,4.0492,4.0492,4.0492,4.0492,4.0492,4.0492,4.0492,4.0492,4.0492,4.0492,4.0492,4.0492,4.0492,4.0492,4.0492,4.0492,4.0492,4.0492,4.0492,4.0492,4.0492,4.0492,4.0492,4.0492,4.0492,4.0492,4.0492,4.0492,4.0492,4.0492,4.0492,4.0492,4.0492,4.0492,4.0492,4.0492,4.0492,4.0492,4.0492,4.0492,4.0492,4.0492,4.0492,4.0492,4.0492,4.0492,4.0492,4.0492,4.0492,4.0492,4.0492,4.0261,4.0148,4.0361,4.0314,3.9951,3.9656,3.9463,3.9388,3.9321,3.9171,3.9022,3.8803,3.8699,3.8735,3.8735,3.8699,3.8699,3.8699,3.8699,3.8699,3.8699,3.8699,3.8699,3.8704,3.8762,4.0492,4.0492,4.0492,4.0492,4.0492,4.0492,4.0492,4.0492,4.0492,4.0492,4.0492,4.0492,4.0492,4.0492,4.0492,4.0492,4.0492,4.0492,4.0492,4.0492,4.0492,4.0492,4.0492,4.0492,4.0492,4.0492,4.0492,4.0492,4.0492,4.0492,4.0492,4.0492,4.0492,4.0492,4.0492,4.0492,4.0492,4.0492,4.0492,4.0492,4.0492,4.0492,4.0492,4.0492,4.0492,4.0492,4.0492,4.0492,4.0492,4.0492,4.0492,4.0492,4.0492,4.0492,4.0492,4.0492,4.0492,4.0492,4.0492,4.0492,4.0492,4.0492,4.0492,4.0492,4.0492,4.0492,4.0492,4.0492,4.0492,4.0492,4.0492,4.0492,4.0492,4.0492,4.0492,4.0492,4.0492,4.0492,4.0492,4.0492,4.0492,4.0492,4.0492,4.0492,4.0492,4.0492,4.0492,4.0492,4.0492,4.0492,4.0397,4.0336,4.0428,4.032,4.0148,4.0,3.981,3.9705,3.9652,3.9457,3.9276,3.9136,3.8984,3.8811,3.8796,3.8814,3.8727,3.8699,3.8699,3.8715,3.8699,3.8699,3.8699,3.8735,3.884,4.0492,4.0492,4.0492,4.0492,4.0492,4.0492,4.0492,4.0492,4.0492,4.0492,4.0492,4.0492,4.0492,4.0492,4.0492,4.0492,4.0492,4.0492,4.0492,4.0492,4.0492,4.0492,4.0492,4.0492,4.0492,4.0492,4.0492,4.0492,4.0492,4.0492,4.0492,4.0492,4.0492,4.0492,4.0492,4.0492,4.0492,4.0492,4.0492,4.0492,4.0492,4.0492,4.0492,4.0492,4.0492,4.0492,4.0492,4.0492,4.0492,4.0492,4.0492,4.0492,4.0492,4.0492,4.0492,4.0492,4.0492,4.0492,4.0492,4.0492,4.0492,4.0492,4.0492,4.0492,4.0492,4.0492,4.0492,4.0492,4.0492,4.0492,4.0492,4.0492,4.0492,4.0492,4.0492,4.0492,4.0492,4.0492,4.0492,4.0492,4.0492,4.0492,4.0492,4.0492,4.0492,4.0492,4.0492,4.0492,4.0492,4.0492,4.0492,4.0495,4.0489,4.0499,4.041,4.0364,4.0205,4.0106,3.9951,3.9754,3.9605,3.9535,3.9371,3.9116,3.9008,3.9005,3.8902,3.8842,3.8756,3.8764,3.8715,3.8699,3.8707,3.8826,3.9004]}]]